[[{"header":{"parameterUnit":"m.s-1","parameterCategory":1,"la1":30.6,"la2":28.766,"lo1":-90.7593,"lo2":-88.6598,"dx":0.0162,"dy":0.0183,"nx":116,"ny":114,"refTime":"2022-12-21T06:00:00:Z","depth":0,"parameterNumber":2,"parameterNumberName":"U-component_of_WINDS"},"data":[0.0,0.0,0.0,0.0,0.0,0.0,0.0,0.0,0.0,0.0,0.0,0.0,0.0,0.0,0.0,0.0,0.0,0.0,0.0,0.0,0.0,0.0,0.0,0.0,0.0,0.0,0.0,0.0,0.0,0.0,0.0,0.0,0.0,0.0,0.0,0.0,0.0,0.0,0.0,0.0,0.0,0.0,0.0,0.0,0.0,0.0,0.0,0.0,0.0,0.0,0.0,0.0,0.0,0.0,0.0,0.0,0.0,0.0,0.0,0.0,0.0,0.0,0.0,0.0,0.0,0.0,0.0,0.0,0.0,0.0,0.0,0.0,0.0,0.0,0.0,0.0,0.0,0.0,0.0,0.0,0.0,0.0,0.0,0.0,0.0,0.0,0.0,0.0,0.0,0.0,0.0,0.0,0.0,0.0,0.0,0.0,0.0,0.0,0.0,0.0,0.0,0.0,0.0,0.0,0.0,0.0,0.0,0.0,0.0,0.0,0.0,0.0,0.0,0.0,0.0,0.0,0.0,0.0,0.0,0.0,0.0,0.0,0.0,0.0,0.0,0.0,0.0,0.0,0.0,0.0,0.0,0.0,0.0,0.0,0.0,0.0,0.0,0.0,0.0,0.0,0.0,0.0,0.0,0.0,0.0,0.0,0.0,0.0,0.0,0.0,0.0,0.0,0.0,0.0,0.0,0.0,0.0,0.0,0.0,0.0,0.0,0.0,0.0,0.0,0.0,0.0,0.0,0.0,0.0,0.0,0.0,0.0,0.0,0.0,0.0,0.0,0.0,0.0,0.0,0.0,0.0,0.0,0.0,0.0,0.0,0.0,0.0,0.0,0.0,0.0,0.0,0.0,0.0,0.0,0.0,0.0,0.0,0.0,0.0,0.0,0.0,0.0,0.0,0.0,0.0,0.0,0.0,0.0,0.0,0.0,0.0,0.0,0.0,0.0,0.0,0.0,0.0,0.0,0.0,0.0,0.0,0.0,0.0,0.0,0.0,0.0,0.0,0.0,0.0,0.0,0.0,0.0,0.0,0.0,0.0,0.0,0.0,0.0,0.0,0.0,0.0,0.0,0.0,0.0,0.0,0.0,0.0,0.0,0.0,0.0,0.0,0.0,0.0,0.0,0.0,0.0,0.0,0.0,0.0,0.0,0.0,0.0,0.0,0.0,0.0,0.0,0.0,0.0,0.0,0.0,0.0,0.0,0.0,0.0,0.0,0.0,0.0,0.0,0.0,0.0,0.0,0.0,0.0,0.0,0.0,0.0,0.0,0.0,0.0,0.0,0.0,0.0,0.0,0.0,0.0,0.0,0.0,0.0,0.0,0.0,0.0,0.0,0.0,0.0,0.0,0.0,0.0,0.0,0.0,0.0,0.0,0.0,0.0,0.0,0.0,0.0,0.0,0.0,0.0,0.0,0.0,0.0,0.0,0.0,0.0,0.0,0.0,0.0,0.0,0.0,0.0,0.0,0.0,0.0,0.0,0.0,0.0,0.0,0.0,0.0,0.0,0.0,0.0,0.0,0.0,0.0,0.0,0.0,0.0,0.0,0.0,0.0,0.0,0.0,0.0,0.0,0.0,0.0,0.0,0.0,0.0,0.0,0.0,0.0,0.0,0.0,0.0,0.0,0.0,0.0,0.0,0.0,0.0,0.0,0.0,0.0,0.0,0.0,0.0,0.0,0.0,0.0,0.0,0.0,0.0,0.0,0.0,0.0,0.0,0.0,0.0,0.0,0.0,0.0,0.0,0.0,0.0,0.0,0.0,0.0,0.0,0.0,0.0,0.0,0.0,0.0,0.0,0.0,0.0,0.0,0.0,0.0,0.0,0.0,0.0,0.0,0.0,0.0,0.0,0.0,0.0,0.0,0.0,0.0,0.0,0.0,0.0,0.0,0.0,0.0,0.0,0.0,0.0,0.0,0.0,0.0,0.0,0.0,0.0,0.0,0.0,0.0,0.0,0.0,0.0,0.0,0.0,0.0,0.0,0.0,0.0,0.0,0.0,0.0,0.0,0.0,0.0,0.0,0.0,0.0,0.0,0.0,0.0,0.0,0.0,0.0,0.0,0.0,0.0,0.0,0.0,0.0,0.0,0.0,0.0,0.0,0.0,0.0,0.0,0.0,0.0,0.0,0.0,0.0,0.0,0.0,0.0,0.0,0.0,0.0,0.0,0.0,0.0,0.0,0.0,0.0,0.0,0.0,0.0,0.0,0.0,0.0,0.0,0.0,0.0,0.0,0.0,0.0,0.0,0.0,0.0,0.0,0.0,0.0,0.0,0.0,0.0,0.0,0.0,0.0,0.0,0.0,0.0,0.0,0.0,0.0,0.0,0.0,0.0,0.0,0.0,0.0,0.0,0.0,0.0,0.0,0.0,0.0,0.0,0.0,0.0,0.0,0.0,0.0,0.0,0.0,0.0,0.0,0.0,0.0,0.0,0.0,0.0,0.0,0.0,0.0,0.0,0.0,0.0,0.0,0.0,0.0,0.0,0.0,0.0,0.0,0.0,0.0,0.0,0.0,0.0,0.0,0.0,0.0,0.0,0.0,0.0,0.0,0.0,0.0,0.0,0.0,0.0,0.0,0.0,0.0,0.0,0.0,0.0,0.0,0.0,0.0,0.0,0.0,0.0,0.0,0.0,0.0,0.0,0.0,0.0,0.0,0.0,0.0,0.0,0.0,0.0,0.0,0.0,0.0,0.0,0.0,0.0,0.0,0.0,0.0,0.0,0.0,0.0,0.0,0.0,0.0,0.0,0.0,0.0,0.0,0.0,0.0,0.0,0.0,0.0,0.0,0.0,0.0,0.0,0.0,0.0,0.0,0.0,0.0,0.0,0.0,0.0,0.0,0.0,0.0,0.0,0.0,0.0,0.0,0.0,0.0,0.0,0.0,0.0,0.0,0.0,0.0,0.0,0.0,0.0,0.0,0.0,0.0,0.0,0.0,0.0,0.0,0.0,0.0,0.0,0.0,0.0,0.0,0.0,0.0,0.0,0.0,0.0,0.0,0.0,0.0,0.0,0.0,0.0,0.0,0.0,0.0,0.0,0.0,0.0,0.0,0.0,0.0,0.0,0.0,0.0,0.0,0.0,0.0,0.0,0.0,0.0,0.0,0.0,0.0,0.0,0.0,0.0,0.0,0.0,0.0,0.0,0.0,0.0,0.0,0.0,0.0,0.0,0.0,0.0,0.0,0.0,0.0,0.0,0.0,0.0,0.0,0.0,0.0,0.0,0.0,0.0,0.0,0.0,0.0,0.0,0.0,0.0,0.0,0.0,0.0,0.0,0.0,0.0,0.0,0.0,0.0,0.0,0.0,0.0,0.0,0.0,0.0,0.0,0.0,0.0,0.0,0.0,0.0,0.0,0.0,0.0,0.0,0.0,0.0,0.0,0.0,0.0,0.0,0.0,0.0,0.0,0.0,0.0,0.0,0.0,0.0,0.0,0.0,0.0,0.0,0.0,0.0,0.0,0.0,0.0,0.0,0.0,0.0,0.0,0.0,0.0,0.0,0.0,0.0,0.0,0.0,0.0,0.0,0.0,0.0,0.0,0.0,0.0,0.0,0.0,0.0,0.0,0.0,0.0,0.0,0.0,0.0,0.0,0.0,0.0,0.0,0.0,0.0,0.0,0.0,0.0,0.0,0.0,0.0,0.0,0.0,0.0,0.0,0.0,0.0,0.0,0.0,0.0,0.0,0.0,0.0,0.0,0.0,0.0,0.0,0.0,0.0,0.0,0.0,0.0,0.0,0.0,0.0,0.0,0.0,0.0,0.0,0.0,0.0,0.0,0.0,0.0,0.0,0.0,0.0,0.0,0.0,0.0,0.0,0.0,0.0,0.0,0.0,0.0,0.0,0.0,0.0,0.0,0.0,0.0,0.0,0.0,0.0,0.0,0.0,0.0,0.0,0.0,0.0,0.0,0.0,0.0,0.0,0.0,0.0,0.0,0.0,0.0,0.0,0.0,0.0,0.0,0.0,0.0,0.0,0.0,0.0,0.0,0.0,0.0,0.0,0.0,0.0,0.0,0.0,0.0,0.0,0.0,0.0,0.0,0.0,0.0,0.0,0.0,0.0,0.0,0.0,0.0,0.0,0.0,0.0,0.0,0.0,0.0,0.0,0.0,0.0,0.0,0.0,0.0,0.0,0.0,0.0,0.0,0.0,0.0,0.0,0.0,0.0,0.0,0.0,0.0,0.0,0.0,0.0,0.0,0.0,0.0,0.0,0.0,0.0,0.0,0.0,0.0,0.0,0.0,0.0,0.0,0.0,0.0,0.0,0.0,0.0,0.0,0.0,0.0,0.0,0.0,0.0,0.0,0.0,0.0,0.0,0.0,0.0,0.0,0.0,0.0,0.0,0.0,0.0,0.0,0.0,0.0,0.0,0.0,0.0,0.0,0.0,0.0,0.0,0.0,0.0,0.0,0.0,0.0,0.0,0.0,0.0,0.0,0.0,0.0,0.0,0.0,0.0,0.0,0.0,0.0,0.0,0.0,0.0,0.0,0.0,0.0,0.0,0.0,0.0,0.0,0.0,0.0,0.0,0.0,0.0,0.0,0.0,0.0,0.0,0.0,0.0,0.0,0.0,0.0,0.0,0.0,0.0,0.0,0.0,0.0,0.0,0.0,0.0,0.0,0.0,0.0,0.0,0.0,0.0,0.0,0.0,0.0,0.0,0.0,0.0,0.0,0.0,0.0,0.0,0.0,0.0,0.0,0.0,0.0,0.0,0.0,0.0,0.0,0.0,0.0,0.0,0.0,0.0,0.0,0.0,0.0,0.0,0.0,0.0,0.0,0.0,0.0,0.0,0.0,0.0,0.0,0.0,0.0,0.0,0.0,0.0,0.0,0.0,0.0,0.0,0.0,0.0,0.0,0.0,0.0,0.0,0.0,0.0,0.0,0.0,0.0,0.0,0.0,0.0,0.0,0.0,0.0,0.0,0.0,0.0,0.0,0.0,0.0,0.0,0.0,0.0,0.0,0.0,0.0,0.0,0.0,0.0,0.0,0.0,0.0,0.0,0.0,0.0,0.0,0.0,0.0,0.0,0.0,0.0,0.0,0.0,0.0,0.0,0.0,0.0,0.0,0.0,0.0,0.0,0.0,0.0,0.0,0.0,0.0,0.0,0.0,0.0,0.0,0.0,0.0,0.0,0.0,0.0,0.0,0.0,0.0,0.0,0.0,0.0,0.0,0.0,0.0,0.0,0.0,0.0,0.0,0.0,0.0,0.0,0.0,0.0,0.0,0.0,0.0,0.0,0.0,0.0,0.0,0.0,0.0,0.0,0.0,0.0,0.0,0.0,0.0,0.0,0.0,0.0,0.0,0.0,0.0,0.0,0.0,0.0,0.0,0.0,0.0,0.0,0.0,0.0,0.0,0.0,0.0,0.0,0.0,0.0,0.0,0.0,0.0,0.0,0.0,0.0,0.0,0.0,0.0,0.0,0.0,0.0,0.0,0.0,0.0,0.0,0.0,0.0,0.0,0.0,0.0,0.0,0.0,0.0,0.0,0.0,0.0,0.0,0.0,0.0,0.0,0.0,0.0,0.0,0.0,0.0,0.0,0.0,0.0,0.0,0.0,0.0,0.0,0.0,0.0,0.0,0.0,0.0,0.0,0.0,0.0,0.0,0.0,0.0,0.0,0.0,0.0,0.0,0.0,0.0,0.0,0.0,0.0,0.0,0.0,0.0,0.0,0.0,0.0,0.0,0.0,0.0,0.0,0.0,0.0,0.0,0.0,0.0,0.0,0.0,0.0,0.0,0.0,0.0,0.0,0.0,0.0,0.0,0.0,0.0,0.0,0.0,0.0,0.0,0.0,0.0,0.0,0.0,0.0,0.0,0.0,0.0,0.0,0.0,0.0,0.0,0.0,0.0,0.0,0.0,0.0,0.0,0.0,0.0,0.0,0.0,0.0,0.0,0.0,0.0,0.0,0.0,0.0,0.0,0.0,0.0,0.0,0.0,0.0,0.0,0.0,0.0,0.0,0.0,0.0,0.0,0.0,0.0,0.0,0.0,0.0,0.0,0.0,0.0,0.0,0.0,0.0,0.0,0.0,0.0,0.0,0.0,0.0,0.0,0.0,0.0,0.0,0.0,7.6305,7.3791,0.0,0.0,0.0,0.0,0.0,0.0,0.0,0.0,0.0,0.0,0.0,0.0,0.0,0.0,0.0,0.0,0.0,0.0,0.0,0.0,0.0,0.0,0.0,6.7658,6.7929,6.7929,6.7929,0.0,0.0,0.0,0.0,0.0,0.0,0.0,0.0,0.0,6.8741,7.0567,7.3612,7.713,8.0987,7.9769,7.686,7.2732,0.0,0.0,0.0,0.0,0.0,0.0,0.0,0.0,0.0,0.0,0.0,0.0,0.0,0.0,0.0,0.0,0.0,0.0,0.0,0.0,0.0,0.0,0.0,0.0,0.0,0.0,0.0,0.0,0.0,0.0,0.0,0.0,0.0,0.0,0.0,0.0,0.0,0.0,0.0,0.0,0.0,0.0,0.0,0.0,0.0,0.0,0.0,0.0,0.0,0.0,0.0,0.0,0.0,0.0,0.0,0.0,0.0,0.0,0.0,0.0,0.0,0.0,0.0,0.0,0.0,0.0,0.0,0.0,0.0,0.0,8.3068,7.9656,0.0,0.0,0.0,0.0,0.0,0.0,0.0,0.0,0.0,0.0,0.0,0.0,0.0,0.0,0.0,0.0,0.0,0.0,0.0,0.0,0.0,6.7929,6.935,6.9688,6.9891,7.0026,7.0094,7.0094,7.0094,6.9214,6.8673,6.8673,6.7996,6.8267,6.962,7.0635,7.2665,7.5777,8.0107,8.4979,9.0391,9.2489,8.9444,8.2137,7.9837,0.0,0.0,0.0,0.0,0.0,0.0,0.0,0.0,0.0,0.0,0.0,0.0,0.0,0.0,0.0,0.0,0.0,0.0,0.0,0.0,0.0,0.0,0.0,0.0,0.0,0.0,0.0,0.0,0.0,0.0,0.0,0.0,0.0,0.0,0.0,0.0,0.0,0.0,0.0,0.0,0.0,0.0,0.0,0.0,0.0,0.0,0.0,0.0,0.0,0.0,0.0,0.0,0.0,0.0,0.0,0.0,0.0,0.0,0.0,0.0,0.0,0.0,0.0,9.0788,9.2284,9.3481,9.4259,9.4917,9.5157,8.9771,8.624,8.4145,8.217,0.0,0.0,0.0,0.0,0.0,0.0,0.0,0.0,0.0,0.0,0.0,0.0,0.0,0.0,0.0,0.0,0.0,0.0,0.0,7.0094,7.0906,7.2124,7.3138,7.3815,7.3883,7.3883,7.3883,7.2597,7.1785,7.1785,7.1109,7.1109,7.1921,7.395,7.6724,8.0378,8.9918,9.6277,9.966,10.1216,10.1014,9.8916,9.0324,8.4911,8.2069,0.0,0.0,0.0,0.0,0.0,0.0,0.0,0.0,0.0,0.0,0.0,0.0,0.0,0.0,0.0,0.0,0.0,0.0,0.0,0.0,0.0,0.0,0.0,0.0,0.0,0.0,0.0,0.0,0.0,0.0,0.0,0.0,0.0,0.0,0.0,0.0,0.0,0.0,0.0,0.0,0.0,7.3714,7.4286,0.0,0.0,0.0,0.0,0.0,0.0,0.0,0.0,0.0,0.0,0.0,0.0,0.0,8.7077,8.8454,9.1087,9.2823,9.3721,9.5097,9.6174,9.6892,9.8149,9.8748,9.8867,9.8508,0.0,9.0309,8.8334,0.0,0.0,0.0,0.0,0.0,0.0,0.0,0.0,0.0,0.0,0.0,0.0,0.0,0.0,0.0,0.0,0.0,0.0,0.0,0.0,0.0,7.6995,7.8348,7.9498,7.9634,7.9228,7.8416,7.6995,7.5777,7.4965,7.4627,7.4965,7.6115,7.916,8.437,9.1947,9.9457,10.4464,10.7103,10.8524,10.8794,10.7915,10.3179,9.736,9.0865,8.8226,0.0,0.0,0.0,0.0,0.0,0.0,0.0,0.0,0.0,0.0,0.0,0.0,0.0,0.0,0.0,0.0,0.0,0.0,0.0,0.0,0.0,0.0,0.0,0.0,0.0,0.0,0.0,0.0,0.0,0.0,0.0,0.0,0.0,0.0,0.0,0.0,0.0,0.0,0.0,7.5261,7.7284,7.8579,7.816,7.7143,0.0,0.0,0.0,0.0,0.0,0.0,0.0,0.0,0.0,8.7257,9.007,9.2404,9.408,9.5935,9.7431,9.8508,9.9825,10.0603,10.0842,10.18,10.2279,10.2279,10.2578,10.1022,9.797,9.4558,9.1386,8.8454,0.0,0.0,0.0,0.0,8.4325,8.6,0.0,0.0,0.0,0.0,0.0,0.0,0.0,0.0,0.0,0.0,0.0,0.0,8.0107,8.234,8.4302,8.6196,8.6399,8.579,8.4505,8.2543,8.0648,7.8957,7.8483,7.9092,8.0784,8.6129,9.3368,10.2502,10.7509,11.123,11.3395,11.468,11.5019,11.4477,11.3869,10.8456,9.9525,9.6548,9.2692,8.8091,0.0,0.0,0.0,0.0,0.0,0.0,0.0,0.0,0.0,0.0,0.0,0.0,0.0,0.0,0.0,0.0,0.0,0.0,0.0,0.0,0.0,0.0,0.0,0.0,0.0,0.0,0.0,0.0,0.0,0.0,0.0,0.0,0.0,0.0,0.0,0.0,0.0,7.8889,8.0614,8.2769,8.2469,8.1631,0.0,0.0,0.0,0.0,0.0,0.0,8.7616,8.9771,9.1686,9.3302,9.5516,9.7371,9.8987,10.0184,10.1261,10.2279,10.3416,10.4014,10.4194,10.4912,10.5271,10.5391,10.5391,10.5091,10.4313,9.9885,9.6593,9.4139,9.2045,9.0429,8.9232,8.9412,9.0549,9.2105,0.0,0.0,0.0,0.0,0.0,0.0,0.0,0.0,0.0,0.0,0.0,8.0242,8.4031,8.7617,9.0932,9.3909,9.418,9.3842,9.303,8.9579,8.6535,8.4302,8.2881,8.3152,8.5384,9.533,10.3179,10.8659,11.3192,11.6575,11.8808,11.9552,11.989,11.989,11.989,11.5222,10.7238,10.4329,10.0405,9.5872,9.0594,0.0,0.0,0.0,0.0,0.0,0.0,0.0,0.0,0.0,0.0,0.0,0.0,0.0,0.0,0.0,0.0,0.0,0.0,0.0,0.0,0.0,0.0,0.0,0.0,0.0,0.0,0.0,0.0,0.0,0.0,0.0,0.0,0.0,0.0,0.0,0.0,0.0,0.0,8.612,8.5821,0.0,0.0,0.0,0.0,8.8155,9.007,9.1746,9.3122,9.5636,9.7371,9.8149,10.0723,10.2398,10.3117,10.3835,10.4194,10.4313,10.5032,10.563,10.6288,10.6887,10.7605,10.8144,10.8144,10.8144,10.7785,10.3835,10.1022,9.9107,9.8329,9.7252,9.6174,9.6713,9.7431,9.8269,0.0,0.0,0.0,6.7455,6.7726,6.8402,6.9891,7.1176,7.3409,7.7266,8.0648,8.4843,9.0527,9.4451,9.7834,10.0878,10.0675,9.9457,9.7292,9.3639,9.0391,8.7617,8.7482,9.0256,9.6413,10.3517,10.9674,11.4883,11.8402,12.0973,12.2732,12.3002,12.307,12.307,12.307,12.1243,11.7725,11.2786,10.8185,10.3517,9.7834,9.2421,0.0,0.0,0.0,0.0,0.0,0.0,0.0,0.0,0.0,0.0,0.0,0.0,0.0,0.0,0.0,0.0,0.0,0.0,0.0,0.0,0.0,0.0,0.0,0.0,0.0,0.0,0.0,0.0,0.0,0.0,0.0,0.0,0.0,0.0,0.0,0.0,0.0,9.0788,9.0908,0.0,9.1386,9.2404,9.3421,9.4319,9.5815,9.7252,9.8568,9.9945,10.1201,10.2279,10.3655,10.4912,10.5989,10.6169,10.6528,10.6947,10.7186,10.7485,10.7665,10.7904,10.8144,10.8383,10.8383,10.8383,10.8263,10.6887,10.5391,10.3835,10.2698,10.2039,10.1561,10.1381,10.2039,10.3057,0.0,6.6846,0.0,6.7793,6.8132,6.9011,7.0973,7.2597,7.5236,7.9972,8.4031,8.8903,9.5127,9.9593,10.3314,10.6291,10.6088,10.4667,10.1893,9.824,9.4857,9.1812,9.3436,9.7834,10.5344,11.0418,11.5222,12.0025,12.2664,12.4626,12.5912,12.6115,12.6182,12.6182,12.6182,12.5776,12.4829,12.0634,11.5831,11.0621,10.5073,9.9728,9.4451,0.0,0.0,0.0,0.0,0.0,0.0,0.0,0.0,0.0,0.0,0.0,0.0,0.0,0.0,0.0,0.0,0.0,0.0,0.0,0.0,0.0,0.0,0.0,0.0,0.0,0.0,0.0,0.0,0.0,0.0,0.0,0.0,0.0,0.0,8.9479,9.1805,9.4858,9.5456,9.5875,9.6533,9.7611,9.8508,9.9107,10.0423,10.162,10.2757,10.3655,10.4493,10.5391,10.6109,10.6827,10.7665,10.7725,10.7964,10.8383,10.8383,10.8503,10.8682,10.8682,10.8802,10.8982,10.8982,10.8982,10.8982,10.8982,10.8383,10.7306,10.6169,10.569,10.569,10.5271,10.563,10.6408,0.0,6.6846,6.7049,6.7793,6.8605,6.962,7.1176,7.3883,7.713,8.0919,8.667,9.2353,9.7631,10.2908,10.717,11.0215,11.0418,10.9403,10.7103,10.3517,10.0202,9.7292,10.0811,10.5614,11.1501,11.6034,12.0093,12.3747,12.5979,12.7468,12.8212,12.9024,12.9295,12.9295,12.9295,12.8889,12.8212,12.74,12.3273,11.6981,11.238,10.7509,10.2231,0.0,0.0,0.0,0.0,0.0,0.0,0.0,0.0,0.0,0.0,0.0,0.0,0.0,0.0,0.0,0.0,0.0,0.0,0.0,0.0,0.0,0.0,0.0,0.0,0.0,0.0,0.0,0.0,0.0,0.0,0.0,0.0,0.0,9.2001,9.3631,9.5755,9.8389,9.9226,9.9945,10.0603,10.1321,10.1979,10.2578,10.3835,10.4792,10.551,10.6707,10.7426,10.7485,10.8084,10.8443,10.8443,10.8503,10.8503,10.8443,10.8443,10.8802,10.94,10.94,10.976,11.0298,11.0298,11.0298,11.0298,11.0298,10.9939,10.9341,10.8682,10.8383,10.8383,10.8383,10.8383,10.8443,6.6846,6.6846,6.7252,6.8538,6.8944,6.9958,7.2529,7.5439,7.9092,8.3896,9.0188,9.648,10.2164,10.7035,11.0824,11.326,11.1974,11.008,10.7847,10.4735,10.3314,10.4126,10.7712,11.1974,11.6913,12.0905,12.422,12.6927,12.8618,12.9768,13.0512,13.1189,13.1595,13.1595,13.1595,13.1527,13.1189,12.9904,12.7671,12.4626,11.9011,11.3936,10.92,0.0,0.0,0.0,0.0,0.0,0.0,0.0,0.0,0.0,0.0,0.0,0.0,0.0,0.0,0.0,0.0,0.0,0.0,0.0,0.0,0.0,0.0,0.0,0.0,0.0,0.0,0.0,0.0,0.0,0.0,0.0,9.3665,9.5609,9.5609,9.7547,9.9645,10.18,10.2638,10.3296,10.4014,10.5091,10.5869,10.5989,10.6767,10.7366,10.7545,10.7904,10.8323,10.8802,10.946,10.9999,11.0478,11.0956,11.0956,11.0478,11.0478,11.0298,11.0119,11.0119,11.0119,11.0298,11.0298,11.0298,11.0298,11.0298,10.9939,10.94,10.9221,10.9101,10.9101,10.9101,10.94,10.9819,6.6846,6.6846,6.732,6.8808,6.9079,7.0094,7.3003,7.6318,8.0242,8.5114,9.215,9.8781,10.4058,10.9268,11.2989,11.4613,11.3463,11.1839,10.9606,10.7509,10.7509,11.008,11.3463,11.759,12.2393,12.4897,12.74,12.9904,13.1121,13.2069,13.2813,13.3625,13.3895,13.3895,13.3895,13.376,13.3422,13.2204,13.0918,12.9092,12.5032,12.0296,11.5357,11.1771,10.8118,10.4532,10.1825,9.9119,9.6683,9.5195,0.0,0.0,0.0,0.0,0.0,0.0,0.0,0.0,0.0,0.0,0.0,0.0,0.0,0.0,0.0,0.0,0.0,0.0,0.0,0.0,0.0,0.0,0.0,0.0,9.7214,9.9529,10.043,10.1746,10.3117,10.4493,10.551,10.6229,10.6588,10.7366,10.7785,10.7785,10.8383,10.8922,10.9161,10.946,10.9879,11.0597,11.0956,11.1316,11.1675,11.2094,11.1974,11.1316,11.1316,11.0956,11.0298,11.0298,11.0298,11.0298,11.0298,11.0298,11.0298,11.0298,10.9939,10.94,0.0,0.0,0.0,0.0,10.9999,11.0298,6.6846,6.6914,6.7387,6.8876,6.9147,7.0161,7.3071,7.6724,8.0716,8.5182,9.2827,9.9593,10.4058,10.9809,11.3598,11.441,11.441,11.353,11.1636,11.1095,11.2312,11.5289,11.8402,12.2326,12.713,12.8212,13.0039,13.261,13.3489,13.4301,13.491,13.579,13.6128,13.6128,13.6128,13.579,13.5113,13.4301,13.3083,13.1527,13.0242,12.6182,12.077,11.8469,11.5492,11.2177,11.0689,10.8253,10.5479,10.4126,0.0,0.0,0.0,0.0,0.0,0.0,0.0,0.0,0.0,0.0,0.0,0.0,0.0,0.0,0.0,0.0,0.0,0.0,0.0,0.0,0.0,0.0,0.0,0.0,10.0189,10.3133,10.5151,10.575,10.6049,10.6588,10.7725,10.8503,10.8503,10.8563,10.8563,10.8563,10.9161,10.97,11.0298,11.0897,0.0,0.0,0.0,11.2273,11.2153,11.2273,11.1974,11.1316,11.1316,11.0956,11.0298,11.0298,11.0298,11.0298,11.0298,11.0298,11.0298,11.0298,10.9999,10.952,10.94,10.94,10.946,11.0119,11.0298,11.0298,6.6914,6.732,6.7996,6.8944,6.962,7.077,7.3138,7.6724,8.0716,8.5182,9.2421,9.8781,10.3314,10.8118,11.1501,11.2786,11.238,11.2109,11.2245,11.3801,11.6304,11.989,12.3611,12.6521,12.8686,13.1324,13.288,13.3489,13.4843,13.5519,13.5722,13.7075,13.7684,13.7684,13.7684,13.7617,13.7346,13.5993,13.464,13.3219,13.2948,12.9971,12.5506,12.3205,12.077,11.8402,11.6913,11.441,11.1703,11.0892,10.8997,10.6629,10.4396,10.1284,0.0,0.0,0.0,0.0,0.0,0.0,0.0,0.0,0.0,0.0,0.0,0.0,0.0,0.0,0.0,0.0,0.0,0.0,0.0,10.066,10.3144,10.5032,10.6109,10.7605,10.8503,10.8084,10.8682,10.9221,10.9221,10.964,10.9939,10.9939,11.0119,11.0238,11.0298,11.0897,11.1136,11.0717,11.1735,11.2034,11.1495,11.1974,11.1974,11.1316,11.1316,0.0,11.0298,11.0298,11.0298,11.0298,11.0298,11.0298,11.0298,11.0298,11.0238,11.0119,10.958,10.94,10.946,11.0119,11.0298,11.0298,6.7996,6.7929,6.8132,6.8944,6.9688,7.0906,7.3138,7.6386,8.0175,8.464,9.1068,9.6954,10.1419,10.5885,10.92,11.0689,11.1906,11.3327,11.5154,11.7387,12.0296,12.4017,12.6724,12.8956,13.0783,13.2677,13.4098,13.4843,13.5925,13.6805,13.7617,13.8293,13.8834,13.9173,13.9173,13.9173,13.9105,13.7617,13.6602,13.579,13.4707,13.2677,13.0106,12.74,12.5303,12.3476,12.192,11.9958,11.786,11.6778,11.5154,11.326,11.0959,10.7982,10.4532,0.0,0.0,0.0,0.0,0.0,0.0,0.0,0.0,0.0,0.0,0.0,0.0,0.0,0.0,9.9368,9.9767,0.0,10.2289,10.3639,10.5245,10.6767,10.7785,10.9041,10.964,10.8982,10.976,11.0358,11.0358,11.0597,11.0837,11.0837,11.0538,11.0418,11.0837,11.1136,11.1316,11.1316,11.1974,11.2094,11.1794,11.2094,11.1974,11.1316,11.1316,11.0956,11.0298,11.0298,11.0298,11.0298,11.0717,11.0837,11.0837,11.1196,11.1316,11.1316,11.0956,11.0597,11.0418,11.1076,11.1316,11.1316,6.9147,6.8673,6.8538,6.9214,7.0026,7.1244,7.3206,7.6048,7.9431,8.3422,8.897,9.4112,9.824,10.257,10.6088,10.8524,11.1568,11.4816,11.8131,12.0499,12.3476,12.7265,12.8821,13.0512,13.2475,13.3625,13.4707,13.5925,13.6805,13.7887,13.924,13.9308,13.9782,14.0526,14.0526,14.0526,14.0391,13.9105,13.8361,13.7887,13.6196,13.4775,13.3625,13.1121,12.9024,12.7197,12.5709,12.422,12.2664,12.1379,12.0093,11.8605,11.6575,11.3869,11.0621,10.6494,10.2976,0.0,0.0,0.0,0.0,0.0,0.0,0.0,0.0,10.3397,10.4248,10.4851,10.4925,10.4793,10.4438,10.489,10.5467,10.6123,10.7111,10.8204,10.94,11.0119,11.0418,10.9999,11.0897,11.1435,11.1316,11.1316,11.1196,11.1136,11.0597,11.0538,11.1076,11.1196,11.1495,11.1914,11.2034,11.2034,11.1914,11.1914,11.1615,11.1136,11.1136,11.0897,11.0538,11.0538,11.0597,11.0717,11.1316,11.1495,11.1495,11.2213,11.2513,11.2513,11.2632,11.2393,11.1914,11.2213,11.2273,11.2273,6.9214,6.9553,6.9958,7.0026,7.1244,7.2462,7.3341,7.6048,7.8889,8.1325,8.5723,8.9782,9.2962,9.6683,10.1216,10.6697,11.0486,11.4477,11.8808,12.1785,12.5032,12.8821,13.0377,13.1595,13.2475,13.4572,13.5722,13.5925,13.7278,13.8428,13.924,13.9917,14.0593,14.1405,14.1405,14.1405,14.1338,14.0391,13.9308,13.809,13.782,13.6466,13.4572,13.3625,13.1392,12.8821,12.7265,12.5776,12.4288,12.3544,12.2732,12.1785,12.0905,11.8131,11.468,11.2177,10.8388,10.4802,10.3787,10.4532,10.5682,10.6629,10.7373,10.8251,0.0,10.9546,10.9865,11.0821,11.0267,10.946,10.9108,10.8474,10.8087,10.7919,10.8659,10.94,11.0119,11.0777,11.1375,11.1914,11.2094,11.1974,11.1375,11.1316,11.1076,11.0478,11.0358,11.0358,11.0418,11.1016,11.1076,11.0538,11.1136,11.1136,11.0538,11.0538,11.0538,11.0418,11.0418,11.0717,11.1196,11.1196,11.1495,11.2094,11.2153,11.2153,11.2213,11.2931,11.3231,11.3231,11.3829,11.4009,11.3829,11.2692,11.2273,11.2273,7.0567,7.0635,7.0838,7.0838,7.1718,7.2665,7.3409,7.5303,7.7604,8.031,8.3016,8.6061,8.9444,9.4315,9.939,10.4532,10.8794,11.3463,11.8808,12.1988,12.5303,12.9024,13.058,13.173,13.2475,13.4707,13.5925,13.5925,13.7414,13.8699,13.9849,14.0188,14.0999,14.2082,14.2082,14.2082,14.2082,14.0796,13.9917,13.9308,13.8428,13.7008,13.5384,13.4572,13.2475,12.9633,12.8212,12.6724,0.0,12.4017,12.3408,12.2935,12.1785,11.9687,11.7319,11.5086,11.1568,10.8388,10.7982,10.9335,11.1095,11.2245,11.353,11.4536,11.4744,11.4945,11.4884,11.4433,11.3768,11.2732,11.1313,11.0502,10.9772,10.9233,11.004,11.0597,11.0837,11.1495,11.1974,11.2273,11.2273,11.2153,11.1914,11.1495,11.1196,11.0897,11.0538,11.0298,11.0298,11.0597,11.0777,11.0897,11.1196,11.1375,11.1495,11.1495,11.1495,11.1495,11.1495,11.1615,11.1914,11.1914,11.2213,11.2931,11.3291,11.3709,11.4069,11.4787,11.5026,11.5086,11.5385,11.5505,11.5325,11.3949,11.347,11.347,7.1447,7.1312,7.1312,7.1312,7.2056,7.2868,7.3409,7.4965,7.6792,7.9025,8.0784,8.3219,8.7008,9.1947,9.6819,10.1352,10.602,11.1365,11.759,12.0905,12.4491,12.8686,13.0106,13.1324,13.2475,13.4301,13.5384,13.5587,13.7075,13.8428,13.9714,13.9917,14.0729,14.2014,14.2014,14.2014,14.1879,14.0796,14.0188,13.9917,13.8834,13.7414,13.579,13.5113,13.2813,12.9768,12.828,12.6724,12.5032,12.3544,12.2935,12.2529,12.1379,12.0093,11.8537,11.671,11.3936,11.1636,11.1974,11.3733,11.5831,11.7319,11.8808,11.9942,11.9758,11.9662,11.916,11.751,11.633,11.4842,11.2683,11.1531,11.0729,11.0119,11.074,11.1375,11.1495,11.1974,11.2273,11.2273,11.2094,11.1974,11.1974,11.1615,11.1196,11.1016,11.0597,11.0418,11.0597,11.0597,11.0897,11.1555,11.1615,11.1794,11.2273,11.2273,11.2273,11.2273,11.2273,11.2393,11.2572,11.2991,11.347,11.4188,11.4607,11.5086,11.5565,11.6103,11.6283,11.6283,11.6283,11.6283,11.6223,11.5206,11.4847,11.4906,7.1447,7.1312,7.1312,7.1312,7.2529,7.3477,7.3477,7.5439,7.6927,7.6995,7.8889,8.1663,8.5452,8.8564,9.2218,9.6683,10.1893,10.7712,11.441,11.8266,12.2664,12.7941,12.8889,13.0309,13.2475,13.3286,13.4098,13.4775,13.6331,13.7414,13.8158,13.8902,13.9646,14.0391,14.0391,14.0391,14.0391,14.0323,13.9917,13.924,13.924,13.7887,13.579,13.5113,13.2475,12.9024,12.7603,12.5573,12.3408,12.1988,12.0973,12.0364,12.0296,11.9281,11.7996,11.7184,11.5763,11.4883,11.6304,11.8402,12.0499,12.192,12.3408,12.4536,12.4317,12.3633,12.2461,12.0563,11.8265,11.5552,11.292,11.1644,11.0714,11.044,11.0897,11.1495,11.2153,11.2273,11.2273,11.2273,11.1735,11.1316,11.1316,11.1316,11.1016,11.0418,11.0298,11.0597,11.1196,11.1316,11.1615,11.2213,11.2273,11.2273,11.2273,11.2273,11.2273,11.2273,11.2273,11.2632,11.3291,11.4607,11.5565,11.6223,11.6163,11.6283,11.6283,11.6283,11.6283,11.6283,11.6283,11.6283,11.6283,11.6223,11.6223,11.6223,7.2191,7.165,7.1312,7.1312,7.2124,7.2935,7.3409,7.4965,7.6318,7.686,7.8822,0.0,0.0,0.0,0.0,0.0,9.7969,10.3382,10.9132,11.4004,11.8469,12.2732,12.5506,12.7603,12.8821,13.058,13.1798,13.2542,13.4098,13.5722,13.7414,13.809,13.9105,14.0323,14.0323,14.0323,14.0188,13.9308,13.8699,13.8293,13.6872,13.5519,13.4301,13.3016,13.0242,12.6791,0.0,12.3611,12.1785,11.989,11.9417,11.9417,11.8402,11.8063,11.7928,11.6575,11.6575,11.7319,11.8808,12.0837,12.2935,12.4423,12.5506,12.6158,12.539,12.4632,12.3016,12.0469,11.8212,11.5303,11.1922,11.0585,10.9927,10.9181,10.9939,11.0897,11.1495,11.1615,11.1615,11.1615,11.1016,11.0837,11.1316,11.0897,11.0717,11.0956,11.1016,11.1256,11.1914,11.1974,11.2273,11.2931,11.2991,11.3171,11.359,11.359,11.359,11.359,11.4069,11.4607,11.5325,11.5744,11.6103,11.6343,11.6702,11.6881,11.6941,11.742,11.76,11.76,11.76,11.76,11.76,11.76,11.76,11.742,7.2597,7.2056,7.165,7.1379,7.1921,0.0,0.0,0.0,0.0,0.0,0.0,0.0,0.0,0.0,0.0,0.0,0.0,9.8645,10.4126,10.92,11.3801,11.8131,12.1582,12.4085,12.537,12.6994,12.8415,12.943,13.0986,13.2677,13.4572,13.5587,13.6805,13.7887,13.7887,13.7887,13.7887,13.6872,13.6399,13.5993,13.4572,13.3219,13.1933,13.0377,12.7535,0.0,12.192,12.0296,11.8875,11.7996,11.7793,11.786,11.7116,11.7522,11.7996,11.7184,11.8131,11.9619,12.1108,12.3138,12.51,12.6385,12.7037,12.7483,12.6597,12.5427,12.3593,12.0486,11.7465,11.4053,11.0251,10.887,10.8161,10.8102,10.9101,11.0298,11.1196,11.1316,11.1196,11.1016,11.0777,11.0837,11.1316,11.1136,11.1196,11.1615,11.1675,11.1914,11.2632,11.2872,11.3291,11.4009,11.4248,11.4607,11.5026,11.5026,11.5026,11.4966,11.5445,11.5984,11.6642,11.6582,11.6762,11.7001,11.742,11.76,11.76,11.8018,11.8198,11.8198,11.8198,11.8198,11.8198,11.8198,11.8198,11.8078,7.28,7.2462,7.2191,0.0,0.0,0.0,0.0,0.0,0.0,0.0,0.0,0.0,0.0,0.0,0.0,0.0,0.0,0.0,9.939,10.3923,10.8727,11.3869,11.7048,11.9687,12.192,12.2732,12.3882,12.5506,12.6994,12.8483,12.9971,13.1527,13.2677,13.3489,13.3489,13.3489,13.3489,13.3422,13.3016,13.2204,13.2136,13.0783,12.8686,12.7197,12.4423,12.077,11.7793,11.5831,11.4748,11.6169,11.6304,11.6034,11.6778,11.759,11.8402,11.9078,12.0364,12.1785,12.3408,12.537,12.7265,12.8009,12.8428,12.8338,12.8072,12.6346,12.394,12.0436,11.6093,11.1998,10.8226,10.625,10.5606,10.6887,10.8383,10.97,11.1016,11.1196,11.1016,11.0418,11.0897,11.1316,11.1375,11.1974,11.2393,11.2393,11.2393,11.2692,11.341,11.4009,11.4667,11.5265,11.5984,11.6283,11.6283,11.6283,11.6283,11.6283,11.6283,11.6702,11.73,11.73,11.76,11.8198,11.8198,11.8198,11.8198,11.8198,11.8198,11.8198,11.8198,11.8198,11.8198,11.8198,11.8198,11.8198,0.0,0.0,0.0,0.0,0.0,0.0,0.0,0.0,0.0,0.0,0.0,0.0,0.0,0.0,0.0,0.0,0.0,0.0,9.33,9.7766,10.2096,10.6223,10.9809,11.2786,11.4951,11.6304,11.7996,12.0093,12.1582,12.3611,12.6182,12.7671,12.9092,13.0309,13.0309,13.0309,13.0309,12.9768,12.9092,12.828,12.7197,12.5979,12.4829,12.2799,12.0364,11.786,11.5898,11.4004,11.238,11.326,11.4951,11.6913,11.8199,11.9078,11.9958,12.1311,12.2326,12.3476,12.5573,12.74,12.8821,12.9565,12.9508,12.9145,12.837,12.5603,12.2392,11.8637,11.4407,11.0321,10.6323,10.4906,10.4583,10.5032,10.6288,10.7785,10.964,10.9879,11.0178,11.1016,11.1196,11.1675,11.2692,11.2931,11.347,11.4487,11.359,11.359,11.4727,11.4966,11.5385,11.5984,11.6223,11.6283,11.6283,11.6283,11.6462,11.7001,11.7001,11.73,11.7959,11.7959,11.8018,11.8198,11.8198,11.8198,11.8198,11.8198,11.8198,11.8198,11.8198,11.8198,11.8198,11.8198,11.8198,11.8198,0.0,0.0,0.0,0.0,0.0,0.0,0.0,0.0,0.0,0.0,0.0,0.0,0.0,0.0,0.0,0.0,0.0,0.0,0.0,9.2962,9.6751,10.0472,10.4261,10.7306,10.9471,11.1365,11.3192,11.5222,11.6575,11.8672,12.1311,12.2529,12.3882,12.5303,12.5303,12.5303,12.5303,12.4897,12.4288,0.0,0.0,12.1446,12.0025,11.8402,11.644,11.4274,11.2786,11.1906,11.1568,11.2989,11.5695,11.8672,12.0567,12.1582,12.2461,12.3611,12.4491,12.5506,12.74,12.8821,12.9836,13.025,12.985,12.9078,12.7486,12.4316,12.034,11.6319,11.1668,10.7241,10.4309,10.2605,10.2172,10.3356,10.4673,10.6288,10.8622,10.9221,10.9879,11.1136,11.1555,11.2153,11.3231,11.3829,11.4487,11.5206,11.4607,11.4607,11.5684,11.5984,11.6283,11.6702,11.7001,11.7121,11.7121,11.7121,11.73,11.7659,11.7659,11.7839,11.8198,11.8198,11.8198,11.8198,11.8198,11.8198,11.8198,11.8198,11.8198,11.8198,11.8198,11.8198,11.8198,11.8198,11.8198,11.8258,0.0,0.0,0.0,0.0,0.0,0.0,0.0,0.0,0.0,7.6251,7.6657,7.7333,7.8077,7.8754,0.0,0.0,0.0,0.0,0.0,0.0,9.2083,9.5533,9.9187,10.2231,10.4396,10.6697,10.8659,11.035,11.1839,11.3733,11.5898,11.6778,11.7928,11.9281,11.9417,11.9417,11.9417,11.9417,11.9011,11.8266,11.8199,11.6913,11.5019,0.0,11.2583,11.0621,10.9403,10.9877,11.1568,11.4004,11.7251,12.0702,12.2935,12.422,12.5032,12.5912,12.6588,12.74,12.8821,12.9768,13.0415,13.0758,12.9918,12.84,12.6396,12.2542,11.8176,11.4064,10.8579,10.4001,10.2061,9.989,9.9346,10.192,10.3416,10.5211,10.7844,10.8922,10.9879,11.1316,11.2034,11.2692,11.353,11.4607,11.5385,11.5505,11.5565,11.5804,11.6403,11.6941,11.724,11.736,11.7899,11.8198,11.8198,11.8198,11.8198,11.8198,11.8198,11.8198,11.8198,11.8198,11.8198,11.8198,11.8198,11.8198,11.8198,11.8198,11.8198,11.8198,11.8198,11.8198,11.8198,11.8198,11.8198,11.7981,0.0,0.0,0.0,0.0,0.0,0.0,0.0,0.0,0.0,0.0,7.8077,7.8077,7.8822,7.9025,0.0,0.0,0.0,0.0,0.0,0.0,0.0,8.9444,9.2489,9.5195,9.7495,9.9728,10.2164,10.5005,10.6426,10.8321,11.0553,11.1906,11.2989,11.3869,11.4477,11.4816,11.4816,11.4816,11.4274,11.3598,11.2989,11.2177,11.1095,10.9741,10.8524,0.0,10.7373,10.8659,11.1027,11.4477,11.7725,12.0702,12.2935,12.4626,12.5979,12.7332,12.7806,12.8077,12.9024,13.0174,13.1091,13.0893,12.9914,12.8789,12.6595,12.1554,11.6359,11.2407,10.6923,10.2539,10.0852,9.9409,9.9226,10.1261,10.2698,10.4493,10.7186,10.8622,11.0059,11.1914,11.2692,11.359,11.4787,11.5146,11.5684,11.6822,11.6881,11.6941,11.7061,11.7121,11.748,11.8018,11.8138,11.8198,11.8198,11.8198,11.8198,11.8198,11.8198,11.8198,11.8198,11.8198,11.8198,11.8198,11.8198,11.8198,11.8198,11.8198,11.8198,11.8198,11.8198,11.8198,11.8198,11.8198,11.7981,11.7328,0.0,0.0,0.0,0.0,0.0,0.0,0.0,7.8686,7.9566,8.0648,8.0513,8.0107,7.9701,7.9701,7.9837,0.0,0.0,0.0,0.0,0.0,0.0,8.6738,8.9309,9.1744,9.3977,9.6616,9.9051,10.1284,0.0,10.4464,10.6291,10.6967,10.7915,10.8997,10.9403,10.9809,11.008,11.0486,11.0283,10.9606,10.9606,10.8997,10.7915,10.7103,10.6426,0.0,10.6223,10.7509,10.9606,11.2989,11.5684,11.8372,12.2867,12.5235,12.6724,12.7806,12.8144,12.8347,12.9498,13.0309,13.0821,13.0893,12.9877,12.8043,12.5556,12.0372,11.4866,11.043,10.5335,10.1389,10.0008,9.8808,9.8628,10.0663,10.18,10.3296,10.5989,10.7785,10.958,11.1495,11.2991,11.4188,11.5206,11.5924,11.6522,11.7181,11.754,11.7719,11.7719,11.7719,11.7899,11.8198,11.8198,11.8198,11.8198,11.8198,11.8198,11.8198,11.8198,11.8198,11.8198,11.8198,11.8198,11.8198,11.8198,11.8198,11.8198,11.8198,11.8198,11.8198,11.8198,11.8198,11.8258,11.7704,11.7487,11.705,0.0,0.0,0.0,0.0,0.0,0.0,0.0,7.9837,8.0987,8.2475,8.2475,8.2002,8.0987,8.0648,8.0378,0.0,0.0,0.0,0.0,0.0,0.0,0.0,8.7008,8.9106,9.1203,0.0,0.0,9.7901,9.9457,0.0,0.0,0.0,0.0,0.0,10.4532,10.5005,10.575,10.6291,10.6291,0.0,0.0,10.6088,10.5073,0.0,0.0,0.0,0.0,10.6426,10.8185,11.0954,11.3243,11.5647,12.1274,12.4244,12.6091,12.7104,12.7577,12.7983,12.943,13.0039,13.0317,13.0755,12.9267,12.6967,12.4056,11.8946,11.3505,10.8647,10.4059,10.0547,9.9166,9.8029,9.803,9.9765,10.0842,10.2339,10.4852,10.7007,10.9101,11.1076,11.3111,11.4607,11.5385,11.6522,11.73,11.742,11.7899,11.8198,11.8198,11.8198,11.8198,11.8198,11.8198,11.8198,11.8198,11.8198,11.8198,11.8198,11.8198,11.8198,11.8198,11.8198,11.8198,11.8198,11.8198,11.8198,11.8198,11.8198,11.8198,11.8198,11.8198,11.8198,11.8198,11.7546,11.705,11.667,0.0,0.0,0.0,0.0,0.0,0.0,0.0,8.031,8.1731,8.3219,8.2813,8.2611,8.3152,8.2002,8.0919,0.0,0.0,0.0,0.0,0.0,0.0,0.0,0.0,0.0,0.0,0.0,0.0,9.4112,9.5601,0.0,0.0,0.0,0.0,0.0,0.0,10.1216,10.1893,10.1961,0.0,0.0,0.0,0.0,0.0,0.0,0.0,0.0,0.0,10.5208,10.7373,10.9257,11.1406,11.3762,11.6758,11.9557,12.2239,12.4734,12.5811,12.6714,12.7915,12.8968,12.9616,12.9914,12.819,12.5236,12.2736,11.77,11.2092,10.7058,10.3393,10.0365,9.8029,9.7551,9.773,9.8568,10.0304,10.2159,10.4194,10.6707,10.9101,11.1076,11.3111,11.4787,11.6103,11.6822,11.748,11.8078,11.8198,11.8198,11.8198,11.8198,11.8198,11.8198,11.8198,11.8198,11.8198,11.8198,11.8198,11.8198,11.8198,11.8198,11.8198,11.8198,11.8198,11.8198,11.8198,11.8198,11.8198,11.8198,11.8198,11.8198,11.8198,11.8198,11.8198,11.7546,11.667,11.5503,0.0,0.0,0.0,0.0,0.0,0.0,7.9566,8.0987,8.2475,8.3964,8.3896,8.3693,8.349,8.2543,8.1663,8.0919,0.0,0.0,0.0,0.0,0.0,0.0,0.0,0.0,0.0,0.0,9.0188,9.1541,9.303,0.0,0.0,0.0,0.0,0.0,0.0,9.7563,9.8713,9.9593,0.0,0.0,0.0,0.0,0.0,0.0,0.0,0.0,0.0,0.0,10.5953,10.7707,10.938,11.0974,11.3225,11.4973,11.7056,12.2079,12.4009,12.5016,12.6792,12.7836,12.8676,12.8562,12.6702,12.3986,12.1418,11.6592,11.1305,10.6753,10.3275,10.0491,9.7969,9.7491,9.773,9.8389,9.9526,10.1082,10.3476,10.6109,10.8383,10.9999,11.2632,11.4667,11.5565,11.6642,11.754,11.8138,11.8198,11.8198,11.8198,11.8198,11.8198,11.8198,11.8198,11.8198,11.8198,11.8198,11.8198,11.8198,11.8198,11.8198,11.8198,11.8198,11.8198,11.8198,11.8198,11.8198,11.8198,11.8198,11.8198,11.8198,11.8198,11.7981,11.7546,11.689,11.5725,11.4155,0.0,0.0,0.0,0.0,0.0,7.8416,7.9701,8.1325,8.2881,8.4099,8.4505,8.437,8.3558,8.2813,8.2137,8.1325,8.0648,0.0,0.0,0.0,0.0,0.0,0.0,0.0,0.0,0.0,8.8361,8.8903,9.0391,9.1474,0.0,0.0,9.2624,9.3368,0.0,0.0,0.0,0.0,0.0,0.0,0.0,0.0,0.0,0.0,0.0,0.0,0.0,0.0,0.0,0.0,0.0,10.8409,11.0591,11.1372,11.263,11.8903,12.133,12.273,12.483,12.5932,12.6697,12.657,12.4403,12.1732,11.9342,11.4849,10.9951,10.5774,10.2911,10.013,9.7789,9.7192,9.7371,9.785,9.8808,10.0304,10.2518,10.5091,10.7366,10.8922,11.1794,11.4128,11.5206,11.6642,11.7719,11.8198,11.8198,11.8198,11.8198,11.8198,11.8198,11.8198,11.8198,11.8198,11.8198,11.8198,11.8198,11.8198,11.8378,11.8497,11.8497,11.8737,11.8796,11.8796,11.8617,11.8497,11.8497,11.8318,11.8318,11.8497,11.8497,11.8122,11.7922,11.7039,11.5639,11.359,0.0,0.0,0.0,0.0,0.0,0.0,7.9025,8.0987,8.2678,8.3422,8.4167,8.437,8.3558,8.2813,8.2137,8.1325,8.0648,0.0,0.0,0.0,0.0,0.0,0.0,0.0,0.0,0.0,8.579,8.5858,8.7347,8.8429,8.9106,8.9106,8.9512,9.0256,0.0,0.0,0.0,0.0,0.0,0.0,0.0,0.0,10.1352,0.0,0.0,0.0,0.0,0.0,0.0,0.0,0.0,0.0,0.0,10.9053,10.9661,11.5058,11.7939,11.9756,12.1642,12.2828,12.3741,12.401,12.1454,11.829,11.6148,11.2358,10.7978,10.3883,10.1518,9.9408,9.713,9.6593,9.6593,9.6593,9.8209,10.0004,10.1321,10.3835,10.6169,10.8144,11.0717,11.3111,11.5086,11.7061,11.8198,11.8198,11.8198,11.8198,11.8198,11.8198,11.8198,11.8198,11.8198,11.8198,11.8198,11.8198,11.8198,11.8198,11.8856,11.9156,11.9215,11.9874,12.0233,12.0113,11.9515,11.9156,11.9096,11.8497,11.8617,11.9156,11.9156,11.9136,11.9007,11.7886,11.6293,11.4149,0.0,0.0,0.0,0.0,0.0,0.0,0.0,8.0107,8.1325,8.2611,8.2949,8.3016,8.2746,8.2069,8.1528,8.1325,8.0648,0.0,0.0,0.0,0.0,0.0,0.0,0.0,0.0,0.0,8.4979,8.4979,8.7008,8.8091,8.8361,8.8835,8.9173,8.9444,8.9444,8.9985,0.0,0.0,0.0,0.0,0.0,9.8442,9.9254,0.0,0.0,0.0,0.0,0.0,0.0,0.0,0.0,0.0,0.0,0.0,0.0,11.0927,11.3452,11.6004,11.8593,11.9628,11.9958,11.9968,11.8047,11.5554,11.2609,10.9334,10.5835,10.2547,10.0251,9.8568,9.6833,9.6234,9.6055,9.6473,9.785,9.9466,10.1201,10.3356,10.551,10.7485,11.1196,11.4308,11.5804,11.73,11.8198,11.8198,11.8198,11.8198,11.8198,11.8617,11.8677,11.8198,11.8617,11.8916,11.8916,11.9335,11.9634,11.9634,11.9814,11.9874,11.9874,12.0113,12.0233,12.0233,11.9993,11.9874,11.9874,11.9694,11.9754,11.9874,11.9874,11.9332,11.8619,11.7719,11.5371,11.2608,0.0,0.0,0.0,0.0,0.0,0.0,0.0,7.9363,8.0513,8.146,8.2069,8.2272,8.2002,8.1596,8.119,8.0919,8.0445,0.0,0.0,0.0,0.0,0.0,0.0,0.0,0.0,8.3084,8.4167,8.4234,8.6196,8.7279,8.7617,8.8023,8.8429,8.87,8.87,8.9106,0.0,0.0,0.0,0.0,9.5804,9.7022,9.8172,0.0,0.0,0.0,0.0,0.0,0.0,0.0,0.0,0.0,0.0,0.0,0.0,0.0,10.9749,11.1202,11.4277,11.5228,11.5351,11.4676,11.3441,11.1589,10.8838,10.5896,10.3518,10.1035,9.9048,9.7431,9.6414,9.5636,9.5516,9.6414,9.767,9.9226,10.1201,10.3176,10.5391,10.8204,11.1914,11.4787,11.6163,11.748,11.8198,11.8198,11.8437,11.8617,11.8617,11.9215,11.9395,11.8976,11.9395,11.9574,11.9574,11.9993,12.0233,12.0233,12.0472,12.0592,12.0592,12.0831,12.1011,12.0951,12.0712,12.0592,0.0,12.0352,12.0352,12.0592,12.0371,11.9777,11.9002,11.7856,11.5638,11.2553,0.0,0.0,0.0,0.0,0.0,0.0,0.0,7.8754,8.004,8.0107,8.1393,8.2002,8.1257,8.119,8.0919,8.0242,8.0175,0.0,0.0,0.0,0.0,0.0,0.0,0.0,0.0,8.2272,8.3422,8.349,8.5114,8.6264,8.7008,8.7008,8.7414,8.8091,8.8091,8.8429,8.9106,8.9918,0.0,0.0,9.3436,9.5195,0.0,0.0,0.0,0.0,0.0,0.0,0.0,0.0,0.0,0.0,0.0,0.0,0.0,0.0,0.0,0.0,0.0,10.9752,10.9864,10.8867,10.7771,10.6552,10.4733,10.2729,0.0,9.9407,9.7727,9.6294,9.5695,9.5037,9.5037,9.6354,9.767,9.9226,10.1201,10.3296,10.6109,10.9879,11.2692,11.4906,11.6163,11.748,11.8198,11.8318,11.8796,11.9215,11.9275,11.9874,12.0352,12.0352,12.0352,12.0352,12.0352,12.0352,12.0352,12.0352,12.1011,12.131,12.131,12.1909,12.2208,12.2208,12.1549,12.131,12.119,12.0592,12.0712,12.125,12.0641,12.045,12.0127,11.8245,11.6181,11.3962,0.0,0.0,0.0,0.0,0.0,0.0,0.0,0.0,0.0,0.0,8.0175,8.0648,8.0445,8.0445,8.0378,0.0,0.0,0.0,0.0,0.0,0.0,0.0,0.0,0.0,0.0,8.1528,8.2949,8.349,8.5587,8.7008,8.7753,8.8294,8.87,8.8835,8.8835,8.8903,8.9106,8.9918,0.0,0.0,9.2218,9.3503,0.0,0.0,0.0,0.0,10.0134,10.1014,0.0,0.0,0.0,0.0,0.0,0.0,0.0,0.0,10.3771,10.2468,10.2592,0.0,10.6216,10.5822,10.5093,10.3998,0.0,10.0491,9.9346,9.7667,9.659,9.5755,9.5636,9.5037,9.5037,9.6354,9.767,9.9226,10.1201,10.4912,10.8204,11.0119,11.3111,11.5385,11.6223,11.748,11.8437,11.8916,11.9096,11.9395,11.9934,12.0592,12.1011,12.1011,12.149,12.149,12.1011,12.149,12.1669,12.1669,12.1909,12.1968,12.1968,12.2088,12.2208,12.2208,12.2028,12.1968,12.1968,12.1789,12.1789,12.2028,12.1832,12.1277,12.0127,11.8763,11.633,11.3207,0.0,0.0,0.0,0.0,0.0,0.0,0.0,0.0,0.0,0.0,7.9769,8.0175,8.0175,8.0175,8.004,0.0,0.0,0.0,0.0,0.0,0.0,0.0,0.0,0.0,7.9634,8.146,8.3084,8.4573,8.6129,8.7482,8.8497,8.8903,8.9106,8.9106,8.9106,8.9106,8.9106,8.9512,8.9918,9.0256,9.1068,0.0,0.0,0.0,0.0,0.0,9.8307,9.9593,0.0,10.2976,10.3328,10.3463,0.0,0.0,0.0,0.0,10.2527,10.097,9.9902,10.0976,10.2451,10.2238,10.1998,10.1272,9.9348,9.8448,9.7727,9.6354,9.5576,9.5217,9.5516,9.5277,9.5576,9.7192,9.8568,10.0543,10.3775,10.7126,10.9879,11.1495,11.3829,11.5684,11.6642,11.7899,11.8796,11.9156,11.9814,12.0293,12.0592,12.131,12.1669,12.1669,12.1968,12.2028,12.1669,12.2028,12.2208,12.2208,12.2208,12.2208,12.2208,12.2208,12.2208,12.2208,12.2208,12.2208,12.2208,12.2208,12.2103,12.2236,12.1853,12.0943,11.9527,11.7946,11.5571,11.2545,0.0,0.0,0.0,0.0,0.0,0.0,0.0,0.0,0.0,0.0,0.0,0.0,0.0,0.0,0.0,0.0,0.0,0.0,0.0,0.0,0.0,0.0,0.0,0.0,0.0,8.1731,8.3625,8.579,8.6738,8.7955,8.9241,8.9376,8.9376,8.9241,8.9106,8.9106,8.9106,8.9106,8.9444,9.0053,9.0053,0.0,0.0,0.0,0.0,0.0,0.0,0.0,0.0,10.1622,10.2184,10.2524,10.4254,0.0,0.0,0.0,0.0,0.0,9.8533,9.8571,9.9009,9.9042,9.8867,9.8686,9.7669,9.6892,9.6234,9.5576,9.5097,9.4917,9.5516,9.5755,9.6473,9.8389,10.0184,10.2877,10.7066,10.952,11.1435,11.3231,11.4727,11.6103,11.724,11.8497,11.9275,11.9455,12.0592,12.119,12.131,12.1909,12.2208,12.2208,12.2208,12.2208,12.2208,12.2208,12.2208,12.2208,12.2208,12.2208,12.2208,12.2208,12.2208,12.2208,12.2208,12.2208,12.2208,12.2208,12.2117,12.2199,12.1402,12.0532,11.9173,11.6958,11.4573,11.1947,0.0,0.0,0.0,0.0,0.0,0.0,0.0,0.0,0.0,0.0,0.0,0.0,0.0,0.0,0.0,0.0,0.0,0.0,0.0,0.0,0.0,0.0,0.0,0.0,0.0,0.0,8.4167,8.579,8.7753,8.9173,9.0053,9.0662,9.0594,8.9985,8.9376,8.9106,8.9106,8.9106,8.9173,8.9241,8.9241,0.0,0.0,0.0,0.0,0.0,0.0,0.0,0.0,10.0134,10.0972,10.1655,10.2253,0.0,0.0,0.0,0.0,0.0,9.6435,9.6463,9.6668,9.7547,9.7849,9.7669,9.6833,9.6234,9.5576,9.4917,9.5097,9.5456,9.5576,9.6473,9.767,9.9107,10.2817,10.6348,10.8802,11.1316,11.3171,11.4009,11.5804,11.724,11.8018,11.8737,11.9694,12.0831,12.1071,12.143,12.2028,12.2148,12.2208,12.2208,12.2208,12.2208,12.2208,12.2208,12.2208,12.2208,12.2208,12.2208,12.2208,12.2208,12.2208,12.2208,12.2208,12.2208,12.2208,12.2208,12.2117,12.2031,12.141,12.0465,11.8986,11.6962,11.4699,11.1631,0.0,0.0,0.0,0.0,0.0,0.0,0.0,0.0,0.0,0.0,0.0,0.0,0.0,0.0,0.0,0.0,0.0,0.0,0.0,0.0,0.0,0.0,0.0,0.0,0.0,0.0,0.0,8.755,8.8564,8.9647,9.0797,9.0729,9.0527,9.0188,8.9444,8.9106,8.9106,8.9106,8.9106,8.9106,0.0,0.0,0.0,0.0,0.0,0.0,0.0,0.0,0.0,0.0,9.9222,9.9782,10.0851,0.0,0.0,0.0,0.0,0.0,9.6243,9.613,9.6524,9.7122,9.7429,9.7311,9.6713,9.6593,9.6414,9.5815,9.5935,9.6354,9.7072,9.797,9.9586,10.2698,10.5929,10.8802,11.1196,11.2872,11.4487,11.6223,11.7181,11.8138,11.9215,11.9874,12.0472,12.119,12.1549,12.1849,12.2208,12.2208,12.2208,12.2208,12.2208,12.2208,12.2208,12.2208,12.2208,12.2208,12.2208,12.2208,12.2208,12.2208,12.2208,12.2208,12.2208,12.2208,12.2208,12.2208,12.2117,12.1632,12.1353,11.975,11.7151,11.3709,11.1314,10.9558,0.0,0.0,0.0,0.0,0.0,0.0,0.0,0.0,0.0,0.0,0.0,0.0,0.0,0.0,0.0,0.0,0.0,0.0,0.0,0.0,0.0,0.0,0.0,0.0,0.0,0.0,8.6467,8.9106,8.9579,9.0527,9.1812,9.0865,9.0459,9.0459,8.9512,8.9106,8.9106,8.9106,8.9106,8.9106,0.0,0.0,0.0,0.0,0.0,0.0,0.0,0.0,0.0,0.0,0.0,0.0,0.0,0.0,0.0,9.8405,9.7642,9.6714,9.6118,9.6324,9.674,9.7041,9.7302,9.7429,9.7072,9.7252,9.7431,9.7072,9.7132,9.7611,9.8748,10.0004,10.2219,10.6229,10.8682,11.0897,11.3231,11.4487,11.5984,11.8018,11.8497,11.9156,12.0352,12.0951,12.131,12.143,12.1909,12.2208,12.2208,12.2208,12.2208,12.2208,12.2208,12.2208,12.2208,12.2208,12.2208,12.2208,12.2208,12.2208,12.2208,12.2208,12.2208,12.2208,12.2208,12.2208,12.2208,12.1924,12.1605,12.1171,12.0827,11.8417,11.4864,11.068,10.8483,10.7722,0.0,0.0,0.0,0.0,0.0,0.0,0.0,0.0,0.0,0.0,0.0,0.0,0.0,0.0,0.0,0.0,0.0,0.0,0.0,0.0,7.8619,0.0,0.0,0.0,0.0,8.5993,8.7482,8.9106,9.1135,9.2624,9.3368,9.188,9.1203,9.1135,8.9715,8.9106,8.9106,8.9106,8.9106,8.9106,8.9106,0.0,0.0,0.0,0.0,0.0,0.0,0.0,0.0,0.0,0.0,0.0,0.0,0.0,9.7862,9.7203,9.6564,9.6025,9.5438,9.5956,9.6618,9.6839,9.7162,9.7422,9.8089,9.791,9.767,9.8269,9.8867,9.9526,10.0184,10.2877,10.569,10.7904,11.0358,11.2572,11.4009,11.6403,11.8018,11.8198,11.9275,12.0352,12.1071,12.119,12.149,12.2088,12.2208,12.2208,12.2208,12.2208,12.2208,12.2208,12.2208,12.2208,12.2208,12.2208,12.2208,12.2208,12.2208,12.2208,12.2208,12.2208,12.2208,12.2208,12.2208,12.2208,12.2208,12.1474,12.121,12.1112,11.9354,11.6182,11.2103,10.9826,10.8213,10.6905,0.0,0.0,0.0,0.0,0.0,0.0,0.0,0.0,0.0,0.0,0.0,0.0,0.0,0.0,0.0,0.0,0.0,0.0,0.0,7.7807,7.9092,8.146,0.0,8.4302,8.5993,8.7482,8.897,9.0459,9.2286,9.33,9.3571,9.2489,9.1744,9.1271,9.0256,8.9512,8.9106,8.9106,8.9106,8.9106,8.9106,8.9106,0.0,0.0,0.0,0.0,0.0,0.0,0.0,0.0,9.6236,9.701,9.8574,9.8587,9.8105,9.7957,9.7635,9.7262,9.6993,9.7186,9.7762,9.8876,9.9329,9.9582,9.9529,10.0067,10.0663,10.0902,10.1501,10.2279,10.3356,10.557,10.7904,10.9879,11.2094,11.4128,11.5924,11.73,11.8677,11.9874,12.0472,12.1071,12.1729,12.1789,12.1909,12.2208,12.2208,12.2208,12.2208,12.2208,12.2208,12.2208,12.2208,12.2208,12.2208,12.2208,12.2208,12.2208,12.2208,12.2208,12.2208,12.2208,12.2208,12.2208,12.2208,12.2208,12.2208,12.1474,12.0746,11.9833,11.6537,11.3699,11.1469,10.9134,10.7722,10.6905,0.0,0.0,0.0,0.0,0.0,0.0,0.0,0.0,0.0,0.0,0.0,0.0,0.0,0.0,0.0,0.0,0.0,0.0,7.828,7.8348,7.9566,8.2272,8.3084,8.4573,8.6873,8.8361,8.9782,9.1271,9.2827,9.3571,9.3571,9.2759,9.215,9.1609,9.0865,9.0121,8.9444,8.9444,8.9444,8.9444,8.9444,8.9579,0.0,0.0,0.0,0.0,0.0,0.0,0.0,0.0,9.6156,9.6923,9.8636,9.8785,9.8318,9.8721,9.8609,9.8252,9.8568,9.8706,9.925,10.0668,10.144,10.182,10.2062,10.2652,10.3535,10.3954,10.4493,10.5331,10.6468,10.7904,10.964,11.1615,11.341,11.5325,11.724,11.8318,11.9395,12.1011,12.137,12.1669,12.2208,12.2208,12.2208,12.2208,12.2208,12.2208,12.2208,12.2208,12.2208,12.2208,12.2208,12.2208,12.2208,12.2208,12.2208,12.2208,12.2208,12.2208,12.2208,12.2208,12.2208,12.2208,12.2208,12.2148,12.1984,12.1249,11.9712,11.7556,11.4351,11.1791,10.9785,10.8081,10.7042,10.6055,0.0,0.0,0.0,0.0,0.0,0.0,0.0,0.0,0.0,0.0,7.6251,0.0,0.0,0.0,0.0,0.0,7.801,7.828,7.9092,7.9092,8.0107,8.234,8.3084,8.4573,8.6873,8.8361,8.9782,9.1338,9.2827,9.3571,9.3571,9.2759,9.2421,9.2421,9.1609,9.0932,9.0188,9.0188,9.0188,9.0188,9.0188,9.0662,9.1271,0.0,0.0,0.0,0.0,0.0,0.0,0.0,9.6277,9.717,9.8764,9.8916,9.8787,9.9516,9.932,9.9018,9.9704,10.0469,10.1214,10.1896,10.3073,10.4307,10.5643,10.5736,10.581,10.7186,10.7964,10.8563,10.9281,10.9939,11.1016,11.2991,11.4428,11.5984,11.7899,11.9395,12.0472,12.1071,12.1789,12.2208,12.2208,12.2208,12.2208,12.2208,12.2208,12.2208,12.2208,12.2208,12.2208,12.2208,12.2208,12.2208,12.2208,12.2208,12.2208,12.2208,12.2208,12.2208,12.2208,12.2208,12.2208,12.2208,12.2208,12.1984,12.1308,12.0628,11.8084,11.4264,11.3027,11.0378,10.7313,10.6568,10.5586,10.5005,0.0,0.0,0.0,0.0,0.0,0.0,0.0,0.0,0.0,7.7671,7.7468,0.0,0.0,0.0,0.0,0.0,0.0,7.828,7.9092,7.9092,8.0107,8.234,8.3084,8.4573,8.6873,8.8835,9.0594,9.2083,9.3098,9.3571,9.3571,9.3368,9.2962,9.2421,9.2218,9.1677,9.1,9.1,9.1,9.1,9.1,9.1068,9.1338,0.0,0.0,0.0,0.0,0.0,0.0,0.0,0.0,0.0,9.9154,9.9709,9.9918,10.0284,10.0702,10.1342,10.1573,10.2342,10.3169,10.4674,10.5527,10.6493,10.8314,10.8148,10.7964,10.976,10.9939,11.0119,11.1196,11.1974,11.2931,11.4487,11.6163,11.7719,11.8796,12.0053,12.119,12.1789,12.2088,12.2208,12.2208,12.2208,12.2208,12.2208,12.2567,12.2866,12.2866,12.3345,12.3524,12.3524,12.3524,12.3524,12.3524,12.3524,12.3524,12.3524,12.3524,12.3105,12.2208,12.2208,12.2208,12.2208,12.2208,12.1984,12.1082,11.8613,11.5902,11.2971,11.111,10.888,10.6532,10.5881,10.5113,10.4403,0.0,0.0,0.0,0.0,0.0,0.0,0.0,0.0,7.8416,7.8416,7.8145,7.8077,0.0,0.0,0.0,7.8822,7.8889,7.9025,7.9498,7.9837,8.0716,8.234,8.3084,8.4573,8.6873,8.9106,9.0662,9.1541,9.2624,9.33,9.3571,9.3571,9.33,9.2895,9.2895,9.2489,9.1744,9.1744,9.1744,9.1744,9.1744,9.2083,9.2692,0.0,0.0,0.0,0.0,0.0,0.0,0.0,0.0,0.0,9.9416,9.9973,10.0452,10.1421,10.2068,10.2571,10.3323,10.4122,10.4945,10.6226,10.7367,10.8547,11.0758,11.0941,11.1196,11.2931,11.2812,11.2632,11.3709,11.4009,11.4487,11.5804,11.73,11.8497,11.9455,12.0472,12.143,12.2088,12.2208,12.2208,12.2208,12.2208,12.2268,12.2567,12.2926,12.3285,12.3465,12.3943,12.4123,12.4123,12.4123,12.4123,12.4123,12.4123,12.4123,12.4123,12.4123,12.3704,12.2926,12.2687,12.2447,12.2208,12.1759,12.0796,11.9653,11.6796,11.4104,11.1707,10.9522,10.7425,10.565,10.5002,10.4187,10.38,0.0,0.0,0.0,0.0,0.0,0.0,0.0,7.9634,7.9228,7.9228,7.8619,7.8483,0.0,0.0,0.0,8.0107,8.0175,8.0175,8.0175,8.0851,8.1596,8.2408,8.3219,8.4708,8.6873,8.897,9.0053,9.0188,9.1677,9.2759,9.3503,9.3571,9.3571,9.3571,9.3571,9.3165,9.2556,9.2556,9.2556,9.2624,9.2624,9.3503,9.4789,9.4789,0.0,0.0,0.0,0.0,0.0,0.0,0.0,0.0,9.9416,9.9973,10.0652,10.2412,10.3065,10.3479,10.4952,10.6075,10.6729,10.7157,10.8652,11.0714,11.2958,11.4009,11.4787,11.6043,11.5804,11.5565,11.6283,11.5864,11.5864,11.7181,11.7959,11.8796,12.0113,12.0891,12.1549,12.2088,12.2208,12.2208,12.2208,12.2208,12.2447,12.3105,12.3285,12.3465,12.4183,12.4243,12.4302,12.4302,12.4302,12.4302,12.4302,12.4302,12.4302,12.4302,12.4302,12.4302,12.4243,12.3584,12.2866,12.2043,12.0914,11.9192,11.7326,11.5367,11.2885,11.021,10.8439,10.6436,10.4348,10.3821,10.338,10.3248,0.0,0.0,0.0,0.0,0.0,0.0,8.0175,8.004,7.9972,7.9972,7.9837,7.9769,7.9972,7.9972,0.0,8.0175,8.0175,8.0175,8.0175,8.0851,8.1596,8.2408,8.4234,8.579,8.6873,8.7955,8.9038,9.0188,9.1677,9.2489,9.2692,9.33,9.3571,9.3571,9.3571,9.3503,9.33,9.33,9.3706,9.4248,9.4248,9.4789,9.5533,9.5533,9.5669,0.0,0.0,0.0,0.0,0.0,0.0,0.0,9.9602,10.0635,10.1521,10.331,10.4619,10.5557,10.6458,10.7638,10.8732,10.8709,11.0115,11.2247,11.4457,11.5385,11.5924,11.6163,11.6163,11.6283,11.6941,11.6941,11.724,11.8557,11.9335,12.0113,12.0891,12.1609,12.2028,12.2208,12.2208,12.2208,12.2208,12.2208,12.2447,12.3105,12.3584,12.4183,12.4841,12.538,12.5739,12.5739,12.5739,12.5739,12.5739,12.5739,12.5739,12.5739,12.5739,12.538,12.4901,12.4243,12.3358,12.2021,12.0877,11.8903,11.6502,11.4104,11.1404,10.8894,10.6901,10.5083,10.3607,10.3077,10.2595,10.2695,0.0,0.0,0.0,0.0,0.0,0.0,0.0,0.0,8.0175,8.0175,8.0175,8.0175,8.0175,8.0175,0.0,0.0,8.0175,8.0175,8.0175,8.119,8.234,8.3422,8.4979,8.6129,8.6873,8.7617,8.87,9.0188,9.1338,9.2083,9.2421,9.3233,9.3774,9.4112,9.4112,9.4315,9.4654,9.4654,9.4857,9.5263,9.5263,9.5669,9.6345,9.6345,9.6548,9.6886,9.7292,0.0,0.0,0.0,0.0,0.0,0.0,0.0,10.1519,10.352,10.4857,10.5842,10.6746,10.8188,11.0038,11.106,11.2322,11.3704,11.5325,11.6283,11.6822,11.7121,11.7181,11.73,11.76,11.7959,11.8378,11.9096,11.9993,12.0831,12.119,12.1789,12.2208,12.2208,12.2208,12.2208,12.2208,12.2447,12.2866,12.3584,12.4243,12.4901,12.5559,12.5858,12.6098,12.6098,12.6098,12.6098,12.6098,12.6098,12.6098,12.6098,12.6098,12.5918,12.5559,12.4602,12.3488,12.2275,12.1234,11.8892,11.5674,11.3494,11.0894,10.8041,10.5969,10.461,10.3607,10.2811,10.2544,10.2544,0.0,0.0,0.0,0.0,0.0,0.0,0.0,0.0,0.0,8.0175,8.0175,8.0175,8.0175,8.0175,8.0175,0.0,0.0,0.0,8.0175,8.1596,8.3084,8.4573,8.5249,8.5993,8.6873,8.7482,8.8632,9.0188,9.1068,9.188,9.2624,9.3436,9.418,9.4924,9.4924,9.5263,9.5804,9.5804,9.5939,9.6142,9.6142,9.6683,9.7428,9.7428,9.7834,9.8375,9.824,9.8172,9.8172,9.8037,0.0,0.0,0.0,0.0,10.1245,10.3524,10.4889,10.559,10.6868,10.8547,11.0798,11.322,11.4055,11.4697,11.5984,11.6822,11.742,11.8078,11.8198,11.8198,11.8378,11.8796,11.9275,11.9515,12.0472,12.119,12.137,12.1849,12.2208,12.2208,12.2208,12.2208,12.2327,12.2866,12.3465,12.4243,12.4781,12.538,12.6098,12.6098,12.6098,12.6098,12.6098,12.6098,12.6098,12.6098,12.6098,12.6098,12.6098,12.6098,12.6098,12.4732,12.3506,12.2231,12.1471,11.8743,11.5209,11.3217,11.0164,10.7375,10.5181,10.4186,10.3494,10.2861,10.2544,10.2544,0.0,0.0,0.0,0.0,0.0,0.0,0.0,0.0,0.0,0.0,8.0175,8.0175,8.0175,8.0175,8.0175,8.0175,8.0175,8.0175,8.0175,0.0,0.0,8.4573,8.4708,8.5452,8.6873,8.7008,8.8091,9.0188,9.1609,9.2692,9.3436,9.418,9.4924,9.5669,9.5669,9.5736,9.5804,9.5804,9.6548,9.7698,9.7698,9.851,9.9796,9.9796,9.9863,9.9863,9.9187,9.8916,9.8848,9.824,9.8037,0.0,0.0,0.0,10.1245,10.3864,10.5506,10.6758,10.7844,10.9248,11.1007,11.3464,11.4102,11.4572,11.6076,11.6822,11.742,11.8078,11.8198,11.8378,11.8976,11.9096,11.9574,12.0712,12.1071,12.143,12.1968,12.2148,12.2208,12.2208,12.2208,12.2387,12.2926,12.3105,12.3644,12.4901,12.508,12.538,12.6098,12.6098,12.6098,12.6098,12.6098,12.6098,12.6098,12.6098,12.6098,12.6098,12.6098,12.6098,12.6098,12.5456,12.3877,12.2173,12.0451,11.7685,11.4518,11.1884,10.9308,10.7106,10.5268,10.4051,10.3197,10.2695,10.2544,10.2544,0.0,0.0,0.0,0.0,0.0,0.0,0.0,0.0,0.0,0.0,0.0,8.0648,8.0242,8.0175,8.0175,8.0175,8.0175,8.0581,8.1393,8.2408,8.349,8.4573,8.464,8.5317,8.6873,8.6941,8.8226,9.0797,9.188,9.3233,9.4857,9.5601,9.6074,9.6413,9.6413,9.6616,9.7089,9.7495,9.8037,9.8713,9.9525,10.0269,10.0878,10.1352,10.1487,10.1419,10.1081,10.0675,10.0269,9.9999,9.9593,9.9457,10.054,0.0,0.0,0.0,10.4459,10.5861,10.8163,10.9435,11.0634,11.2683,11.3638,11.4271,11.5116,11.6223,11.73,11.76,11.8198,11.8856,11.9096,11.9814,12.0472,12.1071,12.1789,12.2387,12.2687,12.3046,12.3345,12.3345,12.3345,12.3405,12.3704,12.4003,12.4542,12.514,12.5799,12.6337,12.6577,12.6636,12.6636,12.6636,12.6337,12.6098,12.6098,12.6098,12.6098,12.6098,12.6098,12.5867,12.5695,12.4408,12.3525,12.2579,12.0602,11.7983,11.4699,11.2072,10.9364,10.6979,10.5614,10.4086,10.3348,10.3097,10.2796,10.2544,0.0,0.0,0.0,0.0,0.0,0.0,0.0,0.0,0.0,0.0,0.0,8.1393,8.0851,0.0,0.0,0.0,8.0784,8.1325,8.2611,8.3219,8.3828,8.4573,8.4843,8.552,8.6873,8.7076,8.8564,9.1271,9.2218,9.3774,9.5804,9.6751,9.7292,9.7428,9.7428,9.7766,9.8307,9.9051,9.9593,10.0066,10.1216,10.1961,10.257,10.3111,10.3517,10.3585,10.3382,10.2908,10.2164,10.1961,10.1284,10.0608,10.1419,10.1555,0.0,0.0,0.0,10.5266,10.8038,10.9137,10.9812,11.1608,11.2885,11.3573,11.4005,11.5325,11.6822,11.6941,11.8018,11.9036,11.9395,12.0412,12.131,12.1669,12.2507,12.3285,12.3405,12.3824,12.4123,12.4123,12.4123,12.4243,12.4362,12.4841,12.52,12.5619,12.6457,12.7175,12.7295,12.7355,12.7295,12.7055,12.6577,12.6277,12.6098,12.6098,12.6098,12.6098,12.6098,12.5867,12.517,12.3701,12.293,12.2212,12.0273,11.7547,11.4238,11.173,10.92,10.7057,10.5687,10.4591,10.3549,10.3448,10.3047,10.2544,0.0,0.0,0.0,0.0,0.0,0.0,0.0,0.0,0.0,0.0,0.0,8.234,8.2272,8.2272,8.2272,8.2272,8.2272,8.2611,8.3355,8.349,8.3828,8.4573,8.5317,0.0,8.6873,8.7617,8.9038,9.1271,9.2759,9.4315,9.5804,9.7292,9.8307,9.8984,9.8984,9.8984,9.9119,9.9863,10.1014,10.2299,10.2434,10.372,10.5614,10.5614,10.6088,10.6561,10.5885,10.5208,10.4396,10.372,10.2502,10.1487,10.2231,10.1961,10.169,0.0,0.0,0.0,10.7456,10.8371,10.8854,11.0079,11.1145,11.2244,11.297,11.4365,11.5565,11.6223,11.736,11.8617,11.9934,12.0712,12.1609,12.2866,12.3165,12.3405,12.4003,12.4123,12.4123,12.4123,12.4123,12.4362,12.5021,12.514,12.5619,12.6876,12.7055,12.7355,12.8013,12.8073,12.7774,12.7055,12.7055,12.6696,12.6098,12.6098,12.6098,12.6098,12.6098,12.5867,12.517,12.3701,12.2212,12.033,11.7798,11.4956,11.221,11.004,10.8161,10.6804,10.5429,10.4603,10.4051,10.3549,10.3047,10.2544,0.0,0.0,0.0,0.0,0.0,0.0,0.0,0.0,8.3625,0.0,0.0,0.0,0.0,8.2408,8.2408,8.2408,8.3287,8.3964,8.4234,8.5114,8.579,8.6061,8.6332,8.6873,8.7617,8.8294,8.9579,9.1271,9.2827,9.4315,9.5804,9.6819,9.7901,9.9119,9.9119,9.966,10.0608,10.1419,10.2502,10.399,10.4938,10.6088,10.7306,10.8321,10.9132,10.9809,10.9471,10.893,10.8118,10.6832,10.5411,10.4126,10.3382,10.2976,10.2711,10.3056,10.3795,10.4946,10.5952,10.6685,10.7321,10.8261,10.9088,10.9904,11.0456,11.2022,11.359,11.4248,11.6103,11.8018,11.9275,12.0831,12.2148,12.3046,12.3883,12.4542,12.4721,12.514,12.538,12.538,12.538,12.5499,12.5739,12.5739,12.5918,12.6397,12.7295,12.7833,12.8133,12.8492,12.8432,12.7774,12.7295,12.6756,12.6098,12.6098,12.6098,12.6098,12.5635,12.517,12.4467,12.2212,12.033,11.8104,11.4956,11.3202,11.1947,10.9826,10.8213,10.6854,10.5882,10.5156,10.4603,10.4051,10.3549,10.3047,0.0,0.0,0.0,0.0,0.0,8.5384,8.5384,8.5384,8.5182,8.4708,0.0,0.0,0.0,0.0,8.3896,8.3896,8.4843,8.5384,8.5384,8.6332,8.6941,8.6941,8.7347,8.7888,8.8361,8.9309,9.0459,9.1677,9.3233,9.4586,9.5804,9.7022,9.8307,9.9525,9.9999,10.0811,10.1825,10.3111,10.4329,10.5547,10.7103,10.8321,10.9335,11.0621,11.1703,11.2515,11.2515,11.1974,11.123,10.9944,10.8388,10.6697,10.5208,10.4193,10.3454,10.3123,10.3263,10.3849,10.4751,10.5428,10.585,10.6728,10.735,10.8162,10.8557,11.0197,11.1819,11.2752,11.4906,11.7121,11.8856,12.0652,12.2208,12.3345,12.4183,12.4961,12.538,12.5799,12.6098,12.6098,12.6098,12.6098,12.6098,12.6098,12.6218,12.6397,12.7295,12.8013,12.8372,12.8611,12.8492,12.7774,12.7055,12.6577,12.6098,12.6098,12.6098,12.6098,12.5403,12.4702,12.3701,12.1305,11.9099,11.6792,11.3721,11.1684,11.1155,10.9021,10.7671,10.6632,10.6083,10.5507,10.4905,10.4352,10.38,10.3248,0.0,0.0,0.0,0.0,8.6399,8.6941,8.6941,8.6941,8.6941,8.6941,0.0,0.0,0.0,0.0,0.0,8.6941,8.7008,8.7008,8.7008,8.7008,8.7008,8.7008,8.8361,8.9173,8.9173,9.0594,9.1677,9.2489,9.3977,9.5127,9.5872,9.8037,9.9525,10.0337,10.1825,10.257,10.2773,10.4938,10.6291,10.717,10.8659,11.008,11.1501,11.2312,11.3463,11.4816,11.4816,11.441,11.3598,11.2854,11.1095,10.8997,10.7373,10.5411,10.3454,10.3123,10.2991,10.3263,0.0,0.0,0.0,10.5398,10.615,10.6928,10.7489,10.8982,11.048,11.2059,11.3829,11.6043,11.8677,12.0293,12.1789,12.3764,12.4123,12.4602,12.5858,12.6038,12.6038,12.6038,12.6098,12.6098,12.6098,12.6098,12.6397,12.6996,12.7055,12.7654,12.897,12.8432,12.7774,12.7055,12.6397,12.6098,12.6098,12.6098,12.6098,12.6098,12.5462,12.4467,12.3168,12.1005,11.8851,11.6032,11.3202,11.0891,10.9021,10.745,10.6408,10.5809,10.5809,10.5507,10.4955,10.4403,10.38,10.3248,0.0,0.0,0.0,8.6602,8.6738,8.7076,8.7617,8.7685,8.7888,0.0,0.0,0.0,0.0,8.8497,8.8497,8.8497,8.897,8.9309,8.9309,8.9782,9.0053,9.0053,9.0459,9.0662,9.0662,9.1609,9.2489,9.3233,9.4248,9.533,9.6616,9.7766,9.9322,10.1081,10.2637,10.4193,10.5682,10.6291,10.7982,11.0215,11.0621,11.1703,11.3124,11.441,11.5492,11.644,11.759,11.7793,11.7387,11.5492,11.3801,11.1703,10.805,10.5411,10.3585,10.3454,10.3528,10.3666,10.3377,0.0,0.0,0.0,0.0,0.0,10.6923,10.7914,10.908,11.0962,11.3018,11.5206,11.742,11.9215,12.1011,12.2507,12.3524,12.4243,12.4602,12.4661,12.4661,12.4661,12.514,12.538,12.538,12.5799,12.6218,12.6397,12.6816,12.7235,12.7594,12.7474,12.7295,12.7055,12.6397,12.6098,12.6098,12.6098,12.6098,12.6098,12.4936,12.3937,12.3168,11.9783,11.7296,11.5266,11.1578,10.929,10.8213,10.745,10.6408,10.5809,10.5809,10.5708,10.5507,10.4503,10.4051,10.38,0.0,0.0,8.7482,8.7753,8.8091,8.8564,8.9241,8.9376,8.9512,0.0,0.0,0.0,9.0459,9.0459,9.0594,9.0932,9.1338,9.1609,9.1609,9.2015,9.2218,9.2218,9.2556,9.2692,9.2692,9.3436,9.4045,9.4518,9.5533,9.6548,9.736,9.8781,10.0269,10.1893,10.372,10.5614,10.7441,10.8388,11.0012,11.1906,11.2921,11.3936,11.5086,11.6304,11.7387,11.8402,11.9281,12.0093,12.0296,11.8334,11.5898,11.2989,10.9403,10.6764,10.487,10.4193,10.4197,10.4337,10.3931,10.4508,10.5108,10.48,0.0,0.0,10.5832,10.6753,10.7829,10.9912,11.2022,11.4069,11.6043,11.7839,11.9395,12.0712,12.1609,12.2567,12.3943,12.4123,12.4123,12.4123,12.4482,12.4721,12.4721,12.5021,12.538,12.5679,12.6038,12.6397,12.6696,12.6936,12.6996,12.6696,12.6337,12.6098,12.6098,12.6098,12.5926,12.5635,12.4702,12.3464,12.1972,11.8795,11.6032,11.3721,11.0573,10.8431,10.745,10.6632,10.6083,10.5809,10.5809,10.5809,10.5658,10.4553,10.4151,10.4001,0.0,0.0,8.8564,8.9241,8.9918,9.0594,9.1338,9.1474,9.1541,0.0,9.1744,9.2083,9.2759,9.2895,9.3165,9.3909,9.4045,9.4045,9.4045,9.3977,9.3977,9.3977,9.4586,9.4924,9.4924,9.5669,9.6074,9.6142,9.7495,9.8172,9.8307,10.0472,10.1893,10.2705,10.4938,10.6697,10.8321,11.0621,11.2177,11.3192,11.5086,11.644,11.7319,11.8131,11.9349,12.0634,12.0702,12.1649,12.2596,12.1108,11.759,11.353,11.1298,10.9065,10.69,10.5344,10.487,10.5073,10.5213,10.5271,10.524,10.4882,10.4949,0.0,10.4834,10.5631,10.6994,10.8838,11.0641,11.2513,11.4487,11.5984,11.73,11.8497,11.8796,12.0113,12.3285,12.3704,12.3764,12.3824,12.3883,12.3943,12.4003,12.4123,12.4362,12.4961,12.5021,12.526,12.5978,12.6577,12.6577,12.6098,12.6098,12.6098,12.6098,12.6098,12.5867,12.517,12.4408,12.2749,12.033,11.8104,11.5266,11.221,10.9826,10.8213,10.6854,10.6083,10.5809,10.5809,10.5809,10.5809,10.5558,10.4553,10.4151,10.39,8.9579,9.0121,9.0662,9.0865,9.1,9.1338,9.2083,9.2759,9.3368,9.3977,9.4518,9.4992,9.5127,9.5669,9.6074,9.621,9.6819,9.7157,9.7157,9.6548,9.621,9.621,9.6345,9.648,9.648,9.7157,9.7834,9.8442,9.8713,9.9187,9.9796,10.1487,10.2705,10.3517,10.5682,10.7509,10.92,11.1974,11.4274,11.6101,11.6507,11.7522,11.8875,12.0228,12.1311,12.219,12.3408,12.4423,12.4897,12.2799,11.9078,11.5086,11.353,11.1027,10.8456,10.69,10.6494,10.6224,10.555,10.5682,10.6074,10.5542,10.5441,0.0,10.6418,10.6574,10.717,10.9198,11.0048,11.0761,11.1794,11.359,11.4966,11.5206,11.6582,11.8437,12.0652,12.1011,12.119,12.1669,12.2208,12.2806,12.3285,12.3824,12.4183,12.4302,12.4362,12.4602,12.526,12.5439,12.5739,12.6098,12.6098,12.6098,12.6098,12.6098,12.5867,12.517,12.3937,12.2212,12.033,11.7044,11.4496,11.221,10.929,10.7722,10.6854,10.6083,10.5809,10.5809,10.5809,10.5558,10.5055,10.4403,10.39,10.3448,9.0729,9.1068,9.1541,9.2286,9.2421,9.2827,9.3909,9.4451,9.4789,9.5195,9.5872,9.6751,9.7901,9.8307,9.8848,9.9593,9.9999,10.0134,9.9728,9.9322,9.8984,9.8578,9.8916,9.9119,9.9119,9.9863,10.0405,10.0811,10.1216,10.1487,10.1893,10.3111,10.4193,10.5276,10.6832,10.8524,11.0486,11.3057,11.5222,11.6981,11.8131,11.9687,12.1514,12.219,12.3205,12.4288,12.5032,12.5573,12.5709,12.4559,12.1514,11.7725,11.5831,11.3463,11.1027,10.9132,10.8591,10.8321,10.6967,10.6831,10.6754,10.6247,10.5834,0.0,0.0,10.5888,10.5916,10.7613,10.795,10.8374,10.95,11.062,11.1555,11.2213,11.341,11.4847,11.6522,11.8497,11.9993,12.0592,12.1011,12.149,12.2088,12.2208,12.2327,12.2627,12.3285,12.3824,12.4063,12.4422,12.4901,12.5619,12.5619,12.5799,12.6098,12.6098,12.5635,12.4702,12.3701,12.1731,11.929,11.6539,11.3775,11.1155,10.8804,10.7501,10.6358,10.6134,10.5608,10.5407,10.5407,10.5206,10.4905,10.4051,10.3599,10.3248,9.1812,9.1947,9.2556,9.3774,9.3977,9.4451,9.5804,9.6142,9.6345,9.6819,9.736,9.8578,10.0608,10.1014,10.1622,10.3043,10.3314,10.3111,10.2502,10.2164,10.169,10.1081,10.1555,10.1758,10.1758,10.2502,10.2908,10.2908,10.3517,10.3787,10.3787,10.4667,10.575,10.6967,10.8118,10.9809,11.1771,11.4072,11.6101,11.7725,11.989,12.1785,12.3408,12.3882,12.4897,12.6115,12.6385,12.6385,12.6318,12.6182,12.3679,12.0431,11.8199,11.6034,11.3801,11.1636,11.0689,11.0215,10.8794,10.8047,10.7703,10.6938,10.647,10.6059,0.0,0.0,0.0,10.6125,10.614,10.6228,10.7304,10.7758,10.8204,10.9221,11.0119,11.1196,11.2393,11.5505,11.8078,11.9275,11.9574,11.9874,12.0592,12.0113,12.0113,12.0771,12.1789,12.2567,12.2926,12.3465,12.4123,12.4901,12.5021,12.538,12.5858,12.5978,12.5403,12.4232,12.3464,12.1247,11.8048,11.6032,11.3202,10.9826,10.8483,10.7178,10.5809,10.5809,10.5507,10.5005,10.5005,10.4905,10.4553,10.3649,10.3248,10.3097,9.3571,9.4383,9.533,9.5533,9.5533,9.5804,9.6616,9.7292,9.851,10.0472,10.0811,10.1487,10.2976,10.3787,10.4464,10.5411,10.602,10.6358,10.6291,10.5073,10.4261,10.4193,10.3652,10.3382,10.3382,10.4058,10.4464,10.4464,10.4464,10.4599,10.4599,10.602,10.6697,10.6967,10.9809,11.1501,11.2583,11.5425,11.7928,12.0093,12.1582,12.2393,12.2799,12.4897,12.6182,12.6994,12.8415,12.8415,12.7806,12.7062,12.4761,12.1988,12.0431,11.8402,11.6101,11.3869,11.2312,11.1095,11.0283,10.9538,10.8927,10.8511,10.8276,10.7993,10.7585,0.0,10.6178,10.6618,0.0,10.4856,10.5443,0.0,0.0,10.5929,10.7485,10.8982,10.97,11.1196,11.3291,11.6343,11.7181,11.7839,11.8497,11.8497,11.8737,11.9395,11.9574,12.0412,12.2208,12.2387,12.2986,12.4243,12.4841,12.514,12.52,12.5799,12.5403,12.4232,12.2988,12.0819,11.7296,11.5266,11.2419,10.897,10.8213,10.7178,10.5809,10.5809,10.5507,10.5005,10.5005,10.4403,10.3549,10.3398,10.3047,10.2595,9.5195,9.5398,9.6074,9.6954,9.7089,9.7495,9.8645,9.9457,10.0811,10.2976,10.372,10.487,10.7238,10.8118,10.9065,11.0215,11.0621,11.0418,0.0,10.893,10.8185,10.7306,10.6967,10.6832,10.6832,10.717,10.7306,10.7306,10.7306,10.7306,10.7306,10.7915,10.8456,10.893,11.0621,11.2312,11.3869,11.6507,11.8605,12.0499,12.2799,12.3814,12.4017,12.5776,12.7468,12.8956,12.9565,12.9362,12.8618,12.7874,12.6182,12.4288,12.3205,12.1582,11.9687,11.7522,11.6101,11.4816,11.2786,11.1974,11.1427,11.0268,10.97,10.9178,10.8323,10.7207,10.6493,10.6794,0.0,0.0,0.0,0.0,0.0,0.0,10.5271,10.6288,10.7007,10.8204,11.0418,11.4128,11.4787,11.5206,11.5864,11.6283,11.6582,11.6881,11.76,11.8737,12.0412,12.119,12.2208,12.3465,12.3883,12.4362,12.514,12.4919,12.4813,12.4232,12.203,11.9783,11.7296,11.4551,11.1631,10.9021,10.7671,10.6905,10.5809,10.5809,10.5306,10.4503,10.4503,10.4051,10.3348,10.3047,10.2695,10.2544,9.7225,9.7022,9.736,9.8442,9.8645,9.9119,10.0608,10.1825,10.3314,10.5276,10.6426,10.8118,11.0892,11.2042,11.3124,11.441,11.468,11.441,11.3327,11.2989,11.2312,11.1095,11.0621,11.0283,11.008,10.9674,10.9471,10.9471,10.9268,10.92,10.92,10.9403,10.9809,11.035,11.1501,11.3124,11.5154,11.7387,11.9484,12.1446,12.3814,12.5235,12.6115,12.7197,12.8956,13.0851,13.0715,13.0309,12.9701,12.8686,12.7738,12.6588,12.537,12.4288,12.3002,12.077,11.9417,11.8131,11.5492,11.4545,11.3725,11.2366,11.1397,11.0683,10.965,10.8459,10.7609,10.7449,10.5972,0.0,0.0,0.0,10.3385,10.3493,0.0,10.4194,10.4613,10.563,10.7605,11.1316,11.2034,11.2513,11.3111,11.3769,11.4248,11.4487,11.5684,11.7121,11.8617,11.9874,12.125,12.2567,12.2926,12.3584,12.4602,12.4272,12.3992,12.3761,12.1489,11.9099,11.6484,11.3721,11.0891,10.8752,10.745,10.6632,10.5809,10.5809,10.5156,10.4151,10.4151,10.3699,10.3097,10.2645,10.2544,10.2544,10.0134,10.0134,10.0134,10.0134,10.0134,10.0608,10.2231,10.4329,10.6223,10.7712,10.92,11.1027,11.3327,11.4816,11.6034,11.671,11.7522,11.7928,11.7928,11.7184,11.6372,11.5628,11.4207,11.3124,11.238,11.1027,11.0283,11.0283,10.9471,10.92,10.92,10.9877,11.0283,11.0418,11.2583,11.441,11.5898,11.8199,12.0837,12.3611,12.4423,12.6385,12.9092,12.9092,13.0512,13.2339,13.1595,13.1324,13.1121,12.9701,12.9092,12.8686,12.6521,12.5844,12.5303,12.307,12.1379,11.989,11.8402,11.6913,11.556,11.4816,11.3716,11.2663,11.1925,11.1174,11.0231,10.92,10.7847,10.6682,10.6102,10.4794,10.3699,10.3265,10.3373,0.0,0.0,10.3117,10.4553,10.7306,10.8682,10.9819,11.0418,11.1016,11.1675,11.2333,11.359,11.5206,11.7181,11.8497,11.9874,12.119,12.2507,12.3165,12.3285,12.3796,12.3522,12.229,12.1017,11.8603,11.5266,11.3256,11.0625,10.7993,10.7178,10.6632,10.5809,10.5809,10.5156,10.4151,10.4151,10.3499,10.2544,10.2544,10.2544,10.2544,10.1825,10.2502,10.2705,10.1216,10.1419,10.257,10.5005,10.6494,10.8185,11.0689,11.2718,11.4816,11.7116,11.8605,12.0025,12.1243,12.1582,12.1717,12.1717,12.1514,12.0837,11.9619,11.8605,11.7454,11.6237,11.468,11.353,11.2515,11.1703,11.1095,11.0689,11.0892,11.1027,11.1095,11.2786,11.4139,11.5289,11.7996,12.0296,12.2393,12.51,12.8009,13.058,13.0106,13.0986,13.2475,13.2204,13.2136,13.2001,13.0986,13.0715,13.0512,12.9836,12.9227,12.855,12.7265,12.5912,12.4423,12.2867,12.1379,11.9822,11.8063,11.6968,11.601,11.4408,11.3459,11.2676,11.2303,11.0914,10.9312,10.8366,10.7087,10.5465,10.3943,10.3209,10.2412,0.0,10.162,10.2099,10.3895,10.6109,10.7665,10.8323,10.8563,10.9341,11.0897,11.1794,11.341,11.5804,11.7181,11.8497,11.9814,12.119,12.2088,12.2507,12.2496,12.2404,12.229,11.9587,11.7406,11.5266,11.221,10.9878,10.7993,10.6632,10.6083,10.5809,10.5407,10.4804,10.4151,10.38,10.3197,10.2544,10.2544,10.2544,10.2544,10.3579,10.399,10.4193,10.2502,10.3179,10.4802,10.6967,10.8591,11.0621,11.3327,11.5628,11.7928,12.0093,12.1717,12.307,12.4288,12.4694,12.4829,12.4829,12.4829,12.4288,12.307,12.1988,12.0905,11.9687,11.7725,11.6034,11.4816,11.3801,11.2786,11.1771,11.1771,11.1703,11.1501,11.2921,11.4004,11.4883,11.7928,12.0228,12.2123,12.5912,12.8821,13.0986,13.0783,13.1595,13.288,13.288,13.288,13.2813,13.2001,13.2001,13.2136,13.1595,13.1324,13.0918,12.9904,12.8889,12.7806,12.5979,12.4626,12.3205,12.0905,11.9822,11.886,11.721,11.6338,11.586,11.5322,11.3976,11.2235,11.0713,10.8772,10.6737,10.504,10.3274,10.1875,0.0,10.0364,10.0483,10.1321,10.3595,10.5391,10.6229,10.6528,10.7306,10.8802,10.976,11.1316,11.3709,11.5325,11.6822,11.8078,11.9694,12.0831,12.149,12.1201,12.1058,12.1117,11.8645,11.6377,11.4481,11.1578,10.929,10.7993,10.6307,10.5809,10.5758,10.5206,10.4654,10.4051,10.3549,10.3047,10.2544,10.2544,10.2544,10.2544,10.5002,10.4735,10.4599,10.399,10.5547,10.717,10.8118,11.0756,11.3463,11.5695,11.7996,12.0228,12.2393,12.3882,12.51,12.5912,12.6588,12.7062,12.7062,12.7062,12.6791,12.6047,12.4626,12.3476,12.2664,11.9822,11.7928,11.7116,11.556,11.4004,11.2583,11.2515,11.2109,11.1501,11.2921,11.4004,11.4816,11.786,12.0499,12.2867,12.6588,12.9024,13.0377,13.1121,13.2407,13.3692,13.3692,13.3692,13.3625,13.2813,13.3083,13.3489,13.2001,13.2069,13.2407,13.0986,13.0512,12.9971,12.7874,12.6724,12.5573,12.3408,12.2258,12.1361,12.0311,11.9955,11.9645,11.8318,11.6853,11.5185,11.3275,11.0228,10.77,10.6562,10.3883,10.1454,9.9705,9.9466,9.9466,9.9526,10.1201,10.2877,10.4194,10.4912,10.563,10.6288,10.7545,10.9101,11.1076,11.3111,11.4787,11.6103,11.8018,11.9395,12.0113,12.0026,11.9829,11.9367,11.789,11.5849,11.3168,11.1155,10.929,10.7993,10.6307,10.5809,10.5758,10.5156,10.4654,10.4051,10.3549,10.2996,10.2544,10.2544,10.2544,10.2544,10.6278,10.6018,10.6763,10.7913,10.7847,10.866,11.1444,11.3537,11.5909,11.8439,12.0854,12.2935,12.4017,12.5506,12.6724,12.7535,12.7738,12.8077,12.8618,12.8618,12.828,12.7603,12.7197,12.6318,12.51,12.3205,12.1311,11.9417,11.7387,11.5289,11.3327,11.2786,11.2109,11.1501,11.2921,11.3733,11.4072,11.7116,12.0634,12.4288,12.6385,12.8821,13.1121,13.1324,13.2407,13.3692,13.3692,13.3692,13.3692,13.3489,13.3895,13.4437,13.4098,13.4437,13.4978,13.4572,13.3692,13.2677,13.2136,13.058,12.8889,12.7806,12.6927,12.625,12.528,12.4355,12.3792,12.3472,12.1272,11.8931,11.6753,11.4154,11.1162,10.8065,10.4062,10.0973,9.9586,9.9107,9.8927,9.9466,9.9945,10.1022,10.2817,10.3535,10.4433,10.563,10.6408,10.7605,10.9041,11.1016,11.2692,11.4009,11.5984,11.76,11.8737,11.8414,11.8246,11.8671,11.6413,11.4573,11.3168,11.0679,10.8875,10.7993,10.6307,10.5809,10.5708,10.4754,10.4302,10.4051,10.3097,10.2645,10.2544,10.2544,10.2544,10.2544,10.8111,10.7981,10.866,11.0426,11.1039,11.2061,11.4447,11.6553,0.0,12.174,12.3481,12.4939,12.6363,12.7425,12.828,12.9024,12.943,12.9701,13.0106,13.0174,13.0039,12.9633,12.9227,12.8483,12.74,12.5912,12.4017,12.1717,11.9822,11.759,11.5019,11.4004,11.3057,11.238,11.3192,11.3801,11.4274,11.759,12.1108,12.4423,12.6588,12.8889,0.0,13.1595,13.261,13.3692,13.3692,13.3692,13.3692,13.4098,13.4504,13.491,13.5181,13.5587,13.5925,13.5925,13.5316,13.4572,13.4301,13.3016,13.1527,13.0445,12.9633,12.8889,12.8077,12.7442,12.6876,12.6215,12.446,12.1973,11.9519,11.6713,11.3022,10.7654,10.4429,10.1697,10.0247,9.9586,9.9526,9.9885,10.0184,10.0663,10.1501,10.192,10.2698,10.4014,10.4493,10.551,10.7426,10.9101,11.0777,11.2393,11.4368,11.6043,11.736,11.6872,11.6781,11.7161,11.5164,11.3574,11.241,11.0256,10.8771,10.7993,10.6307,10.5809,10.5708,10.4603,10.4151,10.4051,10.2946,10.2544,10.2544,10.2544,10.2544,10.2544,11.0222,11.0154,11.0698,11.2334,11.4522,11.6581,11.8159,11.9728,0.0,12.4933,0.0,12.6697,12.874,12.9212,12.9633,13.0377,13.0986,13.1392,13.1392,13.1392,13.1392,13.1392,13.0783,13.0106,12.9498,12.8009,12.6182,12.4017,12.2393,12.0025,11.6981,11.5492,11.441,11.3598,11.3733,11.4274,11.5492,11.9078,12.192,12.4288,12.713,12.9227,13.0715,13.2001,13.3016,13.3692,13.3692,13.3692,13.3828,13.4572,13.491,13.5113,13.579,13.6128,13.6196,13.6196,13.6128,13.5925,13.5316,13.4504,13.3692,13.2339,13.1392,13.0715,13.0106,12.9768,12.9267,12.8264,12.6633,12.4797,12.1924,11.8332,11.362,10.7366,10.5101,10.3333,10.1147,10.0782,10.0723,10.0603,10.1082,0.0,10.0663,10.0603,10.1082,10.2159,10.2398,10.3535,10.5929,10.7426,10.9161,11.1136,11.2991,11.4727,11.6163,11.5567,11.5256,11.5419,11.4028,11.2742,11.1381,10.9886,10.8667,10.7993,10.6307,10.5809,10.5708,10.4603,10.4051,10.385,10.2896,10.2544,10.2544,10.2544,10.2544,10.2544,11.2265,11.2539,11.3632,11.5618,11.8231,12.1061,12.4871,12.4669,12.4923,12.694,12.8348,12.9385,12.9942,13.0442,13.0772,13.1189,13.1324,13.1392,13.1392,13.1392,13.1392,13.1392,13.1324,13.1121,13.0986,12.9565,12.8009,12.6385,12.3679,12.077,11.7928,11.6304,11.4883,11.3598,11.4207,11.5966,11.8605,12.1108,12.3814,12.6588,12.828,13.0309,13.2136,13.2407,13.3016,13.3692,13.3692,13.3692,13.3828,13.4572,13.5181,13.579,13.6602,13.7211,13.7684,13.7684,13.7278,13.6805,13.6602,13.6128,13.5451,13.5181,13.4572,13.3963,13.3828,13.2813,13.1933,13.1632,12.9817,12.7569,12.5087,11.9128,11.3595,11.0202,10.7486,10.4724,10.2526,10.2099,10.192,10.1381,10.1381,10.1441,10.1321,10.1321,10.1201,10.0902,10.186,10.2937,10.3895,10.6229,10.8503,11.0418,11.1914,11.359,11.5445,11.4441,11.4143,11.4839,11.3006,11.1909,11.1381,10.9515,10.8304,10.7993,10.6307,10.5809,10.5708,10.4603,10.3599,10.2796,10.2595,10.2544,10.2544,10.2544,10.2544,10.2544,11.555,11.6027,11.7122,11.8915,12.1662,12.4629,12.7772,12.94,13.0255,13.0322,13.0695,13.1185,13.1548,13.1853,13.2225,13.2875,13.3115,13.3286,13.3692,13.3692,13.3692,13.3692,13.3422,13.3016,13.261,13.1527,12.9971,12.8077,12.5912,12.3273,12.0296,11.8402,11.6981,11.5966,11.671,11.8266,12.0499,12.2664,12.5167,12.7738,12.9633,13.1189,13.2542,13.3016,13.3422,13.376,13.4098,13.4301,13.4369,13.5113,13.5925,13.6602,13.7278,13.782,13.809,13.809,13.782,13.7617,13.7617,13.7008,13.6534,13.6534,13.5925,13.5384,13.5384,13.4504,13.3625,13.3219,13.1533,12.9,12.517,12.0154,11.5552,11.2055,10.9626,10.7023,10.4444,10.4014,10.3775,10.3057,10.2997,10.2698,10.2099,10.168,10.1201,10.0543,10.1082,10.192,10.2877,10.5091,10.7306,10.9281,11.0897,11.2572,11.4188,11.3848,11.3716,11.4123,11.2381,11.1595,11.0906,10.9092,10.8045,10.7583,10.6206,10.5608,10.5306,10.4202,10.3248,10.2544,10.2544,10.2544,10.2544,10.2544,10.2544,10.2544,11.9882,12.0286,12.1375,12.2843,12.5575,12.8318,13.0581,13.3748,13.5329,13.3554,13.3261,13.3283,13.3508,13.3495,13.3846,13.4497,13.4741,13.5316,13.5925,13.5925,13.5925,13.5925,13.5316,13.4707,13.3895,13.3219,13.1663,12.943,12.7806,12.5506,12.2664,12.0567,11.9417,11.8808,11.9619,12.077,12.2529,12.4559,12.6724,12.9024,13.0918,13.2136,13.2813,13.3489,13.3692,13.3828,13.4504,13.491,13.5113,13.5925,13.6534,13.7075,13.7887,13.809,13.809,13.809,13.809,13.809,13.809,13.7684,13.7211,13.7211,13.6669,13.6128,13.6128,13.5587,13.4775,13.4098,13.2305,12.9546,12.498,12.1343,11.7879,11.3716,11.1511,10.9322,10.6543,10.6049,10.575,10.4912,10.4732,10.4194,10.2997,10.186,10.1082,10.0483,10.0364,10.0902,10.2219,10.4014,10.5989,10.8084,10.9939,11.1615,11.3111,11.3314,11.358,11.3864,11.2673,11.1795,11.0803,10.9449,10.8154,10.7173,10.6328,10.5681,10.4754,10.375,10.3047,10.2544,10.2544,10.2544,10.2544,10.2544,10.2544,10.2544,12.5065,12.5605,12.6422,12.831,13.0709,13.344,13.5592,13.7519,13.7875,13.5641,13.5951,13.6364,13.6017,13.5615,13.5387,13.5245,13.5486,13.579,13.5925,13.5925,13.5925,13.5925,13.5857,13.5519,13.4707,13.3963,13.2475,13.0174,12.8077,12.5776,12.3476,12.192,12.1176,12.1108,12.1852,12.3408,12.5573,12.713,12.9092,13.1189,13.2001,13.288,13.3625,13.3692,13.3692,13.3828,13.4504,13.5181,13.5925,13.6602,13.694,13.7075,13.7887,13.809,13.809,13.809,13.809,13.809,13.809,13.8022,13.7955,13.7955,13.7414,13.6872,13.6872,13.6331,13.5587,13.4775,13.2124,12.9059,12.6306,12.2943,11.9385,11.6033,11.3388,11.0835,10.8521,10.8084,10.7605,10.6408,10.569,10.5032,10.4313,10.1979,10.0543,10.0483,9.9945,10.0184,10.1501,10.2877,10.4792,10.7366,10.8802,11.0478,11.2393,11.3083,11.3775,11.4508,11.3704,11.279,11.1598,11.0634,10.8997,10.7173,10.6923,10.5752,10.4151,10.3599,10.3047,10.2544,10.2544,10.2544,10.2544,10.2544,10.2544,10.2544,12.9836,13.0438,13.1194,13.3077,13.5055,13.6756,0.0,14.0432,14.1289,14.0031,13.912,13.8275,13.7376,13.7173,13.692,13.7176,13.6741,13.6737,13.7211,13.7211,13.7211,13.7211,13.6805,13.6399,13.6128,13.4978,13.3692,13.2339,13.0106,12.8077,12.6318,12.4829,12.4085,12.4085,12.4897,12.6182,12.8009,12.9498,13.0851,13.2136,13.288,13.3422,13.3692,13.3692,13.3692,13.3895,13.4978,13.5654,13.6128,13.7278,13.7684,13.7684,13.8022,13.809,13.809,13.809,13.809,13.809,13.809,13.809,13.809,13.809,13.7887,13.7684,13.7684,13.7075,13.6466,13.5851,13.2758,12.9273,12.613,12.3448,12.0419,11.6938,11.4811,11.291,11.056,10.9819,10.9101,10.7785,10.6707,10.563,10.4493,10.2398,10.0902,10.0483,9.9885,9.9885,10.0782,10.2099,10.3895,10.6109,10.7904,10.97,11.1675,11.3142,11.4167,11.4479,11.422,11.3208,11.159,11.0443,10.863,10.6313,10.567,10.4875,10.4051,10.3197,10.2695,10.2544,10.2544,10.2544,10.2544,10.2544,10.2544,10.2544,13.4533,13.493,13.5808,13.7282,13.9055,14.0482,14.1184,14.315,14.4163,14.3458,14.2016,14.0546,13.9015,13.8437,13.8413,13.8572,13.7998,13.8022,13.8699,13.8699,13.8699,13.8428,13.7887,13.7414,13.7008,13.5993,13.491,13.3692,13.1866,13.0106,12.8415,12.713,12.6724,12.6927,12.7603,12.8821,13.0242,13.1324,13.2204,13.288,13.3489,13.3692,13.3692,13.3692,13.3692,13.3895,13.5384,13.5925,13.6128,13.7617,13.809,13.809,13.809,13.809,13.809,13.809,13.809,13.809,13.809,13.809,13.809,13.809,13.809,13.809,13.809,13.7684,13.7037,13.6204,13.2838,12.9317,12.6265,12.3747,12.1064,11.7819,11.6244,11.4632,11.2393,11.1435,11.0298,10.8862,10.7485,10.6169,10.4792,10.2877,10.1561,10.1082,10.0304,10.0004,10.0483,10.1561,10.3117,10.5032,10.6887,10.8802,11.1016,11.3173,11.4441,11.4857,11.4907,11.3971,11.1873,10.9722,10.8,10.6262,10.4674,10.4151,10.4051,10.2996,10.2544,10.2544,10.2544,10.2544,10.2544,10.2544,10.2544,10.2544,13.9295,13.9684,14.0144,14.0943,14.3074,14.4525,14.4525,14.5603,14.6208,14.5507,14.4845,14.3532,14.1077,14.0089,13.9566,13.9324,13.9288,13.9511,14.0188,14.0323,13.9917,13.924,13.924,13.8496,13.7008,13.7008,13.5925,13.3692,13.288,13.1324,12.9227,12.8415,12.8483,12.9227,12.9904,13.1054,13.2475,13.2475,13.3016,13.3692,13.3692,13.3692,13.3692,13.3692,13.3692,13.3895,13.5384,13.5925,13.6128,13.7617,13.809,13.809,13.809,13.809,13.809,13.809,13.809,13.809,13.809,13.809,13.809,13.809,13.809,13.809,13.809,13.809,13.7538,13.5316,13.2541,12.9643,12.7157,12.4243,12.1561,11.9237,11.7369,11.5655,11.4308,11.3111,11.1555,10.958,10.8204,10.6887,10.551,10.3595,10.2518,10.2458,10.1201,10.0483,10.0483,10.1082,10.2398,10.4373,10.569,10.7725,11.0298,11.2991,11.463,11.5447,11.6047,11.5193,11.254,10.9085,10.7143,10.7122,10.4944,10.4151,10.4051,10.2996,10.2544,10.2544,10.2544,10.2544,10.2544,10.2544,10.2544,10.2544,14.1694,14.184,14.2517,14.4023,14.4919,14.5741,14.6372,14.7039,14.7228,14.7029,14.636,14.5522,14.417,14.2242,14.1149,14.0964,14.0307,13.9985,14.0323,14.0323,14.0188,13.9985,13.9511,13.9037,13.8496,13.7481,13.6669,13.5925,13.4166,13.2407,13.0715,13.0512,13.0715,13.146,13.173,13.2407,13.3286,13.3286,13.3489,13.3692,13.3692,13.3692,13.3692,13.3692,13.3692,13.3895,13.5384,13.5925,13.6128,13.7617,13.809,13.809,13.809,13.809,13.809,13.809,13.809,13.809,13.809,13.809,13.809,13.809,13.809,13.809,13.809,13.7322,13.6051,13.3863,13.1076,12.8382,12.6102,12.3211,12.0681,11.9149,11.7672,11.6436,11.5146,11.3829,11.2213,11.0298,10.8503,10.6887,10.551,10.4014,10.3117,10.3117,10.2698,10.2279,10.186,10.2458,10.3715,10.569,10.7066,10.8802,11.1016,11.3171,11.463,11.5447,11.6556,11.5188,11.1927,10.9297,10.7468,10.6609,10.5197,10.4503,10.4051,10.3398,10.2846,10.2544,10.2544,10.2544,10.2544,10.2544,10.2544,10.2544,14.4407,14.4553,14.5038,14.6181,14.6739,14.7105,14.7854,14.8282,14.8466,14.8132,14.7509,14.6944,14.6068,14.3979,14.2594,14.2057,14.1258,14.0864,14.1135,14.1202,14.0999,14.0796,13.9985,13.9511,13.924,13.8022,13.7278,13.7008,13.4775,13.3219,13.2272,13.2001,13.2069,13.2475,13.2813,13.3219,13.3692,13.3692,13.3692,13.3692,13.3692,13.3692,13.3692,13.3692,13.3895,13.4301,13.5519,13.6128,13.6534,13.7684,13.809,13.809,13.809,13.809,13.809,13.809,13.809,13.809,13.809,13.809,13.809,13.809,13.809,13.809,13.7916,13.6789,13.5392,13.3449,13.0897,12.804,12.554,12.2949,12.0666,11.9214,11.8243,11.7121,11.5864,11.4487,11.2931,11.0897,10.9221,10.7725,10.6647,10.551,10.4912,10.4912,10.4673,10.4613,10.4673,10.4373,10.5091,10.7066,10.8204,10.9819,11.2034,11.3769,11.526,11.6079,11.6396,11.506,11.1652,10.9865,10.8105,10.6353,10.5839,10.4976,10.4151,10.3549,10.3047,10.2544,10.2544,10.2544,10.2544,10.2544,10.2544,10.2544,14.7341,14.7414,14.7414,14.7487,14.8221,14.8662,14.8809,14.9525,14.9849,14.9277,14.8581,14.7726,14.6912,14.5159,14.3833,14.2945,14.2073,14.1879,14.2556,14.2556,14.2285,14.1608,14.0796,13.9985,13.9308,13.8496,13.7684,13.7008,13.491,13.3895,13.3828,13.3083,13.2677,13.2813,13.3489,13.3828,13.3828,13.3692,13.3692,13.3692,13.3692,13.3692,13.3692,13.376,13.4166,13.491,13.5722,13.6399,13.7075,13.7887,13.809,13.809,13.809,13.809,13.809,13.809,13.809,13.809,13.809,13.809,13.809,13.809,13.809,13.7916,13.7389,13.6498,13.5341,13.3597,13.1092,12.8477,12.5822,12.3213,12.1126,11.9454,11.869,11.7779,11.6462,11.5206,11.359,11.1615,11.0298,10.9281,10.8563,10.7964,10.7605,10.7605,10.7007,10.7186,10.8503,10.6827,10.6707,10.8563,10.9281,11.0897,11.341,11.4727,11.6129,11.7287,11.6179,11.4266,11.1707,11.0889,10.8839,10.6353,10.6059,10.5417,10.4151,10.3549,10.3047,10.2544,10.2544,10.2544,10.2544,10.2544,10.2544,10.2544,0.0,14.7414,14.7634,14.8295,14.8589,14.9102,15.0277,15.0256,15.0286,15.0727,14.9658,14.8508,14.7685,14.6157,14.4727,14.3697,14.2887,14.242,14.2556,14.2556,14.2488,14.2285,14.0999,14.0188,13.9985,13.8767,13.7684,13.7008,13.6466,13.5925,13.5384,13.5181,13.5113,13.5113,13.4707,13.4504,13.4504,13.3895,13.3692,13.3692,13.3692,13.3692,13.376,13.4301,13.4572,13.4978,13.6263,13.6872,13.7075,13.7887,13.809,13.809,13.809,13.809,13.809,13.809,13.809,13.809,13.809,13.809,13.809,13.809,13.7916,13.7322,13.6498,13.5157,13.3597,13.1673,12.8912,12.6635,12.4991,12.2314,12.0239,11.9843,11.899,11.7779,11.6462,11.5565,11.4308,11.2273,11.1316,11.0597,10.9939,10.97,10.964,10.964,10.952,10.976,11.0597,11.0178,11.0358,11.1316,11.2034,11.3171,11.4787,11.5625,11.687,11.8206,11.6815,11.5197,11.3186,11.0659,10.8732,10.71,10.592,10.5113,10.4151,10.3549,10.3047,10.2544,10.2544,10.2544,10.2544,10.2544,10.2544,10.2544,14.8515,14.8515,14.8662,14.9176,14.9176,14.969,15.0938,15.0768,15.0796,15.1102,15.0377,14.9219,14.7966,14.6201,14.4934,14.4144,14.3091,14.2556,14.2556,14.2556,14.2556,14.2556,14.1473,14.0661,14.0323,13.9173,13.8225,13.7481,13.7211,13.6805,13.6399,13.6128,13.5925,13.5925,13.5519,13.5316,13.5316,13.4504,13.4166,13.4166,13.4166,13.4166,13.4301,13.4978,13.5519,13.5925,13.6669,13.7211,13.7617,13.7955,13.809,13.809,13.809,13.809,13.809,13.809,13.809,13.809,13.809,13.809,13.809,13.809,13.7673,13.7145,13.6071,13.4788,13.3027,13.0885,12.8621,12.6178,12.4453,12.2251,12.0445,11.9711,11.8894,11.7899,11.6881,11.5864,11.4787,11.335,11.2393,11.1615,11.1196,11.1196,11.1196,11.1196,11.1196,11.1495,11.2213,11.2213,11.2513,11.3171,11.359,11.4487,11.6163,11.742,11.8142,11.8454,11.78,11.597,11.3374,11.1505,10.9244,10.7003,10.6199,10.5078,10.38,10.3448,10.3047,10.2544,10.2544,10.2544,10.2544,10.2544,10.2544,10.2544,14.9763,14.991,14.991,14.991,14.9983,15.035,15.1158,15.128,15.1378,15.1597,15.0808,14.9717,14.8122,14.6435,14.4934,14.4144,14.3091,14.2556,14.2556,14.2556,14.2556,14.2556,14.1879,14.1202,14.0526,13.9714,13.9037,13.8293,13.7617,13.7278,13.7211,13.6534,13.6196,13.6196,13.6128,13.6128,13.5993,13.5316,13.4978,13.4978,13.4978,13.4978,13.4978,13.579,13.6466,13.7008,13.7075,13.7617,13.809,13.809,13.809,13.809,13.809,13.809,13.809,13.809,13.809,13.809,13.809,13.809,13.809,13.809,13.7741,13.6968,13.6071,13.4602,13.2643,13.0687,12.8527,12.6254,12.4209,12.2305,12.077,11.9395,11.8796,11.8078,11.736,11.6283,11.5265,11.4487,11.341,11.2692,11.2572,11.2572,11.2572,11.2572,11.2572,11.2872,11.341,11.347,11.3769,11.4428,11.4487,11.5505,11.736,11.9156,11.9451,11.8454,11.8203,11.6682,11.3618,11.2255,10.9748,10.6485,10.6157,10.5041,10.3348,10.3248,10.2946,10.2544,10.2544,10.2544,10.2544,10.2544,10.2544,10.2544,14.991,14.991,14.991,14.991,15.0497,15.1231,15.1966,15.2157,15.2381,15.2792,15.1308,14.9794,14.8433,14.6528,14.4934,14.4144,14.3091,14.2556,14.2556,14.2556,14.2556,14.2556,14.1879,14.1405,14.1338,14.0526,13.9782,13.9037,13.8902,13.8496,13.7887,13.782,13.7752,13.7684,13.7075,13.6805,13.6805,13.5993,13.5722,13.5722,13.5722,13.5722,13.579,13.6534,13.6872,13.7075,13.7684,13.8022,13.809,13.809,13.809,13.809,13.809,13.809,13.809,13.809,13.809,13.809,13.809,13.809,13.809,13.809,13.7322,13.6431,13.5525,13.3408,13.128,12.9547,12.701,12.4944,12.3954,12.2375,12.0831,12.0173,11.9515,11.8617,11.742,11.7061,11.6522,11.5265,11.4966,11.4607,11.4009,11.4009,11.4009,11.4009,11.4009,11.4009,11.4128,11.4128,11.4487,11.5086,11.5684,11.6702,11.8018,11.8916,11.8975,11.8454,11.7795,11.6516,11.4347,11.201,10.9575,10.727,10.5547,10.4329,10.3348,10.2846,10.2595,10.2544,10.2544,10.2544,10.2544,10.2544,10.2544,10.2544,14.991,14.991,14.991,14.991,15.0571,15.1378,15.2186,15.2626,15.2855,15.3141,15.1797,15.0306,14.8587,14.7084,14.5509,14.4144,14.3336,14.2981,14.2556,14.2556,14.2556,14.2556,14.2285,14.1879,14.1473,14.0729,14.012,13.9782,13.9443,13.9037,13.8699,13.8293,13.809,13.809,13.7684,13.7617,13.7481,13.6805,13.6534,13.6534,13.6534,13.6534,13.6602,13.7278,13.7617,13.7617,13.7955,13.809,13.809,13.809,13.809,13.809,13.809,13.809,13.809,13.809,13.809,13.809,13.809,13.809,13.8022,13.7741,13.7212,13.6318,13.4788,13.29,13.0687,12.8527,12.6228,12.4511,12.3699,12.2275,12.1011,12.0352,11.9634,11.8856,11.7899,11.742,11.7001,11.6403,11.5984,11.5565,11.4906,11.4787,11.4667,11.4308,11.4308,11.4308,11.4308,11.4308,11.4607,11.5265,11.6283,11.724,11.8198,11.8856,11.8618,11.7923,11.7096,11.5942,11.3898,11.1461,10.904,10.7008,10.5238,10.3922,10.2846,10.2595,10.2544,10.2544,10.2544,10.2544,10.2544,10.2544,10.2544,10.2544,14.991,14.991,14.991,14.991,15.0718,15.1598,15.2186,15.2896,15.3274,15.3271,15.2144,15.067,14.8893,14.7334,14.5941,14.4317,14.3621,14.3159,14.2556,14.2556,14.2556,14.2556,14.2556,14.2285,14.1811,14.1202,14.0796,14.0593,13.9985,13.9579,13.924,13.8631,13.8293,13.809,13.809,13.809,13.809,13.7481,13.7278,13.7278,13.7278,13.7278,13.7278,13.7887,13.809,13.809,13.809,13.809,13.809,13.809,13.809,13.809,13.809,13.809,13.809,13.809,13.809,13.809,13.809,13.809,13.7916,13.7565,13.7035,13.5889,13.3975,13.2257,13.0288,12.7907,12.5864,12.4355,12.3259,12.2173,12.119,12.0532,11.9874,11.9215,11.8497,11.7899,11.742,11.724,11.6762,11.6283,11.5565,11.5385,11.5086,11.4607,11.4368,11.4368,11.4487,11.4487,11.4906,11.5684,11.6702,11.754,11.8198,11.8677,11.838,11.7451,11.6513,11.5254,11.3281,11.0857,10.8451,10.6433,10.4877,10.3719,10.2544,10.2544,10.2544,10.2544,10.2544,10.2544,10.2544,10.2544,10.2544,10.2544,14.991,14.991,14.991,14.991,15.1158,15.2186,15.2259,15.3335,15.3985,15.3676,15.2208,15.0956,14.9575,14.7809,14.6037,14.4593,14.3796,14.3159,14.2556,14.2556,14.2556,14.2556,14.2556,14.2556,14.2488,14.2488,14.2082,14.1405,14.1405,14.0593,13.924,13.9105,13.8767,13.809,13.809,13.809,13.809,13.8022,13.8022,13.8022,13.8022,13.8022,13.8022,13.809,13.809,13.809,13.809,13.809,13.809,13.809,13.809,13.809,13.809,13.809,13.809,13.809,13.809,13.809,13.809,13.809,13.7916,13.7565,13.6678,13.5525,13.404,13.1608,12.9281,12.7637,12.5589,12.3699,12.3038,12.2534,12.1909,12.119,12.0592,11.9874,11.9215,11.8497,11.7899,11.73,11.7181,11.6941,11.6283,11.5684,11.5265,11.5206,11.4667,11.4607,11.5146,11.5206,11.5804,11.7061,11.7181,11.754,11.8198,11.8258,11.7903,11.7451,11.6105,11.4508,11.2902,11.0199,10.7809,10.5858,10.431,10.3363,10.2544,10.2544,10.2544,10.2544,10.2544,10.2544,10.2544,10.2544,10.2544,10.2544,14.991,14.991,15.0057,15.0571,15.1598,15.2479,15.2993,15.3898,15.431,15.3877,15.289,15.1447,14.9794,14.8278,14.6528,14.4763,14.4144,14.3445,14.2556,14.2556,14.2556,14.2556,14.2556,14.2556,14.2556,14.2556,14.2488,14.2217,14.1202,14.0526,13.9917,13.8902,13.8361,13.809,13.809,13.809,13.809,13.809,13.809,13.809,13.8631,13.8496,13.809,13.8631,13.8496,13.809,13.809,13.809,13.809,13.809,13.809,13.809,13.809,13.809,13.809,13.809,13.809,13.809,13.809,13.809,13.7916,13.7212,13.6431,13.5091,13.2578,13.0885,12.8874,12.6228,12.4789,12.3699,12.2654,12.2371,12.1968,12.131,12.1011,12.0412,11.9335,11.8976,11.8617,11.7899,11.7839,11.76,11.6941,11.6642,11.6343,11.5924,11.5684,11.5684,11.5924,11.6283,11.6702,11.724,11.76,11.7959,11.8198,11.8198,11.7665,11.6862,11.5688,11.3934,11.1991,10.9595,10.7167,10.5283,10.4156,10.3108,10.2042,10.2394,10.2544,10.2544,10.2544,10.2544,10.2544,10.2544,10.2544,10.2544,14.991,14.991,15.0204,15.1011,15.1819,15.2553,15.3434,15.4168,15.4508,15.3804,15.295,15.1797,15.0089,14.8657,14.7084,14.4934,14.4317,14.3621,14.2623,14.2556,14.2556,14.2556,14.2556,14.2556,14.2556,14.2556,14.2488,14.2285,14.1202,14.0391,13.9917,13.8902,13.8293,13.809,13.809,13.809,13.809,13.809,13.8225,13.8496,13.9037,13.9037,13.8767,13.9105,13.8902,13.8428,13.8158,13.809,13.809,13.809,13.809,13.809,13.809,13.809,13.809,13.809,13.809,13.809,13.809,13.7916,13.7741,13.6857,13.5889,13.4536,13.1868,13.0088,12.8321,12.5375,12.4137,12.3198,12.2431,12.2208,12.2028,12.1609,12.131,12.0831,11.9694,11.9275,11.8976,11.8318,11.8198,11.8018,11.76,11.736,11.7061,11.6642,11.6403,11.6403,11.6582,11.7181,11.754,11.754,11.8018,11.8198,11.8198,11.8198,11.7546,11.6449,11.5114,11.3418,11.1138,10.8695,10.6578,10.4402,10.3589,10.2701,10.1691,10.2093,10.2344,10.2544,10.2544,10.2544,10.2544,10.2544,10.2544,10.2544,14.991,14.991,15.0204,15.1011,15.1819,15.2626,15.3434,15.4168,15.4508,15.3804,15.295,15.1935,15.0452,14.8964,14.7244,14.5509,14.4489,14.3621,14.2623,14.2556,14.2556,14.2556,14.2556,14.2556,14.2556,14.2556,14.2217,14.1473,14.1473,14.0729,13.924,13.924,13.8834,13.809,13.809,13.809,13.809,13.809,13.8496,13.924,13.924,13.9646,14.0188,13.9511,13.924,13.9105,13.8361,13.809,13.809,13.809,13.809,13.809,13.809,13.809,13.809,13.809,13.809,13.809,13.809,13.7741,13.7212,13.6857,13.5091,13.3217,13.1673,12.9281,12.6863,12.516,12.3857,12.2756,12.2208,12.2208,12.2208,12.2208,12.1609,12.1011,12.0352,11.9634,11.8976,11.8318,11.8198,11.8198,11.8198,11.76,11.724,11.724,11.6642,11.6582,11.724,11.7839,11.8198,11.8198,11.8198,11.8198,11.8198,11.8198,11.7546,11.6449,11.5114,11.3017,10.9996,10.8093,10.5496,10.3016,10.2304,10.1888,10.1691,10.1691,10.2042,10.2544,10.2544,10.2544,10.2544,10.2544,10.2544,10.2544,14.991,15.035,15.1011,15.1819,15.2626,15.3434,15.4241,15.4535,15.4508,15.3804,15.295,15.1935,15.0452,14.8964,14.7244,14.5509,14.4489,14.3621,14.2623,14.2556,14.2556,14.2556,14.2556,14.2556,14.2556,14.2556,14.2217,14.1473,14.0932,14.0188,13.924,13.8699,13.8293,13.809,13.809,13.809,13.809,13.809,13.8496,13.924,13.9782,14.012,14.0323,14.0729,14.012,13.9173,13.897,13.8496,13.809,13.809,13.809,13.809,13.809,13.809,13.809,13.809,13.809,13.809,13.809,13.7565,13.6857,13.6318,13.4973,13.3027,13.0687,12.8669,12.6652,12.4511,12.3419,12.2756,12.2208,12.2208,12.2208,12.2208,12.2028,12.149,12.0412,11.9993,11.9515,11.8318,11.8198,11.8198,11.8198,11.8018,11.7899,11.7899,11.7719,11.7719,11.7899,11.8078,11.8198,11.8198,11.8198,11.8198,11.8198,11.7764,11.7328,11.6449,11.4439,11.2097,10.9996,10.7129,10.4542,10.2499,10.1638,10.0964,10.0536,10.0988,10.149,10.1942,10.1942,10.2193,10.2544,10.2544,10.2544,10.2544,14.991,15.0497,15.1378,15.2186,15.2993,15.3801,15.4608,15.4682,15.4508,15.3804,15.295,15.1935,15.0452,14.8964,14.7244,14.5509,14.4144,14.3268,14.2556,14.2556,14.2556,14.2556,14.2556,14.2556,14.2556,14.2556,14.2082,14.0999,14.0526,13.9782,13.8767,13.8293,13.809,13.809,13.809,13.809,13.809,13.809,13.8496,13.9308,13.9985,14.0526,14.0796,14.1338,14.0932,14.012,13.9714,13.9173,13.8496,13.8496,13.8293,13.809,13.809,13.809,13.809,13.809,13.809,13.809,13.7916,13.7212,13.6137,13.5157,13.3786,13.2257,13.0088,12.7845,12.5864,12.4294,12.3259,12.2594,12.2208,12.2208,12.2208,12.2208,12.2208,12.1669,12.0412,12.0233,11.9754,11.8378,11.8198,11.8198,11.8198,11.8198,11.8198,11.8198,11.8198,11.8198,11.8198,11.8198,11.8198,11.8198,11.8198,11.8198,11.8198,11.7328,11.667,11.6006,11.3929,11.1691,10.9287,10.6401,10.394,10.1735,10.1025,10.03,10.0034,10.0385,10.0887,10.1389,10.1389,10.159,10.1892,10.1892,10.1892,10.1892,14.991,15.0571,15.1378,15.2186,15.2993,15.3874,15.4608,15.4682,15.4508,15.3804,15.295,15.2007,15.0595,14.9105,14.7314,14.5578,14.3621,14.2556,14.2556,14.2556,14.2556,14.2556,14.2556,14.2556,14.2556,14.2556,14.1811,14.0323,14.0323,13.9511,13.809,13.809,13.809,13.809,13.809,13.809,13.809,13.809,13.8496,13.9308,13.9985,14.0796,14.1473,14.1608,14.1608,14.1405,14.0661,13.9917,13.9308,13.924,13.8699,13.809,13.809,13.809,13.809,13.809,13.809,13.7916,13.7565,13.6678,13.5525,13.404,13.245,13.0885,12.9686,12.7073,12.4511,12.3918,12.3038,12.2208,12.2208,12.2208,12.2208,12.2208,12.2208,12.1669,12.0412,12.0233,11.9754,11.8378,11.8198,11.8198,11.8198,11.8198,11.8198,11.8198,11.8198,11.8198,11.8198,11.8198,11.8198,11.8198,11.8198,11.8198,11.8198,11.7109,11.6228,11.5503,11.3474,11.0879,10.8093,10.5966,10.3744,10.1228,10.0412,9.9947,9.9933,9.9933,10.0285,10.0787,10.0787,10.0837,10.0887,10.0887,10.0887,10.0887,14.991,15.1085,15.2112,15.2259,15.3507,15.4535,15.4682,15.4682,15.4508,15.3804,15.295,15.2223,15.1309,14.9729,14.8153,14.6269,14.3962,14.2556,14.2556,14.2556,14.2556,14.2556,14.2556,14.2556,14.2556,14.2556,14.1811,14.0323,14.0323,13.9511,13.809,13.809,13.809,13.809,13.809,13.809,13.809,13.809,13.8496,13.9308,13.9985,14.0796,14.1608,14.2082,14.2014,14.1473,14.127,14.0729,13.9985,13.9443,13.8699,13.809,13.809,13.809,13.809,13.809,13.809,13.7916,13.7565,13.6678,13.5525,13.404,13.1868,12.9749,12.8114,12.6228,12.4572,12.3419,12.2654,12.2208,12.2208,12.2208,12.2208,12.2208,12.2208,12.1669,12.0412,12.0233,11.9754,11.8378,11.8198,11.8198,11.8198,11.8198,11.8198,11.8198,11.8198,11.8198,11.8198,11.8198,11.8198,11.8198,11.8198,11.8198,11.8198,11.7109,11.6228,11.5503,11.2788,11.0232,10.8093,10.493,10.2691,10.0973,9.9951,9.928,9.9381,9.9381,9.9682,10.0184,10.0184,10.0486,10.0887,10.0887,10.0887,10.0837,15.0424,15.1452,15.2406,15.2773,15.3874,15.4682,15.4682,15.4682,15.4508,15.3804,15.3241,15.2728,15.1595,15.0224,14.855,14.5932,14.4262,14.2962,14.2623,14.2556,14.2556,14.2556,14.2556,14.2556,14.2556,14.2556,14.1811,14.0323,14.0323,13.9511,13.809,13.809,13.809,13.809,13.809,13.809,13.809,13.809,13.8293,13.8699,13.9511,14.0188,14.0999,14.1811,14.2082,14.2014,14.2014,14.1473,14.0729,13.9579,13.8902,13.8564,13.8158,13.809,13.809,13.809,13.7848,13.7741,13.7212,13.5956,13.4349,13.2835,13.0488,12.8258,12.7491,12.5803,12.4076,12.3259,12.2594,12.2208,12.2208,12.2208,12.2208,12.2208,12.2208,12.1669,12.0412,12.0233,11.9754,11.8378,11.8198,11.8198,11.8198,11.8198,11.8198,11.8198,11.8198,11.8198,11.8198,11.8198,11.8198,11.8198,11.8198,11.7981,11.7764,11.667,11.5503,11.4155,11.1634,10.9524,10.7371,10.4136,10.224,10.0973,9.9695,9.918,9.918,9.918,9.9381,9.9632,9.9632,9.9783,10.0034,10.0034,9.9823,9.9512,15.1011,15.1892,15.27,15.3434,15.4168,15.4682,15.4682,15.4682,15.4508,15.3804,15.3677,15.3234,15.1662,15.0478,14.859,14.5512,14.4314,14.3435,14.2623,14.2556,14.2556,14.2556,14.2556,14.2556,14.2556,14.2556,14.1811,14.0323,14.0323,13.9511,13.809,13.809,13.809,13.809,13.809,13.809,13.809,13.809,13.809,13.8158,13.8902,13.9579,14.0188,14.1135,14.1879,14.242,14.2556,14.2082,14.1338,13.9985,13.9443,13.9105,13.8496,13.8158,13.809,13.809,13.7741,13.7212,13.6678,13.5157,13.3217,13.1673,12.9281,12.7282,12.6863,12.5375,12.3699,12.2977,12.2594,12.2208,12.2208,12.2208,12.2208,12.2208,12.2208,12.1669,12.0412,12.0233,11.9754,11.8378,11.8198,11.8198,11.8198,11.8198,11.8198,11.8198,11.8198,11.8198,11.8198,11.8198,11.8198,11.8198,11.8198,11.7981,11.7328,11.6169,11.4607,11.2788,11.0701,10.8811,10.6644,10.3691,10.1735,10.1024,9.9695,9.918,9.918,9.918,9.918,9.918,9.918,9.918,9.918,9.918,9.8713,9.7934,15.1085,15.2333,15.3434,15.3507,15.4168,15.4682,15.4682,15.4682,15.4508,15.3804,15.3677,15.3239,15.2079,14.9808,14.7719,14.6265,14.4585,14.3435,14.2623,14.2556,14.2556,14.2556,14.2556,14.2556,14.2556,14.2556,14.1811,14.0323,14.0323,13.9511,13.809,13.809,13.809,13.809,13.809,13.809,13.809,13.809,13.809,13.8158,13.8902,13.9308,13.9511,14.0999,14.1608,14.1676,14.2353,14.2082,14.1473,14.127,14.0323,13.924,13.9105,13.8631,13.809,13.809,13.7741,13.7212,13.6318,13.4721,13.3027,13.1083,12.8874,12.6863,12.5436,12.4076,12.3038,12.2371,12.2208,12.2208,12.2208,12.2208,12.2208,12.2208,12.2208,12.1669,12.0412,12.0233,11.9754,11.8378,11.8198,11.8198,11.8198,11.8198,11.8198,11.8198,11.8198,11.8198,11.8198,11.8198,11.8198,11.8198,11.8198,11.7981,11.7328,11.6169,11.4607,11.2788,10.976,10.7316,10.5423,10.3192,10.143,10.0208,9.9438,9.918,9.918,9.918,9.918,9.918,9.918,9.918,9.923,9.8454,9.8194,9.7885,15.1672,15.27,15.3581,15.4095,15.4462,15.4682,15.4682,15.4559,15.4331,15.4332,15.3927,15.3466,15.2712,14.9827,14.7331,14.587,14.4473,14.3435,14.2623,14.2556,14.2556,14.2556,14.2556,14.2556,14.2556,14.2556,14.2082,14.0999,14.0526,13.9782,13.8699,13.8293,13.809,13.809,13.809,13.809,13.809,13.809,13.809,13.809,13.8496,13.8834,13.9308,13.9985,14.0796,14.1608,14.2285,14.242,14.2082,14.1608,14.0729,13.9714,13.9308,13.8699,13.8022,13.7741,13.7389,13.6857,13.5774,13.3975,13.2063,13.0488,12.8114,12.5589,12.4511,12.3479,12.2594,12.2148,12.2208,12.2208,12.2208,12.2208,12.2208,12.2208,12.2208,12.1849,12.0951,12.0412,11.9754,11.8378,11.8198,11.8198,11.8198,11.8198,11.8198,11.8198,11.8198,11.8198,11.8198,11.8198,11.8198,11.8198,11.7981,11.7328,11.639,11.4831,11.3017,11.0645,10.7798,10.5913,10.5177,10.2691,10.1176,10.0208,9.9438,9.918,9.918,9.918,9.918,9.918,9.918,9.918,9.923,9.8454,9.7674,9.6529]},{"header":{"parameterUnit":"m.s-1","parameterCategory":1,"la1":30.6,"la2":28.766,"lo1":-90.7593,"lo2":-88.6598,"dx":0.0162,"dy":0.0183,"nx":116,"ny":114,"refTime":"2022-12-21T06:00:00:Z","depth":0,"parameterNumber":3,"parameterNumberName":"V-component_of_WINDS"},"data":[0.0,0.0,0.0,0.0,0.0,0.0,0.0,0.0,0.0,0.0,0.0,0.0,0.0,0.0,0.0,0.0,0.0,0.0,0.0,0.0,0.0,0.0,0.0,0.0,0.0,0.0,0.0,0.0,0.0,0.0,0.0,0.0,0.0,0.0,0.0,0.0,0.0,0.0,0.0,0.0,0.0,0.0,0.0,0.0,0.0,0.0,0.0,0.0,0.0,0.0,0.0,0.0,0.0,0.0,0.0,0.0,0.0,0.0,0.0,0.0,0.0,0.0,0.0,0.0,0.0,0.0,0.0,0.0,0.0,0.0,0.0,0.0,0.0,0.0,0.0,0.0,0.0,0.0,0.0,0.0,0.0,0.0,0.0,0.0,0.0,0.0,0.0,0.0,0.0,0.0,0.0,0.0,0.0,0.0,0.0,0.0,0.0,0.0,0.0,0.0,0.0,0.0,0.0,0.0,0.0,0.0,0.0,0.0,0.0,0.0,0.0,0.0,0.0,0.0,0.0,0.0,0.0,0.0,0.0,0.0,0.0,0.0,0.0,0.0,0.0,0.0,0.0,0.0,0.0,0.0,0.0,0.0,0.0,0.0,0.0,0.0,0.0,0.0,0.0,0.0,0.0,0.0,0.0,0.0,0.0,0.0,0.0,0.0,0.0,0.0,0.0,0.0,0.0,0.0,0.0,0.0,0.0,0.0,0.0,0.0,0.0,0.0,0.0,0.0,0.0,0.0,0.0,0.0,0.0,0.0,0.0,0.0,0.0,0.0,0.0,0.0,0.0,0.0,0.0,0.0,0.0,0.0,0.0,0.0,0.0,0.0,0.0,0.0,0.0,0.0,0.0,0.0,0.0,0.0,0.0,0.0,0.0,0.0,0.0,0.0,0.0,0.0,0.0,0.0,0.0,0.0,0.0,0.0,0.0,0.0,0.0,0.0,0.0,0.0,0.0,0.0,0.0,0.0,0.0,0.0,0.0,0.0,0.0,0.0,0.0,0.0,0.0,0.0,0.0,0.0,0.0,0.0,0.0,0.0,0.0,0.0,0.0,0.0,0.0,0.0,0.0,0.0,0.0,0.0,0.0,0.0,0.0,0.0,0.0,0.0,0.0,0.0,0.0,0.0,0.0,0.0,0.0,0.0,0.0,0.0,0.0,0.0,0.0,0.0,0.0,0.0,0.0,0.0,0.0,0.0,0.0,0.0,0.0,0.0,0.0,0.0,0.0,0.0,0.0,0.0,0.0,0.0,0.0,0.0,0.0,0.0,0.0,0.0,0.0,0.0,0.0,0.0,0.0,0.0,0.0,0.0,0.0,0.0,0.0,0.0,0.0,0.0,0.0,0.0,0.0,0.0,0.0,0.0,0.0,0.0,0.0,0.0,0.0,0.0,0.0,0.0,0.0,0.0,0.0,0.0,0.0,0.0,0.0,0.0,0.0,0.0,0.0,0.0,0.0,0.0,0.0,0.0,0.0,0.0,0.0,0.0,0.0,0.0,0.0,0.0,0.0,0.0,0.0,0.0,0.0,0.0,0.0,0.0,0.0,0.0,0.0,0.0,0.0,0.0,0.0,0.0,0.0,0.0,0.0,0.0,0.0,0.0,0.0,0.0,0.0,0.0,0.0,0.0,0.0,0.0,0.0,0.0,0.0,0.0,0.0,0.0,0.0,0.0,0.0,0.0,0.0,0.0,0.0,0.0,0.0,0.0,0.0,0.0,0.0,0.0,0.0,0.0,0.0,0.0,0.0,0.0,0.0,0.0,0.0,0.0,0.0,0.0,0.0,0.0,0.0,0.0,0.0,0.0,0.0,0.0,0.0,0.0,0.0,0.0,0.0,0.0,0.0,0.0,0.0,0.0,0.0,0.0,0.0,0.0,0.0,0.0,0.0,0.0,0.0,0.0,0.0,0.0,0.0,0.0,0.0,0.0,0.0,0.0,0.0,0.0,0.0,0.0,0.0,0.0,0.0,0.0,0.0,0.0,0.0,0.0,0.0,0.0,0.0,0.0,0.0,0.0,0.0,0.0,0.0,0.0,0.0,0.0,0.0,0.0,0.0,0.0,0.0,0.0,0.0,0.0,0.0,0.0,0.0,0.0,0.0,0.0,0.0,0.0,0.0,0.0,0.0,0.0,0.0,0.0,0.0,0.0,0.0,0.0,0.0,0.0,0.0,0.0,0.0,0.0,0.0,0.0,0.0,0.0,0.0,0.0,0.0,0.0,0.0,0.0,0.0,0.0,0.0,0.0,0.0,0.0,0.0,0.0,0.0,0.0,0.0,0.0,0.0,0.0,0.0,0.0,0.0,0.0,0.0,0.0,0.0,0.0,0.0,0.0,0.0,0.0,0.0,0.0,0.0,0.0,0.0,0.0,0.0,0.0,0.0,0.0,0.0,0.0,0.0,0.0,0.0,0.0,0.0,0.0,0.0,0.0,0.0,0.0,0.0,0.0,0.0,0.0,0.0,0.0,0.0,0.0,0.0,0.0,0.0,0.0,0.0,0.0,0.0,0.0,0.0,0.0,0.0,0.0,0.0,0.0,0.0,0.0,0.0,0.0,0.0,0.0,0.0,0.0,0.0,0.0,0.0,0.0,0.0,0.0,0.0,0.0,0.0,0.0,0.0,0.0,0.0,0.0,0.0,0.0,0.0,0.0,0.0,0.0,0.0,0.0,0.0,0.0,0.0,0.0,0.0,0.0,0.0,0.0,0.0,0.0,0.0,0.0,0.0,0.0,0.0,0.0,0.0,0.0,0.0,0.0,0.0,0.0,0.0,0.0,0.0,0.0,0.0,0.0,0.0,0.0,0.0,0.0,0.0,0.0,0.0,0.0,0.0,0.0,0.0,0.0,0.0,0.0,0.0,0.0,0.0,0.0,0.0,0.0,0.0,0.0,0.0,0.0,0.0,0.0,0.0,0.0,0.0,0.0,0.0,0.0,0.0,0.0,0.0,0.0,0.0,0.0,0.0,0.0,0.0,0.0,0.0,0.0,0.0,0.0,0.0,0.0,0.0,0.0,0.0,0.0,0.0,0.0,0.0,0.0,0.0,0.0,0.0,0.0,0.0,0.0,0.0,0.0,0.0,0.0,0.0,0.0,0.0,0.0,0.0,0.0,0.0,0.0,0.0,0.0,0.0,0.0,0.0,0.0,0.0,0.0,0.0,0.0,0.0,0.0,0.0,0.0,0.0,0.0,0.0,0.0,0.0,0.0,0.0,0.0,0.0,0.0,0.0,0.0,0.0,0.0,0.0,0.0,0.0,0.0,0.0,0.0,0.0,0.0,0.0,0.0,0.0,0.0,0.0,0.0,0.0,0.0,0.0,0.0,0.0,0.0,0.0,0.0,0.0,0.0,0.0,0.0,0.0,0.0,0.0,0.0,0.0,0.0,0.0,0.0,0.0,0.0,0.0,0.0,0.0,0.0,0.0,0.0,0.0,0.0,0.0,0.0,0.0,0.0,0.0,0.0,0.0,0.0,0.0,0.0,0.0,0.0,0.0,0.0,0.0,0.0,0.0,0.0,0.0,0.0,0.0,0.0,0.0,0.0,0.0,0.0,0.0,0.0,0.0,0.0,0.0,0.0,0.0,0.0,0.0,0.0,0.0,0.0,0.0,0.0,0.0,0.0,0.0,0.0,0.0,0.0,0.0,0.0,0.0,0.0,0.0,0.0,0.0,0.0,0.0,0.0,0.0,0.0,0.0,0.0,0.0,0.0,0.0,0.0,0.0,0.0,0.0,0.0,0.0,0.0,0.0,0.0,0.0,0.0,0.0,0.0,0.0,0.0,0.0,0.0,0.0,0.0,0.0,0.0,0.0,0.0,0.0,0.0,0.0,0.0,0.0,0.0,0.0,0.0,0.0,0.0,0.0,0.0,0.0,0.0,0.0,0.0,0.0,0.0,0.0,0.0,0.0,0.0,0.0,0.0,0.0,0.0,0.0,0.0,0.0,0.0,0.0,0.0,0.0,0.0,0.0,0.0,0.0,0.0,0.0,0.0,0.0,0.0,0.0,0.0,0.0,0.0,0.0,0.0,0.0,0.0,0.0,0.0,0.0,0.0,0.0,0.0,0.0,0.0,0.0,0.0,0.0,0.0,0.0,0.0,0.0,0.0,0.0,0.0,0.0,0.0,0.0,0.0,0.0,0.0,0.0,0.0,0.0,0.0,0.0,0.0,0.0,0.0,0.0,0.0,0.0,0.0,0.0,0.0,0.0,0.0,0.0,0.0,0.0,0.0,0.0,0.0,0.0,0.0,0.0,0.0,0.0,0.0,0.0,0.0,0.0,0.0,0.0,0.0,0.0,0.0,0.0,0.0,0.0,0.0,0.0,0.0,0.0,0.0,0.0,0.0,0.0,0.0,0.0,0.0,0.0,0.0,0.0,0.0,0.0,0.0,0.0,0.0,0.0,0.0,0.0,0.0,0.0,0.0,0.0,0.0,0.0,0.0,0.0,0.0,0.0,0.0,0.0,0.0,0.0,0.0,0.0,0.0,0.0,0.0,0.0,0.0,0.0,0.0,0.0,0.0,0.0,0.0,0.0,0.0,0.0,0.0,0.0,0.0,0.0,0.0,0.0,0.0,0.0,0.0,0.0,0.0,0.0,0.0,0.0,0.0,0.0,0.0,0.0,0.0,0.0,0.0,0.0,0.0,0.0,0.0,0.0,0.0,0.0,0.0,0.0,0.0,0.0,0.0,0.0,0.0,0.0,0.0,0.0,0.0,0.0,0.0,0.0,0.0,0.0,0.0,0.0,0.0,0.0,0.0,0.0,0.0,0.0,0.0,0.0,0.0,0.0,0.0,0.0,0.0,0.0,0.0,0.0,0.0,0.0,0.0,0.0,0.0,0.0,0.0,0.0,0.0,0.0,0.0,0.0,0.0,0.0,0.0,0.0,0.0,0.0,0.0,0.0,0.0,0.0,0.0,0.0,0.0,0.0,0.0,0.0,0.0,0.0,0.0,0.0,0.0,0.0,0.0,0.0,0.0,0.0,0.0,0.0,0.0,0.0,0.0,0.0,0.0,0.0,0.0,0.0,0.0,0.0,0.0,0.0,0.0,0.0,0.0,0.0,0.0,0.0,0.0,0.0,0.0,0.0,0.0,0.0,0.0,0.0,0.0,0.0,0.0,0.0,0.0,0.0,0.0,0.0,0.0,0.0,0.0,0.0,0.0,0.0,0.0,0.0,0.0,0.0,0.0,0.0,0.0,0.0,0.0,0.0,0.0,0.0,0.0,0.0,0.0,0.0,0.0,0.0,0.0,0.0,0.0,0.0,0.0,0.0,0.0,0.0,0.0,0.0,0.0,0.0,0.0,0.0,0.0,0.0,0.0,0.0,0.0,0.0,0.0,0.0,0.0,0.0,0.0,0.0,0.0,0.0,0.0,0.0,0.0,0.0,0.0,0.0,0.0,0.0,0.0,0.0,0.0,0.0,0.0,0.0,0.0,0.0,0.0,0.0,0.0,0.0,0.0,0.0,0.0,0.0,0.0,0.0,0.0,0.0,0.0,0.0,0.0,0.0,0.0,0.0,0.0,0.0,0.0,0.0,0.0,0.0,0.0,0.0,0.0,0.0,0.0,0.0,0.0,0.0,0.0,0.0,0.0,0.0,0.0,0.0,0.0,0.0,0.0,0.0,0.0,0.0,0.0,0.0,0.0,0.0,0.0,0.0,0.0,0.0,0.0,0.0,0.0,0.0,0.0,0.0,0.0,0.0,0.0,0.0,0.0,0.0,0.0,0.0,0.0,0.0,0.0,0.0,0.0,0.0,0.0,0.0,0.0,0.0,0.0,0.0,0.0,0.0,0.0,0.0,0.0,0.0,0.0,0.0,0.0,0.0,0.0,0.0,0.0,0.0,0.0,0.0,0.0,0.0,0.0,0.0,0.0,0.0,0.0,0.0,0.0,0.0,0.0,0.0,0.0,0.0,0.0,0.0,0.0,0.0,0.0,0.0,0.0,0.0,0.0,0.0,0.0,0.0,0.0,0.0,0.0,0.0,0.0,0.0,0.0,0.0,0.0,0.0,0.0,0.0,0.0,0.0,0.0,0.0,0.0,0.0,0.0,0.0,0.0,0.0,0.0,0.0,0.0,0.0,0.0,-6.4028,-6.1918,0.0,0.0,0.0,0.0,0.0,0.0,0.0,0.0,0.0,0.0,0.0,0.0,0.0,0.0,0.0,0.0,0.0,0.0,0.0,0.0,0.0,0.0,0.0,-3.9062,-3.9219,-3.9219,-3.9219,0.0,0.0,0.0,0.0,0.0,0.0,0.0,0.0,0.0,-3.9687,-4.0742,-4.25,-4.4531,-4.6758,-4.6055,-4.4375,-4.1992,0.0,0.0,0.0,0.0,0.0,0.0,0.0,0.0,0.0,0.0,0.0,0.0,0.0,0.0,0.0,0.0,0.0,0.0,0.0,0.0,0.0,0.0,0.0,0.0,0.0,0.0,0.0,0.0,0.0,0.0,0.0,0.0,0.0,0.0,0.0,0.0,0.0,0.0,0.0,0.0,0.0,0.0,0.0,0.0,0.0,0.0,0.0,0.0,0.0,0.0,0.0,0.0,0.0,0.0,0.0,0.0,0.0,0.0,0.0,0.0,0.0,0.0,0.0,0.0,0.0,0.0,0.0,0.0,0.0,0.0,-6.9702,-6.684,0.0,0.0,0.0,0.0,0.0,0.0,0.0,0.0,0.0,0.0,0.0,0.0,0.0,0.0,0.0,0.0,0.0,0.0,0.0,0.0,0.0,-3.9219,-4.0039,-4.0234,-4.0351,-4.043,-4.0469,-4.0469,-4.0469,-3.9961,-3.9648,-3.9648,-3.9258,-3.9414,-4.0195,-4.0781,-4.1953,-4.375,-4.625,-4.9062,-5.2187,-5.3398,-5.1641,-4.7422,-4.6094,0.0,0.0,0.0,0.0,0.0,0.0,0.0,0.0,0.0,0.0,0.0,0.0,0.0,0.0,0.0,0.0,0.0,0.0,0.0,0.0,0.0,0.0,0.0,0.0,0.0,0.0,0.0,0.0,0.0,0.0,0.0,0.0,0.0,0.0,0.0,0.0,0.0,0.0,0.0,0.0,0.0,0.0,0.0,0.0,0.0,0.0,0.0,0.0,0.0,0.0,0.0,0.0,0.0,0.0,0.0,0.0,0.0,0.0,0.0,0.0,0.0,0.0,0.0,-7.618,-7.7436,-7.844,-7.9093,-7.9645,-7.9846,-7.5327,-7.2364,-7.0606,-6.8949,0.0,0.0,0.0,0.0,0.0,0.0,0.0,0.0,0.0,0.0,0.0,0.0,0.0,0.0,0.0,0.0,0.0,0.0,0.0,-4.0469,-4.0937,-4.1641,-4.2226,-4.2617,-4.2656,-4.2656,-4.2656,-4.1914,-4.1445,-4.1445,-4.1055,-4.1055,-4.1523,-4.2695,-4.4297,-4.6406,-5.1914,-5.5586,-5.7539,-5.8437,-5.832,-5.7109,-5.2148,-4.9023,-4.7383,0.0,0.0,0.0,0.0,0.0,0.0,0.0,0.0,0.0,0.0,0.0,0.0,0.0,0.0,0.0,0.0,0.0,0.0,0.0,0.0,0.0,0.0,0.0,0.0,0.0,0.0,0.0,0.0,0.0,0.0,0.0,0.0,0.0,0.0,0.0,0.0,0.0,0.0,0.0,0.0,0.0,-6.1035,-6.2058,0.0,0.0,0.0,0.0,0.0,0.0,0.0,0.0,0.0,0.0,0.0,0.0,0.0,-7.3067,-7.4222,-7.6431,-7.7888,-7.8641,-7.9796,-8.07,-8.1302,-8.2357,-8.2859,-8.296,-8.2658,0.0,-7.5778,-7.4121,0.0,0.0,0.0,0.0,0.0,0.0,0.0,0.0,0.0,0.0,0.0,0.0,0.0,0.0,0.0,0.0,0.0,0.0,0.0,0.0,0.0,-4.4453,-4.5234,-4.5898,-4.5976,-4.5742,-4.5273,-4.4453,-4.375,-4.3281,-4.3086,-4.3281,-4.3945,-4.5703,-4.8711,-5.3086,-5.7422,-6.0312,-6.1836,-6.2656,-6.2812,-6.2305,-5.957,-5.6211,-5.2461,-5.0937,0.0,0.0,0.0,0.0,0.0,0.0,0.0,0.0,0.0,0.0,0.0,0.0,0.0,0.0,0.0,0.0,0.0,0.0,0.0,0.0,0.0,0.0,0.0,0.0,0.0,0.0,0.0,0.0,0.0,0.0,0.0,0.0,0.0,0.0,0.0,0.0,0.0,0.0,0.0,-6.1491,-6.4562,-6.5936,-6.5584,-6.4731,0.0,0.0,0.0,0.0,0.0,0.0,0.0,0.0,0.0,-7.3217,-7.5578,-7.7536,-7.8942,-8.0499,-8.1754,-8.2658,-8.3763,-8.4416,-8.4617,-8.542,-8.5822,-8.5822,-8.6073,-8.4767,-8.2206,-7.9344,-7.6682,-7.4222,0.0,0.0,0.0,0.0,-7.0757,-7.2163,0.0,0.0,0.0,0.0,0.0,0.0,0.0,0.0,0.0,0.0,0.0,0.0,-4.625,-4.7539,-4.8672,-4.9766,-4.9883,-4.9531,-4.8789,-4.7656,-4.6562,-4.5586,-4.5312,-4.5664,-4.6641,-4.9726,-5.3906,-5.918,-6.207,-6.4219,-6.5469,-6.6211,-6.6406,-6.6094,-6.5742,-6.2617,-5.7461,-5.5742,-5.3516,-5.0859,0.0,0.0,0.0,0.0,0.0,0.0,0.0,0.0,0.0,0.0,0.0,0.0,0.0,0.0,0.0,0.0,0.0,0.0,0.0,0.0,0.0,0.0,0.0,0.0,0.0,0.0,0.0,0.0,0.0,0.0,0.0,0.0,0.0,0.0,0.0,0.0,0.0,-6.532,-6.7643,-6.9451,-6.92,-6.8497,0.0,0.0,0.0,0.0,0.0,0.0,-7.3519,-7.5327,-7.6933,-7.8289,-8.0147,-8.1704,-8.306,-8.4064,-8.4968,-8.5822,-8.6776,-8.7278,-8.7429,-8.8032,-8.8333,-8.8433,-8.8433,-8.8182,-8.7529,-8.3813,-8.1051,-7.8992,-7.7235,-7.5879,-7.4875,-7.5025,-7.5979,-7.7285,0.0,0.0,0.0,0.0,0.0,0.0,0.0,0.0,0.0,0.0,0.0,-4.6328,-4.8516,-5.0586,-5.25,-5.4219,-5.4375,-5.418,-5.3711,-5.1719,-4.9961,-4.8672,-4.7851,-4.8008,-4.9297,-5.5039,-5.957,-6.2734,-6.5351,-6.7305,-6.8594,-6.9023,-6.9219,-6.9219,-6.9219,-6.6523,-6.1914,-6.0234,-5.7969,-5.5351,-5.2305,0.0,0.0,0.0,0.0,0.0,0.0,0.0,0.0,0.0,0.0,0.0,0.0,0.0,0.0,0.0,0.0,0.0,0.0,0.0,0.0,0.0,0.0,0.0,0.0,0.0,0.0,0.0,0.0,0.0,0.0,0.0,0.0,0.0,0.0,0.0,0.0,0.0,0.0,-7.2263,-7.2012,0.0,0.0,0.0,0.0,-7.3971,-7.5578,-7.6984,-7.8139,-8.0248,-8.1704,-8.2357,-8.4516,-8.5922,-8.6525,-8.7128,-8.7429,-8.7529,-8.8132,-8.8634,-8.9187,-8.9689,-9.0291,-9.0743,-9.0743,-9.0743,-9.0442,-8.7128,-8.4767,-8.316,-8.2508,-8.1604,-8.07,-8.1152,-8.1754,-8.2457,0.0,0.0,0.0,-3.8945,-3.9101,-3.9492,-4.0351,-4.1094,-4.2383,-4.4609,-4.6562,-4.8984,-5.2266,-5.4531,-5.6484,-5.8242,-5.8125,-5.7422,-5.6172,-5.4062,-5.2187,-5.0586,-5.0508,-5.2109,-5.5664,-5.9765,-6.332,-6.6328,-6.8359,-6.9844,-7.0859,-7.1015,-7.1055,-7.1055,-7.1055,-7.0,-6.7969,-6.5117,-6.2461,-5.9765,-5.6484,-5.3359,0.0,0.0,0.0,0.0,0.0,0.0,0.0,0.0,0.0,0.0,0.0,0.0,0.0,0.0,0.0,0.0,0.0,0.0,0.0,0.0,0.0,0.0,0.0,0.0,0.0,0.0,0.0,0.0,0.0,0.0,0.0,0.0,0.0,0.0,0.0,0.0,0.0,-7.618,-7.6281,0.0,-7.6682,-7.7536,-7.839,-7.9143,-8.0398,-8.1604,-8.2708,-8.3864,-8.4918,-8.5822,-8.6977,-8.8032,-8.8935,-8.9086,-8.9387,-8.9739,-8.994,-9.0191,-9.0342,-9.0542,-9.0743,-9.0944,-9.0944,-9.0944,-9.0844,-8.9689,-8.8433,-8.7128,-8.6174,-8.5621,-8.5219,-8.5069,-8.5621,-8.6475,0.0,-3.8594,0.0,-3.9141,-3.9336,-3.9844,-4.0976,-4.1914,-4.3437,-4.6172,-4.8516,-5.1328,-5.4922,-5.75,-5.9648,-6.1367,-6.125,-6.043,-5.8828,-5.6719,-5.4765,-5.3008,-5.3945,-5.6484,-6.082,-6.375,-6.6523,-6.9297,-7.082,-7.1953,-7.2695,-7.2812,-7.2851,-7.2851,-7.2851,-7.2617,-7.207,-6.9648,-6.6875,-6.3867,-6.0664,-5.7578,-5.4531,0.0,0.0,0.0,0.0,0.0,0.0,0.0,0.0,0.0,0.0,0.0,0.0,0.0,0.0,0.0,0.0,0.0,0.0,0.0,0.0,0.0,0.0,0.0,0.0,0.0,0.0,0.0,0.0,0.0,0.0,0.0,0.0,0.0,0.0,-7.409,-7.7034,-7.9595,-8.0097,-8.0449,-8.1001,-8.1905,-8.2658,-8.316,-8.4265,-8.527,-8.6224,-8.6977,-8.768,-8.8433,-8.9036,-8.9639,-9.0342,-9.0392,-9.0593,-9.0944,-9.0944,-9.1045,-9.1195,-9.1195,-9.1296,-9.1446,-9.1446,-9.1446,-9.1446,-9.1446,-9.0944,-9.004,-8.9086,-8.8684,-8.8684,-8.8333,-8.8634,-8.9287,0.0,-3.8594,-3.8711,-3.9141,-3.9609,-4.0195,-4.1094,-4.2656,-4.4531,-4.6719,-5.0039,-5.332,-5.6367,-5.9414,-6.1875,-6.3633,-6.375,-6.3164,-6.1836,-5.9765,-5.7851,-5.6172,-5.8203,-6.0976,-6.4375,-6.6992,-6.9336,-7.1445,-7.2734,-7.3594,-7.4023,-7.4492,-7.4648,-7.4648,-7.4648,-7.4414,-7.4023,-7.3555,-7.1172,-6.7539,-6.4883,-6.207,-5.9023,0.0,0.0,0.0,0.0,0.0,0.0,0.0,0.0,0.0,0.0,0.0,0.0,0.0,0.0,0.0,0.0,0.0,0.0,0.0,0.0,0.0,0.0,0.0,0.0,0.0,0.0,0.0,0.0,0.0,0.0,0.0,0.0,0.0,-7.4834,-7.7528,-8.0348,-8.2558,-8.3261,-8.3864,-8.4416,-8.5019,-8.5571,-8.6073,-8.7128,-8.7931,-8.8534,-8.9538,-9.0141,-9.0191,-9.0693,-9.0994,-9.0994,-9.1045,-9.1045,-9.0994,-9.0994,-9.1296,-9.1798,-9.1798,-9.2099,-9.2551,-9.2551,-9.2551,-9.2551,-9.2551,-9.225,-9.1748,-9.1195,-9.0944,-9.0944,-9.0944,-9.0944,-9.0994,-3.8594,-3.8594,-3.8828,-3.957,-3.9805,-4.0391,-4.1875,-4.3555,-4.5664,-4.8437,-5.207,-5.5703,-5.8984,-6.1797,-6.3984,-6.539,-6.4648,-6.3555,-6.2265,-6.0469,-5.9648,-6.0117,-6.2187,-6.4648,-6.75,-6.9805,-7.1719,-7.3281,-7.4258,-7.4922,-7.5351,-7.5742,-7.5976,-7.5976,-7.5976,-7.5937,-7.5742,-7.5,-7.3711,-7.1953,-6.8711,-6.5781,-6.3047,0.0,0.0,0.0,0.0,0.0,0.0,0.0,0.0,0.0,0.0,0.0,0.0,0.0,0.0,0.0,0.0,0.0,0.0,0.0,0.0,0.0,0.0,0.0,0.0,0.0,0.0,0.0,0.0,0.0,0.0,0.0,-7.5511,-7.8814,-7.8814,-8.1129,-8.3612,-8.542,-8.6123,-8.6676,-8.7278,-8.8182,-8.8835,-8.8935,-8.9588,-9.009,-9.0241,-9.0542,-9.0894,-9.1296,-9.1848,-9.23,-9.2702,-9.3104,-9.3104,-9.2702,-9.2702,-9.2551,-9.2401,-9.2401,-9.2401,-9.2551,-9.2551,-9.2551,-9.2551,-9.2551,-9.225,-9.1798,-9.1647,-9.1547,-9.1547,-9.1547,-9.1798,-9.2149,-3.8594,-3.8594,-3.8867,-3.9726,-3.9883,-4.0469,-4.2148,-4.4062,-4.6328,-4.9141,-5.3203,-5.7031,-6.0078,-6.3086,-6.5234,-6.6172,-6.5508,-6.457,-6.3281,-6.207,-6.207,-6.3555,-6.5508,-6.789,-7.0664,-7.2109,-7.3555,-7.5,-7.5703,-7.625,-7.668,-7.7148,-7.7305,-7.7305,-7.7305,-7.7226,-7.7031,-7.6328,-7.5586,-7.4531,-7.2187,-6.9453,-6.6601,-6.4531,-6.2422,-6.0351,-5.8789,-5.7226,-5.582,-5.4961,0.0,0.0,0.0,0.0,0.0,0.0,0.0,0.0,0.0,0.0,0.0,0.0,0.0,0.0,0.0,0.0,0.0,0.0,0.0,0.0,0.0,0.0,0.0,0.0,-7.9074,-8.241,-8.3527,-8.4998,-8.6525,-8.768,-8.8534,-8.9136,-8.9438,-9.009,-9.0442,-9.0442,-9.0944,-9.1396,-9.1597,-9.1848,-9.22,-9.2802,-9.3104,-9.3405,-9.3706,-9.4058,-9.3957,-9.3405,-9.3405,-9.3104,-9.2551,-9.2551,-9.2551,-9.2551,-9.2551,-9.2551,-9.2551,-9.2551,-9.225,-9.1798,0.0,0.0,0.0,0.0,-9.23,-9.2551,-3.8594,-3.8633,-3.8906,-3.9766,-3.9922,-4.0508,-4.2187,-4.4297,-4.6601,-4.918,-5.3594,-5.75,-6.0078,-6.3398,-6.5586,-6.6055,-6.6055,-6.5547,-6.4453,-6.414,-6.4844,-6.6562,-6.8359,-7.0625,-7.3398,-7.4023,-7.5078,-7.6562,-7.707,-7.7539,-7.789,-7.8398,-7.8594,-7.8594,-7.8594,-7.8398,-7.8008,-7.7539,-7.6836,-7.5937,-7.5195,-7.2851,-6.9726,-6.8398,-6.668,-6.4765,-6.3906,-6.25,-6.0898,-6.0117,0.0,0.0,0.0,0.0,0.0,0.0,0.0,0.0,0.0,0.0,0.0,0.0,0.0,0.0,0.0,0.0,0.0,0.0,0.0,0.0,0.0,0.0,0.0,0.0,-8.2223,-8.5775,-8.8232,-8.8735,-8.8986,-8.9438,-9.0392,-9.1045,-9.1045,-9.1095,-9.1095,-9.1095,-9.1597,-9.2049,-9.2551,-9.3053,0.0,0.0,0.0,-9.4208,-9.4108,-9.4208,-9.3957,-9.3405,-9.3405,-9.3104,-9.2551,-9.2551,-9.2551,-9.2551,-9.2551,-9.2551,-9.2551,-9.2551,-9.23,-9.1898,-9.1798,-9.1798,-9.1848,-9.2401,-9.2551,-9.2551,-3.8633,-3.8867,-3.9258,-3.9805,-4.0195,-4.0859,-4.2226,-4.4297,-4.6601,-4.918,-5.3359,-5.7031,-5.9648,-6.2422,-6.4375,-6.5117,-6.4883,-6.4726,-6.4805,-6.5703,-6.7148,-6.9219,-7.1367,-7.3047,-7.4297,-7.582,-7.6719,-7.707,-7.7851,-7.8242,-7.8359,-7.914,-7.9492,-7.9492,-7.9492,-7.9453,-7.9297,-7.8515,-7.7734,-7.6914,-7.6758,-7.5039,-7.2461,-7.1133,-6.9726,-6.8359,-6.75,-6.6055,-6.4492,-6.4023,-6.293,-6.1562,-6.0273,-5.8476,0.0,0.0,0.0,0.0,0.0,0.0,0.0,0.0,0.0,0.0,0.0,0.0,0.0,0.0,0.0,0.0,0.0,0.0,0.0,-8.115,-8.5026,-8.8132,-8.9036,-9.0291,-9.1045,-9.0693,-9.1195,-9.1647,-9.1647,-9.1999,-9.225,-9.225,-9.2401,-9.2501,-9.2551,-9.3053,-9.3254,-9.2903,-9.3756,-9.4007,-9.3556,-9.3957,-9.3957,-9.3405,-9.3405,0.0,-9.2551,-9.2551,-9.2551,-9.2551,-9.2551,-9.2551,-9.2551,-9.2551,-9.2501,-9.2401,-9.1949,-9.1798,-9.1848,-9.2401,-9.2551,-9.2551,-3.9258,-3.9219,-3.9336,-3.9805,-4.0234,-4.0937,-4.2226,-4.4101,-4.6289,-4.8867,-5.2578,-5.5976,-5.8555,-6.1133,-6.3047,-6.3906,-6.4609,-6.543,-6.6484,-6.7773,-6.9453,-7.1601,-7.3164,-7.4453,-7.5508,-7.6601,-7.7422,-7.7851,-7.8476,-7.8984,-7.9453,-7.9844,-8.0156,-8.0351,-8.0351,-8.0351,-8.0312,-7.9453,-7.8867,-7.8398,-7.7773,-7.6601,-7.5117,-7.3555,-7.2344,-7.1289,-7.039,-6.9258,-6.8047,-6.7422,-6.6484,-6.539,-6.4062,-6.2344,-6.0351,0.0,0.0,0.0,0.0,0.0,0.0,0.0,0.0,0.0,0.0,0.0,0.0,0.0,0.0,-6.8934,-7.2818,0.0,-8.1364,-8.3926,-8.7144,-8.9588,-9.0442,-9.1497,-9.1999,-9.1446,-9.2099,-9.2601,-9.2601,-9.2802,-9.3003,-9.3003,-9.2752,-9.2652,-9.3003,-9.3254,-9.3405,-9.3405,-9.3957,-9.4058,-9.3807,-9.4058,-9.3957,-9.3405,-9.3405,-9.3104,-9.2551,-9.2551,-9.2551,-9.2551,-9.2903,-9.3003,-9.3003,-9.3304,-9.3405,-9.3405,-9.3104,-9.2802,-9.2652,-9.3204,-9.3405,-9.3405,-3.9922,-3.9648,-3.957,-3.9961,-4.043,-4.1133,-4.2266,-4.3906,-4.5859,-4.8164,-5.1367,-5.4336,-5.6719,-5.9219,-6.125,-6.2656,-6.4414,-6.6289,-6.8203,-6.957,-7.1289,-7.3476,-7.4375,-7.5351,-7.6484,-7.7148,-7.7773,-7.8476,-7.8984,-7.9609,-8.039,-8.0429,-8.0703,-8.1133,-8.1133,-8.1133,-8.1054,-8.0312,-7.9883,-7.9609,-7.8633,-7.7812,-7.7148,-7.5703,-7.4492,-7.3437,-7.2578,-7.1719,-7.082,-7.0078,-6.9336,-6.8476,-6.7305,-6.5742,-6.3867,-6.1484,-5.9453,0.0,0.0,0.0,0.0,0.0,0.0,0.0,0.0,-6.182,-6.3883,-6.7766,-7.0773,-7.3718,-7.728,-8.1214,-8.4646,-8.6321,-8.8688,-9.0794,-9.1798,-9.2401,-9.2652,-9.23,-9.3053,-9.3505,-9.3405,-9.3405,-9.3304,-9.3254,-9.2802,-9.2752,-9.3204,-9.3304,-9.3556,-9.3907,-9.4007,-9.4007,-9.3907,-9.3907,-9.3656,-9.3254,-9.3254,-9.3053,-9.2752,-9.2752,-9.2802,-9.2903,-9.3405,-9.3556,-9.3556,-9.4158,-9.4409,-9.4409,-9.451,-9.4309,-9.3907,-9.4158,-9.4208,-9.4208,-3.9961,-4.0156,-4.0391,-4.043,-4.1133,-4.1836,-4.2344,-4.3906,-4.5547,-4.6953,-4.9492,-5.1836,-5.3672,-5.582,-5.8437,-6.1601,-6.3789,-6.6094,-6.8594,-7.0312,-7.2187,-7.4375,-7.5273,-7.5976,-7.6484,-7.7695,-7.8359,-7.8476,-7.9258,-7.9922,-8.039,-8.0781,-8.1172,-8.164,-8.164,-8.164,-8.1601,-8.1054,-8.0429,-7.9726,-7.957,-7.8789,-7.7695,-7.7148,-7.5859,-7.4375,-7.3476,-7.2617,-7.1758,-7.1328,-7.0859,-7.0312,-6.9805,-6.8203,-6.6211,-6.4765,-6.2578,-6.0508,-5.9922,-6.0351,-6.1015,-6.1562,-6.1992,-6.2814,0.0,-6.6148,-6.8319,-7.1625,-7.4727,-7.8077,-8.1475,-8.4369,-8.6749,-8.8567,-9.037,-9.1798,-9.2401,-9.2953,-9.3455,-9.3907,-9.4058,-9.3957,-9.3455,-9.3405,-9.3204,-9.2702,-9.2601,-9.2601,-9.2652,-9.3154,-9.3204,-9.2752,-9.3254,-9.3254,-9.2752,-9.2752,-9.2752,-9.2652,-9.2652,-9.2903,-9.3304,-9.3304,-9.3556,-9.4058,-9.4108,-9.4108,-9.4158,-9.4761,-9.5012,-9.5012,-9.5514,-9.5665,-9.5514,-9.456,-9.4208,-9.4208,-4.0742,-4.0781,-4.0898,-4.0898,-4.1406,-4.1953,-4.2383,-4.3476,-4.4805,-4.6367,-4.793,-4.9687,-5.1641,-5.4453,-5.7383,-6.0351,-6.2812,-6.5508,-6.8594,-7.043,-7.2344,-7.4492,-7.539,-7.6055,-7.6484,-7.7773,-7.8476,-7.8476,-7.9336,-8.0078,-8.0742,-8.0937,-8.1406,-8.2031,-8.2031,-8.2031,-8.2031,-8.1289,-8.0781,-8.0429,-7.9922,-7.9101,-7.8164,-7.7695,-7.6484,-7.4844,-7.4023,-7.3164,0.0,-7.1601,-7.125,-7.0976,-7.0312,-6.9101,-6.7734,-6.6445,-6.4414,-6.2578,-6.2344,-6.3125,-6.414,-6.4805,-6.5547,-6.6461,-6.8265,-6.9751,-7.1787,-7.5383,-7.819,-8.1156,-8.4262,-8.6722,-8.8891,-9.0045,-9.1519,-9.2802,-9.3003,-9.3556,-9.3957,-9.4208,-9.4208,-9.4108,-9.3907,-9.3556,-9.3304,-9.3053,-9.2752,-9.2551,-9.2551,-9.2802,-9.2953,-9.3053,-9.3304,-9.3455,-9.3556,-9.3556,-9.3556,-9.3556,-9.3556,-9.3656,-9.3907,-9.3907,-9.4158,-9.4761,-9.5062,-9.5414,-9.5715,-9.6317,-9.6518,-9.6569,-9.682,-9.692,-9.6769,-9.5614,-9.5213,-9.5213,-4.125,-4.1172,-4.1172,-4.1172,-4.1601,-4.207,-4.2383,-4.3281,-4.4336,-4.5625,-4.6641,-4.8047,-5.0234,-5.3086,-5.5898,-5.8515,-6.1211,-6.4297,-6.789,-6.9805,-7.1875,-7.4297,-7.5117,-7.582,-7.6484,-7.7539,-7.8164,-7.8281,-7.914,-7.9922,-8.0664,-8.0781,-8.125,-8.1992,-8.1992,-8.1992,-8.1914,-8.1289,-8.0937,-8.0781,-8.0156,-7.9336,-7.8398,-7.8008,-7.668,-7.4922,-7.4062,-7.3164,-7.2187,-7.1328,-7.0976,-7.0742,-7.0078,-6.9336,-6.8437,-6.7383,-6.5781,-6.4453,-6.4648,-6.5664,-6.6875,-6.7734,-6.8594,-6.9598,-7.1603,-7.297,-7.4821,-7.8518,-8.1078,-8.3438,-8.6075,-8.8319,-9.0067,-9.118,-9.2511,-9.3455,-9.3556,-9.3957,-9.4208,-9.4208,-9.4058,-9.3957,-9.3957,-9.3656,-9.3304,-9.3154,-9.2802,-9.2652,-9.2802,-9.2802,-9.3053,-9.3606,-9.3656,-9.3807,-9.4208,-9.4208,-9.4208,-9.4208,-9.4208,-9.4309,-9.4459,-9.4811,-9.5213,-9.5815,-9.6167,-9.6569,-9.697,-9.7422,-9.7573,-9.7573,-9.7573,-9.7573,-9.7523,-9.6669,-9.6368,-9.6418,-4.125,-4.1172,-4.1172,-4.1172,-4.1875,-4.2422,-4.2422,-4.3555,-4.4414,-4.4453,-4.5547,-4.7148,-4.9336,-5.1133,-5.3242,-5.582,-5.8828,-6.2187,-6.6055,-6.8281,-7.082,-7.3867,-7.4414,-7.5234,-7.6484,-7.6953,-7.7422,-7.7812,-7.8711,-7.9336,-7.9765,-8.0195,-8.0625,-8.1054,-8.1054,-8.1054,-8.1054,-8.1015,-8.0781,-8.039,-8.039,-7.9609,-7.8398,-7.8008,-7.6484,-7.4492,-7.3672,-7.25,-7.125,-7.043,-6.9844,-6.9492,-6.9453,-6.8867,-6.8125,-6.7656,-6.6836,-6.6328,-6.7148,-6.8359,-6.957,-7.039,-7.125,-7.2264,-7.4329,-7.5762,-7.7641,-8.0557,-8.281,-8.5114,-8.7432,-8.8805,-9.0457,-9.226,-9.3053,-9.3556,-9.4108,-9.4208,-9.4208,-9.4208,-9.3756,-9.3405,-9.3405,-9.3405,-9.3154,-9.2652,-9.2551,-9.2802,-9.3304,-9.3405,-9.3656,-9.4158,-9.4208,-9.4208,-9.4208,-9.4208,-9.4208,-9.4208,-9.4208,-9.451,-9.5062,-9.6167,-9.697,-9.7523,-9.7472,-9.7573,-9.7573,-9.7573,-9.7573,-9.7573,-9.7573,-9.7573,-9.7573,-9.7523,-9.7523,-9.7523,-4.168,-4.1367,-4.1172,-4.1172,-4.1641,-4.2109,-4.2383,-4.3281,-4.4062,-4.4375,-4.5508,0.0,0.0,0.0,0.0,0.0,-5.6562,-5.9687,-6.3008,-6.582,-6.8398,-7.0859,-7.2461,-7.3672,-7.4375,-7.539,-7.6094,-7.6523,-7.7422,-7.8359,-7.9336,-7.9726,-8.0312,-8.1015,-8.1015,-8.1015,-8.0937,-8.0429,-8.0078,-7.9844,-7.9023,-7.8242,-7.7539,-7.6797,-7.5195,-7.3203,0.0,-7.1367,-7.0312,-6.9219,-6.8945,-6.8945,-6.8359,-6.8164,-6.8086,-6.7305,-6.7305,-6.7734,-6.8594,-6.9765,-7.0976,-7.1836,-7.2461,-7.3205,-7.497,-7.6374,-7.837,-8.1258,-8.3158,-8.532,-8.7443,-8.8754,-8.9814,-9.1208,-9.225,-9.3053,-9.3556,-9.3656,-9.3656,-9.3656,-9.3154,-9.3003,-9.3405,-9.3053,-9.2903,-9.3104,-9.3154,-9.3355,-9.3907,-9.3957,-9.4208,-9.4761,-9.4811,-9.4962,-9.5313,-9.5313,-9.5313,-9.5313,-9.5715,-9.6167,-9.6769,-9.7121,-9.7422,-9.7623,-9.7924,-9.8075,-9.8125,-9.8527,-9.8678,-9.8678,-9.8678,-9.8678,-9.8678,-9.8678,-9.8678,-9.8527,-4.1914,-4.1601,-4.1367,-4.1211,-4.1523,0.0,0.0,0.0,0.0,0.0,0.0,0.0,0.0,0.0,0.0,0.0,0.0,-5.6953,-6.0117,-6.3047,-6.5703,-6.8203,-7.0195,-7.164,-7.2383,-7.332,-7.414,-7.4726,-7.5625,-7.6601,-7.7695,-7.8281,-7.8984,-7.9609,-7.9609,-7.9609,-7.9609,-7.9023,-7.875,-7.8515,-7.7695,-7.6914,-7.6172,-7.5273,-7.3633,0.0,-7.039,-6.9453,-6.8633,-6.8125,-6.8008,-6.8047,-6.7617,-6.7851,-6.8125,-6.7656,-6.8203,-6.9062,-6.9922,-7.1094,-7.2226,-7.2969,-7.3715,-7.4346,-7.5692,-7.7616,-7.9498,-8.1652,-8.3401,-8.5168,-8.6915,-8.7769,-8.8765,-9.0307,-9.1547,-9.2551,-9.3304,-9.3405,-9.3304,-9.3154,-9.2953,-9.3003,-9.3405,-9.3254,-9.3304,-9.3656,-9.3706,-9.3907,-9.451,-9.4711,-9.5062,-9.5665,-9.5866,-9.6167,-9.6518,-9.6518,-9.6518,-9.6468,-9.687,-9.7322,-9.7874,-9.7824,-9.7975,-9.8176,-9.8527,-9.8678,-9.8678,-9.9029,-9.918,-9.918,-9.918,-9.918,-9.918,-9.918,-9.918,-9.9079,-4.2031,-4.1836,-4.168,0.0,0.0,0.0,0.0,0.0,0.0,0.0,0.0,0.0,0.0,0.0,0.0,0.0,0.0,0.0,-5.7383,-6.0,-6.2773,-6.5742,-6.7578,-6.9101,-7.039,-7.0859,-7.1523,-7.2461,-7.332,-7.418,-7.5039,-7.5937,-7.6601,-7.707,-7.707,-7.707,-7.707,-7.7031,-7.6797,-7.6328,-7.6289,-7.5508,-7.4297,-7.3437,-7.1836,-6.9726,-6.8008,-6.6875,-6.625,-6.707,-6.7148,-6.6992,-6.7422,-6.789,-6.8359,-6.875,-6.9492,-7.0312,-7.125,-7.2383,-7.3476,-7.3906,-7.4897,-7.5975,-7.6574,-7.895,-8.1259,-8.2002,-8.3575,-8.4781,-8.5319,-8.604,-8.7443,-8.9689,-9.0944,-9.2049,-9.3154,-9.3304,-9.3154,-9.2652,-9.3053,-9.3405,-9.3455,-9.3957,-9.4309,-9.4309,-9.4309,-9.456,-9.5162,-9.5665,-9.6217,-9.6719,-9.7322,-9.7573,-9.7573,-9.7573,-9.7573,-9.7573,-9.7573,-9.7924,-9.8427,-9.8427,-9.8678,-9.918,-9.918,-9.918,-9.918,-9.918,-9.918,-9.918,-9.918,-9.918,-9.918,-9.918,-9.918,-9.918,0.0,0.0,0.0,0.0,0.0,0.0,0.0,0.0,0.0,0.0,0.0,0.0,0.0,0.0,0.0,0.0,0.0,0.0,-5.3867,-5.6445,-5.8945,-6.1328,-6.3398,-6.5117,-6.6367,-6.7148,-6.8125,-6.9336,-7.0195,-7.1367,-7.2851,-7.3711,-7.4531,-7.5234,-7.5234,-7.5234,-7.5234,-7.4922,-7.4531,-7.4062,-7.3437,-7.2734,-7.207,-7.0898,-6.9492,-6.8047,-6.6914,-6.582,-6.4883,-6.539,-6.6367,-6.75,-6.8242,-6.875,-6.9258,-7.0039,-7.0625,-7.1289,-7.25,-7.3555,-7.4375,-7.4805,-7.5527,-7.6452,-7.7897,-7.925,-8.0626,-8.2686,-8.3504,-8.389,-8.4952,-8.5712,-8.6596,-8.8132,-8.9187,-9.0442,-9.1999,-9.22,-9.2451,-9.3154,-9.3304,-9.3706,-9.456,-9.4761,-9.5213,-9.6066,-9.5313,-9.5313,-9.6267,-9.6468,-9.682,-9.7322,-9.7523,-9.7573,-9.7573,-9.7573,-9.7724,-9.8176,-9.8176,-9.8427,-9.8979,-9.8979,-9.9029,-9.918,-9.918,-9.918,-9.918,-9.918,-9.918,-9.918,-9.918,-9.918,-9.918,-9.918,-9.918,-9.918,0.0,0.0,0.0,0.0,0.0,0.0,0.0,0.0,0.0,0.0,0.0,0.0,0.0,0.0,0.0,0.0,0.0,0.0,0.0,-5.3672,-5.5859,-5.8008,-6.0195,-6.1953,-6.3203,-6.4297,-6.5351,-6.6523,-6.7305,-6.8515,-7.0039,-7.0742,-7.1523,-7.2344,-7.2344,-7.2344,-7.2344,-7.2109,-7.1758,0.0,0.0,-7.0117,-6.9297,-6.8359,-6.7226,-6.5976,-6.5117,-6.4609,-6.4414,-6.5234,-6.6797,-6.8515,-6.9609,-7.0195,-7.0703,-7.1367,-7.1875,-7.2461,-7.3555,-7.4375,-7.4961,-7.5959,-7.6487,-7.7175,-7.8891,-7.9963,-8.117,-8.2587,-8.3008,-8.3409,-8.3717,-8.4206,-8.4975,-8.6726,-8.7831,-8.9187,-9.1145,-9.1647,-9.22,-9.3254,-9.3606,-9.4108,-9.5012,-9.5514,-9.6066,-9.6669,-9.6167,-9.6167,-9.7071,-9.7322,-9.7573,-9.7924,-9.8176,-9.8276,-9.8276,-9.8276,-9.8427,-9.8728,-9.8728,-9.8879,-9.918,-9.918,-9.918,-9.918,-9.918,-9.918,-9.918,-9.918,-9.918,-9.918,-9.918,-9.918,-9.918,-9.918,-9.918,-9.923,0.0,0.0,0.0,0.0,0.0,0.0,0.0,0.0,0.0,-4.4023,-4.4258,-4.4648,-4.5078,-4.5469,0.0,0.0,0.0,0.0,0.0,0.0,-5.3164,-5.5156,-5.7265,-5.9023,-6.0273,-6.1601,-6.2734,-6.3711,-6.457,-6.5664,-6.6914,-6.7422,-6.8086,-6.8867,-6.8945,-6.8945,-6.8945,-6.8945,-6.8711,-6.8281,-6.8242,-6.75,-6.6406,0.0,-6.5,-6.3867,-6.3164,-6.3437,-6.4414,-6.582,-6.7695,-6.9687,-7.0976,-7.1719,-7.2187,-7.2695,-7.3086,-7.3555,-7.4375,-7.4922,-7.5675,-7.6639,-7.7293,-7.8299,-7.975,-8.1109,-8.1981,-8.2114,-8.2566,-8.2726,-8.2647,-8.2709,-8.3361,-8.5521,-8.6776,-8.8283,-9.0492,-9.1396,-9.22,-9.3405,-9.4007,-9.456,-9.5263,-9.6167,-9.682,-9.692,-9.697,-9.7171,-9.7673,-9.8125,-9.8376,-9.8477,-9.8929,-9.918,-9.918,-9.918,-9.918,-9.918,-9.918,-9.918,-9.918,-9.918,-9.918,-9.918,-9.918,-9.918,-9.918,-9.918,-9.918,-9.918,-9.918,-9.918,-9.918,-9.918,-9.918,-9.9438,0.0,0.0,0.0,0.0,0.0,0.0,0.0,0.0,0.0,0.0,-4.5078,-4.5078,-4.5508,-4.5625,0.0,0.0,0.0,0.0,0.0,0.0,0.0,-5.1641,-5.3398,-5.4961,-5.6289,-5.7578,-5.8984,-6.0625,-6.1445,-6.2539,-6.3828,-6.4609,-6.5234,-6.5742,-6.6094,-6.6289,-6.6289,-6.6289,-6.5976,-6.5586,-6.5234,-6.4765,-6.414,-6.3359,-6.2656,0.0,-6.1992,-6.2734,-6.4101,-6.6094,-6.7969,-6.9687,-7.0976,-7.1953,-7.2734,-7.3515,-7.3789,-7.3945,-7.4492,-7.5156,-7.6067,-7.6718,-7.806,-7.9309,-8.1039,-8.1604,-8.1854,-8.2798,-8.2416,-8.1929,-8.24,-8.2677,-8.3261,-8.4968,-8.6174,-8.768,-8.994,-9.1145,-9.235,-9.3907,-9.456,-9.5313,-9.6317,-9.6619,-9.7071,-9.8025,-9.8075,-9.8125,-9.8226,-9.8276,-9.8577,-9.9029,-9.913,-9.918,-9.918,-9.918,-9.918,-9.918,-9.918,-9.918,-9.918,-9.918,-9.918,-9.918,-9.918,-9.918,-9.918,-9.918,-9.918,-9.918,-9.918,-9.918,-9.918,-9.918,-9.9438,-10.0208,0.0,0.0,0.0,0.0,0.0,0.0,0.0,-4.543,-4.5937,-4.6562,-4.6484,-4.625,-4.6016,-4.6016,-4.6094,0.0,0.0,0.0,0.0,0.0,0.0,-5.0078,-5.1562,-5.2969,-5.4258,-5.5781,-5.7187,-5.8476,0.0,-6.0312,-6.1367,-6.1758,-6.2305,-6.293,-6.3164,-6.3398,-6.3555,-6.3789,-6.3672,-6.3281,-6.3281,-6.293,-6.2305,-6.1836,-6.1445,0.0,-6.1328,-6.207,-6.3281,-6.5234,-6.7127,-6.9033,-7.0937,-7.2305,-7.3164,-7.3789,-7.3984,-7.4101,-7.4765,-7.5234,-7.591,-7.7487,-7.8424,-7.9623,-8.1927,-8.1958,-8.1933,-8.2838,-8.2296,-8.1738,-8.2074,-8.2178,-8.2759,-8.4466,-8.542,-8.6676,-8.8935,-9.0442,-9.1949,-9.3556,-9.4811,-9.5815,-9.6669,-9.7272,-9.7774,-9.8326,-9.8627,-9.8778,-9.8778,-9.8778,-9.8929,-9.918,-9.918,-9.918,-9.918,-9.918,-9.918,-9.918,-9.918,-9.918,-9.918,-9.918,-9.918,-9.918,-9.918,-9.918,-9.918,-9.918,-9.918,-9.918,-9.918,-9.918,-9.923,-9.9644,-9.9901,-10.0412,0.0,0.0,0.0,0.0,0.0,0.0,0.0,-4.6094,-4.6758,-4.7617,-4.7617,-4.7344,-4.6758,-4.6562,-4.6406,0.0,0.0,0.0,0.0,0.0,0.0,0.0,-5.0234,-5.1445,-5.2656,0.0,0.0,-5.6523,-5.7422,0.0,0.0,0.0,0.0,0.0,-6.0351,-6.0625,-6.1055,-6.1367,-6.1367,0.0,0.0,-6.125,-6.0664,0.0,0.0,0.0,0.0,-6.1445,-6.2461,-6.4383,-6.6041,-6.8121,-7.0725,-7.2457,-7.3166,-7.3754,-7.4028,-7.4264,-7.4726,-7.5078,-7.5999,-7.8178,-7.8828,-7.9723,-8.2501,-8.2516,-8.2088,-8.2992,-8.2402,-8.1785,-8.1746,-8.1892,-8.2257,-8.3713,-8.4617,-8.5872,-8.7981,-8.9789,-9.1547,-9.3204,-9.4911,-9.6167,-9.682,-9.7774,-9.8427,-9.8527,-9.8929,-9.918,-9.918,-9.918,-9.918,-9.918,-9.918,-9.918,-9.918,-9.918,-9.918,-9.918,-9.918,-9.918,-9.918,-9.918,-9.918,-9.918,-9.918,-9.918,-9.918,-9.918,-9.918,-9.918,-9.918,-9.918,-9.918,-9.9951,-10.0412,-10.0973,0.0,0.0,0.0,0.0,0.0,0.0,0.0,-4.6367,-4.7187,-4.8047,-4.7812,-4.7695,-4.8008,-4.7344,-4.6719,0.0,0.0,0.0,0.0,0.0,0.0,0.0,0.0,0.0,0.0,0.0,0.0,-5.4336,-5.5195,0.0,0.0,0.0,0.0,0.0,0.0,-5.8437,-5.8828,-5.8867,0.0,0.0,0.0,0.0,0.0,0.0,0.0,0.0,0.0,-6.0742,-6.1992,-6.4037,-6.5623,-6.7011,-6.9464,-7.1482,-7.3086,-7.3474,-7.4108,-7.4268,-7.4224,-7.5212,-7.6731,-7.806,-7.894,-8.0554,-8.2787,-8.2798,-8.2566,-8.3643,-8.2611,-8.1637,-8.1892,-8.1855,-8.2005,-8.2708,-8.4165,-8.5722,-8.7429,-8.9538,-9.1547,-9.3204,-9.4911,-9.6317,-9.7422,-9.8025,-9.8577,-9.9079,-9.918,-9.918,-9.918,-9.918,-9.918,-9.918,-9.918,-9.918,-9.918,-9.918,-9.918,-9.918,-9.918,-9.918,-9.918,-9.918,-9.918,-9.918,-9.918,-9.918,-9.918,-9.918,-9.918,-9.918,-9.918,-9.918,-9.918,-9.9951,-10.0973,-10.2188,0.0,0.0,0.0,0.0,0.0,0.0,-4.5937,-4.6758,-4.7617,-4.8476,-4.8437,-4.832,-4.8203,-4.7656,-4.7148,-4.6719,0.0,0.0,0.0,0.0,0.0,0.0,0.0,0.0,0.0,0.0,-5.207,-5.2851,-5.3711,0.0,0.0,0.0,0.0,0.0,0.0,-5.6328,-5.6992,-5.75,0.0,0.0,0.0,0.0,0.0,0.0,0.0,0.0,0.0,0.0,-6.1172,-6.3128,-6.4752,-6.6351,-6.8369,-7.0455,-7.2436,-7.3353,-7.3778,-7.4377,-7.5059,-7.6055,-7.6935,-7.8783,-7.9557,-8.0903,-8.3059,-8.3549,-8.3494,-8.378,-8.3258,-8.2471,-8.1842,-8.1805,-8.2005,-8.2558,-8.3512,-8.4818,-8.6826,-8.9036,-9.0944,-9.23,-9.451,-9.6217,-9.697,-9.7874,-9.8627,-9.913,-9.918,-9.918,-9.918,-9.918,-9.918,-9.918,-9.918,-9.918,-9.918,-9.918,-9.918,-9.918,-9.918,-9.918,-9.918,-9.918,-9.918,-9.918,-9.918,-9.918,-9.918,-9.918,-9.918,-9.918,-9.918,-9.9438,-9.9951,-10.0719,-10.1936,-10.3691,0.0,0.0,0.0,0.0,0.0,-4.5273,-4.6016,-4.6953,-4.7851,-4.8555,-4.8789,-4.8711,-4.8242,-4.7812,-4.7422,-4.6953,-4.6562,0.0,0.0,0.0,0.0,0.0,0.0,0.0,0.0,0.0,-5.1016,-5.1328,-5.2187,-5.2812,0.0,0.0,-5.3476,-5.3906,0.0,0.0,0.0,0.0,0.0,0.0,0.0,0.0,0.0,0.0,0.0,0.0,0.0,0.0,0.0,0.0,0.0,-6.5461,-6.7439,-6.9593,-7.1408,-7.2864,-7.3987,-7.4841,-7.5749,-7.6794,-7.764,-7.9474,-8.0403,-8.1339,-8.3177,-8.3826,-8.3988,-8.376,-8.3336,-8.2909,-8.1692,-8.1553,-8.1704,-8.2106,-8.2909,-8.4165,-8.6023,-8.8182,-9.009,-9.1396,-9.3807,-9.5765,-9.6669,-9.7874,-9.8778,-9.918,-9.918,-9.918,-9.918,-9.918,-9.918,-9.918,-9.918,-9.918,-9.918,-9.918,-9.918,-9.918,-9.9331,-9.9431,-9.9431,-9.9632,-9.9682,-9.9682,-9.9531,-9.9431,-9.9431,-9.928,-9.928,-9.9431,-9.9431,-9.9998,-10.0715,-10.174,-10.3211,-10.5462,0.0,0.0,0.0,0.0,0.0,0.0,-4.5625,-4.6758,-4.7734,-4.8164,-4.8594,-4.8711,-4.8242,-4.7812,-4.7422,-4.6953,-4.6562,0.0,0.0,0.0,0.0,0.0,0.0,0.0,0.0,0.0,-4.9531,-4.957,-5.043,-5.1055,-5.1445,-5.1445,-5.168,-5.2109,0.0,0.0,0.0,0.0,0.0,0.0,0.0,0.0,-5.8515,0.0,0.0,0.0,0.0,0.0,0.0,0.0,0.0,0.0,0.0,-6.8144,-6.9526,-7.2246,-7.4414,-7.5926,-7.601,-7.7499,-7.8832,-8.0149,-8.077,-8.1679,-8.323,-8.352,-8.3606,-8.3375,-8.2944,-8.2311,-8.1141,-8.1051,-8.1051,-8.1051,-8.2407,-8.3914,-8.5019,-8.7128,-8.9086,-9.0743,-9.2903,-9.4911,-9.6569,-9.8226,-9.918,-9.918,-9.918,-9.918,-9.918,-9.918,-9.918,-9.918,-9.918,-9.918,-9.918,-9.918,-9.918,-9.918,-9.9732,-9.9983,-10.0034,-10.0586,-10.0887,-10.0787,-10.0285,-9.9983,-9.9933,-9.9431,-9.9531,-9.9983,-9.9983,-10.0856,-10.2091,-10.3383,-10.5171,-10.7381,0.0,0.0,0.0,0.0,0.0,0.0,0.0,-4.625,-4.6953,-4.7695,-4.7891,-4.793,-4.7773,-4.7383,-4.707,-4.6953,-4.6562,0.0,0.0,0.0,0.0,0.0,0.0,0.0,0.0,0.0,-4.9062,-4.9062,-5.0234,-5.0859,-5.1016,-5.1289,-5.1484,-5.1641,-5.1641,-5.1953,0.0,0.0,0.0,0.0,0.0,-5.6836,-5.7305,0.0,0.0,0.0,0.0,0.0,0.0,0.0,0.0,0.0,0.0,0.0,0.0,-7.2037,-7.4029,-7.5694,-7.7015,-7.8431,-7.9775,-8.1301,-8.1892,-8.2044,-8.3707,-8.3895,-8.3809,-8.3412,-8.3008,-8.2343,-8.1252,-8.075,-8.0599,-8.0951,-8.2106,-8.3462,-8.4918,-8.6726,-8.8534,-9.0191,-9.3304,-9.5916,-9.7171,-9.8427,-9.918,-9.918,-9.918,-9.918,-9.918,-9.9531,-9.9582,-9.918,-9.9531,-9.9783,-9.9783,-10.0134,-10.0385,-10.0385,-10.0536,-10.0586,-10.0586,-10.0787,-10.0887,-10.0887,-10.0686,-10.0586,-10.0586,-10.0435,-10.0486,-10.0586,-10.0586,-10.147,-10.266,-10.3692,-10.6182,-10.922,0.0,0.0,0.0,0.0,0.0,0.0,0.0,-4.582,-4.6484,-4.7031,-4.7383,-4.75,-4.7344,-4.7109,-4.6875,-4.6719,-4.6445,0.0,0.0,0.0,0.0,0.0,0.0,0.0,0.0,-4.7969,-4.8594,-4.8633,-4.9766,-5.0391,-5.0586,-5.082,-5.1055,-5.1211,-5.1211,-5.1445,0.0,0.0,0.0,0.0,-5.5312,-5.6015,-5.668,0.0,0.0,0.0,0.0,0.0,0.0,0.0,0.0,0.0,0.0,0.0,0.0,0.0,-7.3679,-7.5715,-7.7444,-7.8824,-8.0022,-8.1797,-8.2042,-8.2195,-8.3514,-8.3857,-8.3454,-8.2917,-8.2378,-8.1754,-8.0901,-8.0248,-8.0147,-8.0901,-8.1955,-8.3261,-8.4918,-8.6575,-8.8433,-9.0794,-9.3907,-9.6317,-9.7472,-9.8577,-9.918,-9.918,-9.9381,-9.9531,-9.9531,-10.0034,-10.0184,-9.9833,-10.0184,-10.0335,-10.0335,-10.0686,-10.0887,-10.0887,-10.1088,-10.1189,-10.1189,-10.1389,-10.154,-10.149,-10.1289,-10.1189,0.0,-10.0988,-10.0988,-10.1189,-10.1451,-10.2752,-10.4362,-10.5654,-10.8306,-11.2063,0.0,0.0,0.0,0.0,0.0,0.0,0.0,-4.5469,-4.6211,-4.625,-4.6992,-4.7344,-4.6914,-4.6875,-4.6719,-4.6328,-4.6289,0.0,0.0,0.0,0.0,0.0,0.0,0.0,0.0,-4.75,-4.8164,-4.8203,-4.9141,-4.9805,-5.0234,-5.0234,-5.0469,-5.0859,-5.0859,-5.1055,-5.1445,-5.1914,0.0,0.0,-5.3945,-5.4961,0.0,0.0,0.0,0.0,0.0,0.0,0.0,0.0,0.0,0.0,0.0,0.0,0.0,0.0,0.0,0.0,0.0,-7.901,-8.0188,-8.1666,-8.1951,-8.213,-8.2936,-8.3188,0.0,-8.1945,-8.1279,-8.08,-8.0298,-7.9746,-7.9746,-8.085,-8.1955,-8.3261,-8.4918,-8.6676,-8.9036,-9.22,-9.456,-9.6418,-9.7472,-9.8577,-9.918,-9.928,-9.9682,-10.0034,-10.0084,-10.0586,-10.0988,-10.0988,-10.0988,-10.0988,-10.0988,-10.0988,-10.0988,-10.0988,-10.154,-10.1791,-10.1791,-10.2293,-10.2544,-10.2544,-10.1992,-10.1791,-10.1691,-10.1189,-10.1289,-10.1741,-10.2583,-10.4245,-10.6747,-10.8827,-11.1706,-11.4961,0.0,0.0,0.0,0.0,0.0,0.0,0.0,0.0,0.0,0.0,-4.6289,-4.6562,-4.6445,-4.6445,-4.6406,0.0,0.0,0.0,0.0,0.0,0.0,0.0,0.0,0.0,0.0,-4.707,-4.7891,-4.8203,-4.9414,-5.0234,-5.0664,-5.0976,-5.1211,-5.1289,-5.1289,-5.1328,-5.1445,-5.1914,0.0,0.0,-5.3242,-5.3984,0.0,0.0,0.0,0.0,-5.7812,-5.832,0.0,0.0,0.0,0.0,0.0,0.0,0.0,0.0,-7.2999,-7.5477,-7.766,0.0,-8.0769,-8.2306,-8.2478,-8.2354,0.0,-8.2471,-8.1895,-8.1229,-8.069,-8.0348,-8.0248,-7.9746,-7.9746,-8.085,-8.1955,-8.3261,-8.4918,-8.8032,-9.0794,-9.2401,-9.4911,-9.682,-9.7523,-9.8577,-9.9381,-9.9783,-9.9933,-10.0184,-10.0636,-10.1189,-10.154,-10.154,-10.1942,-10.1942,-10.154,-10.1942,-10.2093,-10.2093,-10.2293,-10.2344,-10.2344,-10.2444,-10.2544,-10.2544,-10.2394,-10.2344,-10.2344,-10.2193,-10.2193,-10.2394,-10.3595,-10.4961,-10.6747,-10.9304,-11.2339,-11.5704,0.0,0.0,0.0,0.0,0.0,0.0,0.0,0.0,0.0,0.0,-4.6055,-4.6289,-4.6289,-4.6289,-4.6211,0.0,0.0,0.0,0.0,0.0,0.0,0.0,0.0,0.0,-4.5976,-4.7031,-4.7969,-4.8828,-4.9726,-5.0508,-5.1094,-5.1328,-5.1445,-5.1445,-5.1445,-5.1445,-5.1445,-5.168,-5.1914,-5.2109,-5.2578,0.0,0.0,0.0,0.0,0.0,-5.6758,-5.75,0.0,-5.9453,-6.0865,-6.2167,0.0,0.0,0.0,0.0,-7.3132,-7.5398,-7.7702,-7.9246,-8.0404,-8.2054,-8.2228,-8.2008,-8.2261,-8.1878,-8.1279,-8.085,-8.0198,-7.9896,-8.0147,-7.9947,-8.0198,-8.1553,-8.2708,-8.4366,-8.7077,-8.989,-9.22,-9.3556,-9.5514,-9.7071,-9.7874,-9.8929,-9.9682,-9.9983,-10.0536,-10.0938,-10.1189,-10.1791,-10.2093,-10.2093,-10.2344,-10.2394,-10.2093,-10.2394,-10.2544,-10.2544,-10.2544,-10.2544,-10.2544,-10.2544,-10.2544,-10.2544,-10.2544,-10.2544,-10.2544,-10.2544,-10.2912,-10.3481,-10.4533,-10.6532,-10.9048,-11.1439,-11.4567,-11.8081,0.0,0.0,0.0,0.0,0.0,0.0,0.0,0.0,0.0,0.0,0.0,0.0,0.0,0.0,0.0,0.0,0.0,0.0,0.0,0.0,0.0,0.0,0.0,0.0,0.0,-4.7187,-4.8281,-4.9531,-5.0078,-5.0781,-5.1523,-5.1601,-5.1601,-5.1523,-5.1445,-5.1445,-5.1445,-5.1445,-5.1641,-5.1992,-5.1992,0.0,0.0,0.0,0.0,0.0,0.0,0.0,0.0,-5.8672,-6.0191,-6.1908,-6.3575,0.0,0.0,0.0,0.0,0.0,-7.7677,-7.8759,-7.9463,-8.1281,-8.1862,-8.1713,-8.1592,-8.1302,-8.075,-8.0198,-7.9796,-7.9645,-8.0147,-8.0348,-8.0951,-8.2558,-8.4064,-8.6324,-8.9839,-9.1898,-9.3505,-9.5012,-9.6267,-9.7422,-9.8376,-9.9431,-10.0084,-10.0234,-10.1189,-10.1691,-10.1791,-10.2293,-10.2544,-10.2544,-10.2544,-10.2544,-10.2544,-10.2544,-10.2544,-10.2544,-10.2544,-10.2544,-10.2544,-10.2544,-10.2544,-10.2544,-10.2544,-10.2544,-10.2544,-10.2544,-10.338,-10.4368,-10.5533,-10.8053,-11.1618,-11.3936,-11.71,-12.0575,0.0,0.0,0.0,0.0,0.0,0.0,0.0,0.0,0.0,0.0,0.0,0.0,0.0,0.0,0.0,0.0,0.0,0.0,0.0,0.0,0.0,0.0,0.0,0.0,0.0,0.0,-4.8594,-4.9531,-5.0664,-5.1484,-5.1992,-5.2344,-5.2305,-5.1953,-5.1601,-5.1445,-5.1445,-5.1445,-5.1484,-5.1523,-5.1523,0.0,0.0,0.0,0.0,0.0,0.0,0.0,0.0,-5.7812,-5.9477,-6.1383,-6.2354,0.0,0.0,0.0,0.0,0.0,-7.7052,-7.7766,-7.863,-8.1129,-8.1742,-8.1592,-8.1252,-8.075,-8.0198,-7.9645,-7.9796,-8.0097,-8.0198,-8.0951,-8.1955,-8.316,-8.6274,-8.9237,-9.1296,-9.3405,-9.4962,-9.5665,-9.7171,-9.8376,-9.9029,-9.9632,-10.0435,-10.1389,-10.159,-10.1892,-10.2394,-10.2494,-10.2544,-10.2544,-10.2544,-10.2544,-10.2544,-10.2544,-10.2544,-10.2544,-10.2544,-10.2544,-10.2544,-10.2544,-10.2544,-10.2544,-10.2544,-10.2544,-10.2544,-10.2544,-10.338,-10.4685,-10.6474,-10.8944,-11.1931,-11.4938,-11.7742,-12.0761,0.0,0.0,0.0,0.0,0.0,0.0,0.0,0.0,0.0,0.0,0.0,0.0,0.0,0.0,0.0,0.0,0.0,0.0,0.0,0.0,0.0,0.0,0.0,0.0,0.0,0.0,0.0,-5.0547,-5.1133,-5.1758,-5.2422,-5.2383,-5.2266,-5.207,-5.1641,-5.1445,-5.1445,-5.1445,-5.1445,-5.1445,0.0,0.0,0.0,0.0,0.0,0.0,0.0,0.0,0.0,0.0,-5.8446,-6.0252,-6.1802,0.0,0.0,0.0,0.0,0.0,-7.5532,-7.6808,-7.7815,-8.0417,-8.1391,-8.1654,-8.1152,-8.1051,-8.0901,-8.0398,-8.0499,-8.085,-8.1453,-8.2206,-8.3562,-8.6174,-8.8885,-9.1296,-9.3304,-9.4711,-9.6066,-9.7523,-9.8326,-9.913,-10.0034,-10.0586,-10.1088,-10.1691,-10.1992,-10.2243,-10.2544,-10.2544,-10.2544,-10.2544,-10.2544,-10.2544,-10.2544,-10.2544,-10.2544,-10.2544,-10.2544,-10.2544,-10.2544,-10.2544,-10.2544,-10.2544,-10.2544,-10.2544,-10.2544,-10.2544,-10.338,-10.5268,-10.6893,-10.973,-11.3626,-11.8265,-12.0947,-12.2749,0.0,0.0,0.0,0.0,0.0,0.0,0.0,0.0,0.0,0.0,0.0,0.0,0.0,0.0,0.0,0.0,0.0,0.0,0.0,0.0,0.0,0.0,0.0,0.0,0.0,0.0,-4.9922,-5.1445,-5.1719,-5.2266,-5.3008,-5.2461,-5.2226,-5.2226,-5.168,-5.1445,-5.1445,-5.1445,-5.1445,-5.1445,0.0,0.0,0.0,0.0,0.0,0.0,0.0,0.0,0.0,0.0,0.0,0.0,0.0,0.0,0.0,-6.8266,-7.0292,-7.2219,-7.4422,-7.5936,-7.7296,-7.9286,-8.0567,-8.1391,-8.1453,-8.1604,-8.1754,-8.1453,-8.1503,-8.1905,-8.2859,-8.3914,-8.5772,-8.9136,-9.1195,-9.3053,-9.5012,-9.6066,-9.7322,-9.9029,-9.9431,-9.9983,-10.0988,-10.149,-10.1791,-10.1892,-10.2293,-10.2544,-10.2544,-10.2544,-10.2544,-10.2544,-10.2544,-10.2544,-10.2544,-10.2544,-10.2544,-10.2544,-10.2544,-10.2544,-10.2544,-10.2544,-10.2544,-10.2544,-10.2544,-10.2544,-10.2544,-10.276,-10.3861,-10.5798,-10.737,-11.1396,-11.6377,-12.1316,-12.3701,-12.4467,0.0,0.0,0.0,0.0,0.0,0.0,0.0,0.0,0.0,0.0,0.0,0.0,0.0,0.0,0.0,0.0,0.0,0.0,0.0,0.0,-4.5391,0.0,0.0,0.0,0.0,-4.9648,-5.0508,-5.1445,-5.2617,-5.3476,-5.3906,-5.3047,-5.2656,-5.2617,-5.1797,-5.1445,-5.1445,-5.1445,-5.1445,-5.1445,-5.1445,0.0,0.0,0.0,0.0,0.0,0.0,0.0,0.0,0.0,0.0,0.0,0.0,0.0,-6.4467,-6.7119,-6.9516,-7.1705,-7.3896,-7.5645,-7.7198,-7.8419,-7.9385,-8.0666,-8.2307,-8.2156,-8.1955,-8.2457,-8.296,-8.3512,-8.4064,-8.6324,-8.8684,-9.0542,-9.2601,-9.4459,-9.5665,-9.7673,-9.9029,-9.918,-10.0084,-10.0988,-10.159,-10.1691,-10.1942,-10.2444,-10.2544,-10.2544,-10.2544,-10.2544,-10.2544,-10.2544,-10.2544,-10.2544,-10.2544,-10.2544,-10.2544,-10.2544,-10.2544,-10.2544,-10.2544,-10.2544,-10.2544,-10.2544,-10.2544,-10.2544,-10.2544,-10.3292,-10.4441,-10.5746,-10.889,-11.4171,-12.0216,-12.251,-12.3937,-12.517,0.0,0.0,0.0,0.0,0.0,0.0,0.0,0.0,0.0,0.0,0.0,0.0,0.0,0.0,0.0,0.0,0.0,0.0,0.0,-4.4922,-4.5664,-4.7031,0.0,-4.8672,-4.9648,-5.0508,-5.1367,-5.2226,-5.3281,-5.3867,-5.4023,-5.3398,-5.2969,-5.2695,-5.2109,-5.168,-5.1445,-5.1445,-5.1445,-5.1445,-5.1445,-5.1445,0.0,0.0,0.0,0.0,0.0,0.0,0.0,0.0,-5.6123,-5.7429,-5.9229,-6.1008,-6.2801,-6.5453,-6.7731,-7.0019,-7.2758,-7.4573,-7.638,-7.9003,-8.0435,-8.1362,-8.241,-8.3595,-8.4466,-8.4667,-8.5169,-8.5822,-8.6726,-8.8584,-9.0542,-9.22,-9.4058,-9.5765,-9.7272,-9.8427,-9.9582,-10.0586,-10.1088,-10.159,-10.2143,-10.2193,-10.2293,-10.2544,-10.2544,-10.2544,-10.2544,-10.2544,-10.2544,-10.2544,-10.2544,-10.2544,-10.2544,-10.2544,-10.2544,-10.2544,-10.2544,-10.2544,-10.2544,-10.2544,-10.2544,-10.2544,-10.2544,-10.2544,-10.2544,-10.3292,-10.4501,-10.6019,-11.156,-11.6207,-12.0059,-12.2813,-12.4467,-12.517,0.0,0.0,0.0,0.0,0.0,0.0,0.0,0.0,0.0,0.0,0.0,0.0,0.0,0.0,0.0,0.0,0.0,0.0,-4.5195,-4.5234,-4.5937,-4.75,-4.7969,-4.8828,-5.0156,-5.1016,-5.1836,-5.2695,-5.3594,-5.4023,-5.4023,-5.3555,-5.3203,-5.2891,-5.2461,-5.2031,-5.1641,-5.1641,-5.1641,-5.1641,-5.1641,-5.1719,0.0,0.0,0.0,0.0,0.0,0.0,0.0,0.0,-5.5796,-5.6807,-5.8974,-6.0239,-6.1735,-6.4724,-6.7141,-6.9438,-7.1943,-7.438,-7.6502,-7.9005,-8.1051,-8.282,-8.3388,-8.5375,-8.6877,-8.7228,-8.768,-8.8383,-8.9337,-9.0542,-9.1999,-9.3656,-9.5162,-9.6769,-9.8376,-9.928,-10.0184,-10.154,-10.1841,-10.2093,-10.2544,-10.2544,-10.2544,-10.2544,-10.2544,-10.2544,-10.2544,-10.2544,-10.2544,-10.2544,-10.2544,-10.2544,-10.2544,-10.2544,-10.2544,-10.2544,-10.2544,-10.2544,-10.2544,-10.2544,-10.2544,-10.2544,-10.2544,-10.2494,-10.2811,-10.3556,-10.5447,-10.8193,-11.3357,-11.7289,-12.0335,-12.2702,-12.4229,-12.5277,0.0,0.0,0.0,0.0,0.0,0.0,0.0,0.0,0.0,0.0,-4.4023,0.0,0.0,0.0,0.0,0.0,-4.5039,-4.5195,-4.5664,-4.5664,-4.625,-4.7539,-4.7969,-4.8828,-5.0156,-5.1016,-5.1836,-5.2734,-5.3594,-5.4023,-5.4023,-5.3555,-5.3359,-5.3359,-5.2891,-5.25,-5.207,-5.207,-5.207,-5.207,-5.207,-5.2344,-5.2695,0.0,0.0,0.0,0.0,0.0,0.0,0.0,-5.5586,-5.6384,-5.8759,-6.0024,-6.1131,-6.4936,-6.7624,-6.9979,-7.2108,-7.5024,-7.7664,-7.8188,-8.1256,-8.4466,-8.5548,-8.7162,-8.8785,-8.994,-9.0593,-9.1095,-9.1697,-9.225,-9.3154,-9.4811,-9.6016,-9.7322,-9.8929,-10.0184,-10.1088,-10.159,-10.2193,-10.2544,-10.2544,-10.2544,-10.2544,-10.2544,-10.2544,-10.2544,-10.2544,-10.2544,-10.2544,-10.2544,-10.2544,-10.2544,-10.2544,-10.2544,-10.2544,-10.2544,-10.2544,-10.2544,-10.2544,-10.2544,-10.2544,-10.2544,-10.2544,-10.2811,-10.3607,-10.4399,-10.7731,-11.2778,-11.4018,-11.7336,-12.1295,-12.2054,-12.3625,-12.514,0.0,0.0,0.0,0.0,0.0,0.0,0.0,0.0,0.0,-4.4844,-4.4726,0.0,0.0,0.0,0.0,0.0,0.0,-4.5195,-4.5664,-4.5664,-4.625,-4.7539,-4.7969,-4.8828,-5.0156,-5.1289,-5.2305,-5.3164,-5.375,-5.4023,-5.4023,-5.3906,-5.3672,-5.3359,-5.3242,-5.293,-5.2539,-5.2539,-5.2539,-5.2539,-5.2539,-5.2578,-5.2734,0.0,0.0,0.0,0.0,0.0,0.0,0.0,0.0,0.0,-5.8406,-5.9615,-6.0931,-6.3888,-6.697,-6.965,-7.2452,-7.5384,-7.8452,-7.9957,-8.3191,-8.6236,-8.7711,-8.915,-9.0593,-9.2099,-9.225,-9.2401,-9.3304,-9.3957,-9.4761,-9.6066,-9.7472,-9.8778,-9.9682,-10.0737,-10.1691,-10.2193,-10.2444,-10.2544,-10.2544,-10.2544,-10.2544,-10.2544,-10.2846,-10.3097,-10.3097,-10.3499,-10.3649,-10.3649,-10.3649,-10.3649,-10.3649,-10.3649,-10.3649,-10.3649,-10.3649,-10.3298,-10.2544,-10.2544,-10.2544,-10.2544,-10.2544,-10.2811,-10.3871,-10.6332,-10.9507,-11.2971,-11.5562,-11.8303,-12.0943,-12.2341,-12.3617,-12.4422,0.0,0.0,0.0,0.0,0.0,0.0,0.0,0.0,-4.5273,-4.5273,-4.5117,-4.5078,0.0,0.0,0.0,-4.5508,-4.5547,-4.5625,-4.5898,-4.6094,-4.6601,-4.7539,-4.7969,-4.8828,-5.0156,-5.1445,-5.2344,-5.2851,-5.3476,-5.3867,-5.4023,-5.4023,-5.3867,-5.3633,-5.3633,-5.3398,-5.2969,-5.2969,-5.2969,-5.2969,-5.2969,-5.3164,-5.3516,0.0,0.0,0.0,0.0,0.0,0.0,0.0,0.0,0.0,-5.8269,-5.9478,-6.0956,-6.3992,-6.6601,-6.9511,-7.2684,-7.5996,-7.9082,-8.1143,-8.4642,-8.8293,-9.0896,-9.2269,-9.3304,-9.4761,-9.466,-9.451,-9.5414,-9.5665,-9.6066,-9.7171,-9.8427,-9.9431,-10.0234,-10.1088,-10.1892,-10.2444,-10.2544,-10.2544,-10.2544,-10.2544,-10.2595,-10.2846,-10.3147,-10.3448,-10.3599,-10.4001,-10.4151,-10.4151,-10.4151,-10.4151,-10.4151,-10.4151,-10.4151,-10.4151,-10.4151,-10.38,-10.3147,-10.2946,-10.2745,-10.2544,-10.3077,-10.4084,-10.5396,-10.8439,-11.1156,-11.3674,-11.6425,-11.8785,-12.047,-12.1861,-12.3071,-12.3704,0.0,0.0,0.0,0.0,0.0,0.0,0.0,-4.5976,-4.5742,-4.5742,-4.5391,-4.5312,0.0,0.0,0.0,-4.625,-4.6289,-4.6289,-4.6289,-4.668,-4.7109,-4.7578,-4.8047,-4.8906,-5.0156,-5.1367,-5.1992,-5.207,-5.293,-5.3555,-5.3984,-5.4023,-5.4023,-5.4023,-5.4023,-5.3789,-5.3437,-5.3437,-5.3437,-5.3476,-5.3476,-5.3984,-5.4726,-5.4726,0.0,0.0,0.0,0.0,0.0,0.0,0.0,0.0,-5.8269,-5.9478,-6.1077,-6.4617,-6.6931,-6.9142,-7.2808,-7.6363,-7.9699,-8.1854,-8.604,-9.0457,-9.4364,-9.5665,-9.6317,-9.7372,-9.7171,-9.697,-9.7573,-9.7221,-9.7221,-9.8326,-9.8979,-9.9682,-10.0787,-10.144,-10.1992,-10.2444,-10.2544,-10.2544,-10.2544,-10.2544,-10.2745,-10.3298,-10.3448,-10.3599,-10.4202,-10.4252,-10.4302,-10.4302,-10.4302,-10.4302,-10.4302,-10.4302,-10.4302,-10.4302,-10.4302,-10.4302,-10.4252,-10.3699,-10.3097,-10.2861,-10.4186,-10.5917,-10.7981,-10.9958,-11.2394,-11.5126,-11.6796,-11.8729,-12.0568,-12.1023,-12.2117,-12.3046,0.0,0.0,0.0,0.0,0.0,0.0,-4.6289,-4.6211,-4.6172,-4.6172,-4.6094,-4.6055,-4.6172,-4.6172,0.0,-4.6289,-4.6289,-4.6289,-4.6289,-4.668,-4.7109,-4.7578,-4.8633,-4.9531,-5.0156,-5.0781,-5.1406,-5.207,-5.293,-5.3398,-5.3516,-5.3867,-5.4023,-5.4023,-5.4023,-5.3984,-5.3867,-5.3867,-5.4101,-5.4414,-5.4414,-5.4726,-5.5156,-5.5156,-5.5234,0.0,0.0,0.0,0.0,0.0,0.0,0.0,-5.7795,-5.9279,-6.1302,-6.3619,-6.6971,-7.0531,-7.2825,-7.7133,-8.1194,-8.3039,-8.759,-9.2529,-9.5616,-9.682,-9.7272,-9.7472,-9.7472,-9.7573,-9.8125,-9.8125,-9.8376,-9.9481,-10.0134,-10.0787,-10.144,-10.2042,-10.2394,-10.2544,-10.2544,-10.2544,-10.2544,-10.2544,-10.2745,-10.3298,-10.3699,-10.4202,-10.4754,-10.5206,-10.5507,-10.5507,-10.5507,-10.5507,-10.5507,-10.5507,-10.5507,-10.5507,-10.5507,-10.5206,-10.4804,-10.4252,-10.3969,-10.4216,-10.5541,-10.7061,-10.864,-11.1156,-11.3862,-11.6265,-11.8205,-11.9824,-12.1308,-12.1759,-12.2268,-12.2387,0.0,0.0,0.0,0.0,0.0,0.0,0.0,0.0,-4.6289,-4.6289,-4.6289,-4.6289,-4.6289,-4.6289,0.0,0.0,-4.6289,-4.6289,-4.6289,-4.6875,-4.7539,-4.8164,-4.9062,-4.9726,-5.0156,-5.0586,-5.1211,-5.207,-5.2734,-5.3164,-5.3359,-5.3828,-5.4141,-5.4336,-5.4336,-5.4453,-5.4648,-5.4648,-5.4765,-5.5,-5.5,-5.5234,-5.5625,-5.5625,-5.5742,-5.5937,-5.6172,0.0,0.0,0.0,0.0,0.0,0.0,0.0,-6.0698,-6.3127,-6.616,-6.9393,-7.2681,-7.717,-8.1796,-8.677,-9.0956,-9.4567,-9.6769,-9.7573,-9.8025,-9.8276,-9.8326,-9.8427,-9.8678,-9.8979,-9.9331,-9.9933,-10.0686,-10.1389,-10.1691,-10.2193,-10.2544,-10.2544,-10.2544,-10.2544,-10.2544,-10.2745,-10.3097,-10.3699,-10.4252,-10.4804,-10.5357,-10.5608,-10.5809,-10.5809,-10.5809,-10.5809,-10.5809,-10.5809,-10.5809,-10.5809,-10.5809,-10.5658,-10.5357,-10.4553,-10.4541,-10.5359,-10.6319,-10.8468,-11.1219,-11.3,-11.5336,-11.7906,-11.9251,-12.0341,-12.1308,-12.1984,-12.2208,-12.2208,0.0,0.0,0.0,0.0,0.0,0.0,0.0,0.0,0.0,-4.6289,-4.6289,-4.6289,-4.6289,-4.6289,-4.6289,0.0,0.0,0.0,-4.6289,-4.7109,-4.7969,-4.8828,-4.9219,-4.9648,-5.0156,-5.0508,-5.1172,-5.207,-5.2578,-5.3047,-5.3476,-5.3945,-5.4375,-5.4805,-5.4805,-5.5,-5.5312,-5.5312,-5.539,-5.5508,-5.5508,-5.582,-5.625,-5.625,-5.6484,-5.6797,-5.6719,-5.668,-5.668,-5.6601,0.0,0.0,0.0,0.0,-5.9936,-6.282,-6.5224,-6.7918,-7.2083,-7.7069,-8.2737,-9.0463,-9.402,-9.5816,-9.7322,-9.8025,-9.8527,-9.9079,-9.918,-9.918,-9.9331,-9.9682,-10.0084,-10.0285,-10.1088,-10.1691,-10.1841,-10.2243,-10.2544,-10.2544,-10.2544,-10.2544,-10.2645,-10.3097,-10.3599,-10.4252,-10.4704,-10.5206,-10.5809,-10.5809,-10.5809,-10.5809,-10.5809,-10.5809,-10.5809,-10.5809,-10.5809,-10.5809,-10.5809,-10.5809,-10.5809,-10.5127,-10.5484,-10.6723,-10.7468,-11.0246,-11.3711,-11.4709,-11.7108,-11.9776,-12.0465,-12.0914,-12.1713,-12.2043,-12.2208,-12.2208,0.0,0.0,0.0,0.0,0.0,0.0,0.0,0.0,0.0,0.0,-4.6289,-4.6289,-4.6289,-4.6289,-4.6289,-4.6289,-4.6289,-4.6289,-4.6289,0.0,0.0,-4.8828,-4.8906,-4.9336,-5.0156,-5.0234,-5.0859,-5.207,-5.2891,-5.3516,-5.3945,-5.4375,-5.4805,-5.5234,-5.5234,-5.5273,-5.5312,-5.5312,-5.5742,-5.6406,-5.6406,-5.6875,-5.7617,-5.7617,-5.7656,-5.7656,-5.7265,-5.7109,-5.707,-5.6719,-5.6601,0.0,0.0,0.0,-5.9936,-6.2408,-6.4971,-6.7685,-7.1042,-7.7567,-8.4794,-9.0658,-9.3225,-9.4867,-9.6968,-9.8025,-9.8527,-9.9079,-9.918,-9.9331,-9.9833,-9.9933,-10.0335,-10.1289,-10.159,-10.1892,-10.2344,-10.2494,-10.2544,-10.2544,-10.2544,-10.2695,-10.3147,-10.3298,-10.375,-10.4804,-10.4955,-10.5206,-10.5809,-10.5809,-10.5809,-10.5809,-10.5809,-10.5809,-10.5809,-10.5809,-10.5809,-10.5809,-10.5809,-10.5809,-10.5809,-10.6206,-10.7211,-10.809,-10.989,-11.2168,-11.4518,-11.6876,-11.9289,-12.1061,-12.1632,-12.2367,-12.2986,-12.2387,-12.2208,-12.2208,0.0,0.0,0.0,0.0,0.0,0.0,0.0,0.0,0.0,0.0,0.0,-4.6562,-4.6328,-4.6289,-4.6289,-4.6289,-4.6289,-4.6523,-4.6992,-4.7578,-4.8203,-4.8828,-4.8867,-4.9258,-5.0156,-5.0195,-5.0937,-5.2422,-5.3047,-5.3828,-5.4765,-5.5195,-5.5469,-5.5664,-5.5664,-5.5781,-5.6055,-5.6289,-5.6601,-5.6992,-5.7461,-5.789,-5.8242,-5.8515,-5.8594,-5.8555,-5.8359,-5.8125,-5.789,-5.7734,-5.75,-5.7422,-5.8047,0.0,0.0,0.0,-6.3387,-6.6471,-7.2957,-7.8782,-8.451,-8.9632,-9.2434,-9.4617,-9.6167,-9.7523,-9.8427,-9.8678,-9.918,-9.9732,-9.9933,-10.0536,-10.1088,-10.159,-10.2193,-10.2695,-10.2946,-10.3248,-10.3499,-10.3499,-10.3499,-10.3549,-10.38,-10.4051,-10.4503,-10.5005,-10.5558,-10.6009,-10.621,-10.6261,-10.6261,-10.6261,-10.6009,-10.5809,-10.5809,-10.5809,-10.5809,-10.5809,-10.5809,-10.6083,-10.6408,-10.7671,-10.8328,-10.8927,-11.0997,-11.3439,-11.621,-11.81,-12.0401,-12.2525,-12.2571,-12.2952,-12.3165,-12.2866,-12.2507,-12.2208,0.0,0.0,0.0,0.0,0.0,0.0,0.0,0.0,0.0,0.0,0.0,-4.6992,-4.668,0.0,0.0,0.0,-4.6641,-4.6953,-4.7695,-4.8047,-4.8398,-4.8828,-4.8984,-4.9375,-5.0156,-5.0273,-5.1133,-5.2695,-5.3242,-5.4141,-5.5312,-5.5859,-5.6172,-5.625,-5.625,-5.6445,-5.6758,-5.7187,-5.75,-5.7773,-5.8437,-5.8867,-5.9219,-5.9531,-5.9765,-5.9805,-5.9687,-5.9414,-5.8984,-5.8867,-5.8476,-5.8086,-5.8555,-5.8633,0.0,0.0,0.0,-6.6097,-7.4252,-7.8929,-8.2749,-8.759,-9.1005,-9.3623,-9.4817,-9.6769,-9.8025,-9.8125,-9.9029,-9.9883,-10.0184,-10.1038,-10.1791,-10.2093,-10.2796,-10.3448,-10.3549,-10.39,-10.4151,-10.4151,-10.4151,-10.4252,-10.4352,-10.4754,-10.5055,-10.5407,-10.611,-10.6713,-10.6813,-10.6863,-10.6813,-10.6612,-10.621,-10.5959,-10.5809,-10.5809,-10.5809,-10.5809,-10.5809,-10.6083,-10.6905,-10.8483,-10.9238,-11.004,-11.2157,-11.501,-11.8297,-11.9816,-12.1812,-12.3699,-12.3744,-12.3548,-12.3405,-12.3285,-12.2806,-12.2208,0.0,0.0,0.0,0.0,0.0,0.0,0.0,0.0,0.0,0.0,0.0,-4.7539,-4.75,-4.75,-4.75,-4.75,-4.75,-4.7695,-4.8125,-4.8203,-4.8398,-4.8828,-4.9258,0.0,-5.0156,-5.0586,-5.1406,-5.2695,-5.3555,-5.4453,-5.5312,-5.6172,-5.6758,-5.7148,-5.7148,-5.7148,-5.7226,-5.7656,-5.832,-5.9062,-5.914,-5.9883,-6.0976,-6.0976,-6.125,-6.1523,-6.1133,-6.0742,-6.0273,-5.9883,-5.918,-5.8594,-5.9023,-5.8867,-5.8711,0.0,0.0,0.0,-7.3164,-7.6235,-7.9451,-8.5232,-8.8805,-9.13,-9.3126,-9.5116,-9.697,-9.7523,-9.8477,-9.9531,-10.0636,-10.1289,-10.2042,-10.3097,-10.3348,-10.3549,-10.4051,-10.4151,-10.4151,-10.4151,-10.4151,-10.4352,-10.4905,-10.5005,-10.5407,-10.6461,-10.6612,-10.6863,-10.7416,-10.7466,-10.7215,-10.6612,-10.6612,-10.6311,-10.5809,-10.5809,-10.5809,-10.5809,-10.5809,-10.6083,-10.6905,-10.8483,-11.004,-11.221,-11.4754,-11.7491,-12.033,-12.2212,-12.3878,-12.5051,-12.509,-12.4661,-12.4003,-12.3405,-12.2806,-12.2208,0.0,0.0,0.0,0.0,0.0,0.0,0.0,0.0,-4.8281,0.0,0.0,0.0,0.0,-4.7578,-4.7578,-4.7578,-4.8086,-4.8476,-4.8633,-4.9141,-4.9531,-4.9687,-4.9844,-5.0156,-5.0586,-5.0976,-5.1719,-5.2695,-5.3594,-5.4453,-5.5312,-5.5898,-5.6523,-5.7226,-5.7226,-5.7539,-5.8086,-5.8555,-5.918,-6.0039,-6.0586,-6.125,-6.1953,-6.2539,-6.3008,-6.3398,-6.3203,-6.289,-6.2422,-6.168,-6.0859,-6.0117,-5.9687,-5.9453,-5.9599,-6.0402,-6.2675,-6.5577,-6.9796,-7.3323,-7.6905,-8.1951,-8.5613,-8.8603,-9.0649,-9.3168,-9.5313,-9.5866,-9.7422,-9.9029,-10.0084,-10.1389,-10.2494,-10.3248,-10.3951,-10.4503,-10.4654,-10.5005,-10.5206,-10.5206,-10.5206,-10.5306,-10.5507,-10.5507,-10.5658,-10.606,-10.6813,-10.7265,-10.7516,-10.7817,-10.7767,-10.7215,-10.6813,-10.6361,-10.5809,-10.5809,-10.5809,-10.5809,-10.6358,-10.6905,-10.7722,-11.004,-11.221,-11.4551,-11.7491,-11.929,-12.0575,-12.251,-12.3937,-12.511,-12.5628,-12.532,-12.4661,-12.4003,-12.3405,-12.2806,0.0,0.0,0.0,0.0,0.0,-4.9297,-4.9297,-4.9297,-4.918,-4.8906,0.0,0.0,0.0,0.0,-4.8437,-4.8437,-4.8984,-4.9297,-4.9297,-4.9844,-5.0195,-5.0195,-5.043,-5.0742,-5.1016,-5.1562,-5.2226,-5.293,-5.3828,-5.4609,-5.5312,-5.6015,-5.6758,-5.7461,-5.7734,-5.8203,-5.8789,-5.9531,-6.0234,-6.0937,-6.1836,-6.2539,-6.3125,-6.3867,-6.4492,-6.4961,-6.4961,-6.4648,-6.4219,-6.3476,-6.2578,-6.1601,-6.0742,-6.0156,-6.003,-6.0442,-6.174,-6.3639,-6.7055,-7.0444,-7.4117,-7.8256,-8.2373,-8.5652,-8.7908,-9.084,-9.3412,-9.461,-9.6418,-9.8276,-9.9732,-10.1239,-10.2544,-10.3499,-10.4202,-10.4854,-10.5206,-10.5558,-10.5809,-10.5809,-10.5809,-10.5809,-10.5809,-10.5809,-10.5909,-10.606,-10.6813,-10.7416,-10.7717,-10.7918,-10.7817,-10.7215,-10.6612,-10.621,-10.5809,-10.5809,-10.5809,-10.5809,-10.6632,-10.745,-10.8483,-11.1155,-11.3516,-11.5777,-11.8795,-12.0819,-12.1305,-12.3226,-12.4408,-12.5403,-12.5867,-12.5739,-12.5021,-12.4362,-12.3704,-12.3046,0.0,0.0,0.0,0.0,-4.9883,-5.0195,-5.0195,-5.0195,-5.0195,-5.0195,0.0,0.0,0.0,0.0,0.0,-5.0195,-5.0234,-5.0234,-5.0234,-5.0234,-5.0234,-5.0234,-5.1016,-5.1484,-5.1484,-5.2305,-5.293,-5.3398,-5.4258,-5.4922,-5.5351,-5.6601,-5.7461,-5.793,-5.8789,-5.9219,-5.9336,-6.0586,-6.1367,-6.1875,-6.2734,-6.3555,-6.4375,-6.4844,-6.5508,-6.6289,-6.6289,-6.6055,-6.5586,-6.5156,-6.414,-6.293,-6.1992,-6.0859,-6.003,-6.0442,-6.0667,-6.1435,0.0,0.0,0.0,-7.4488,-7.8906,-8.2793,-8.5118,-8.8252,-9.1478,-9.3613,-9.5514,-9.7372,-9.9582,-10.0938,-10.2193,-10.385,-10.4151,-10.4553,-10.5608,-10.5758,-10.5758,-10.5758,-10.5809,-10.5809,-10.5809,-10.5809,-10.606,-10.6562,-10.6612,-10.7114,-10.8219,-10.7767,-10.7215,-10.6612,-10.606,-10.5809,-10.5809,-10.5809,-10.5809,-10.5809,-10.6682,-10.7722,-10.897,-11.1367,-11.3775,-11.6539,-11.929,-12.1547,-12.3226,-12.4702,-12.5695,-12.6098,-12.6098,-12.5739,-12.508,-12.4422,-12.3704,-12.3046,0.0,0.0,0.0,-5.0,-5.0078,-5.0273,-5.0586,-5.0625,-5.0742,0.0,0.0,0.0,0.0,-5.1094,-5.1094,-5.1094,-5.1367,-5.1562,-5.1562,-5.1836,-5.1992,-5.1992,-5.2226,-5.2344,-5.2344,-5.2891,-5.3398,-5.3828,-5.4414,-5.5039,-5.5781,-5.6445,-5.7344,-5.8359,-5.9258,-6.0156,-6.1015,-6.1367,-6.2344,-6.3633,-6.3867,-6.4492,-6.5312,-6.6055,-6.668,-6.7226,-6.789,-6.8008,-6.7773,-6.668,-6.5703,-6.4492,-6.2383,-6.0859,-5.9805,-6.003,-6.0679,-6.1675,-6.366,0.0,0.0,0.0,0.0,0.0,-8.2416,-8.5839,-8.9122,-9.1877,-9.4414,-9.6669,-9.8527,-10.0034,-10.154,-10.2796,-10.3649,-10.4252,-10.4553,-10.4603,-10.4603,-10.4603,-10.5005,-10.5206,-10.5206,-10.5558,-10.5909,-10.606,-10.6411,-10.6763,-10.7064,-10.6964,-10.6813,-10.6612,-10.606,-10.5809,-10.5809,-10.5809,-10.5809,-10.5809,-10.7178,-10.8213,-10.897,-11.268,-11.5266,-11.7296,-12.0704,-12.2988,-12.3937,-12.4702,-12.5695,-12.6098,-12.6098,-12.5978,-12.5739,-12.4542,-12.4003,-12.3704,0.0,0.0,-5.0508,-5.0664,-5.0859,-5.1133,-5.1523,-5.1601,-5.168,0.0,0.0,0.0,-5.2226,-5.2226,-5.2305,-5.25,-5.2734,-5.2891,-5.2891,-5.3125,-5.3242,-5.3242,-5.3437,-5.3516,-5.3516,-5.3945,-5.4297,-5.457,-5.5156,-5.5742,-5.6211,-5.7031,-5.789,-5.8828,-5.9883,-6.0976,-6.2031,-6.2578,-6.3515,-6.4609,-6.5195,-6.5781,-6.6445,-6.7148,-6.7773,-6.8359,-6.8867,-6.9336,-6.9453,-6.832,-6.6914,-6.5234,-6.3164,-6.164,-6.0547,-6.0156,-6.0462,-6.1153,-6.2448,-6.4357,-6.6639,-6.9695,0.0,0.0,-8.0112,-8.378,-8.7318,-9.0203,-9.3168,-9.5715,-9.7372,-9.8879,-10.0184,-10.1289,-10.2042,-10.2846,-10.4001,-10.4151,-10.4151,-10.4151,-10.4453,-10.4654,-10.4654,-10.4905,-10.5206,-10.5457,-10.5758,-10.606,-10.6311,-10.6512,-10.6562,-10.6311,-10.6009,-10.5809,-10.5809,-10.5809,-10.6134,-10.6358,-10.745,-10.8752,-11.0307,-11.3721,-11.6539,-11.8795,-12.1731,-12.3642,-12.4702,-12.5403,-12.5867,-12.6098,-12.6098,-12.6098,-12.5918,-12.4602,-12.4123,-12.3943,0.0,0.0,-5.1133,-5.1523,-5.1914,-5.2305,-5.2734,-5.2812,-5.2851,0.0,-5.2969,-5.3164,-5.3555,-5.3633,-5.3789,-5.4219,-5.4297,-5.4297,-5.4297,-5.4258,-5.4258,-5.4258,-5.4609,-5.4805,-5.4805,-5.5234,-5.5469,-5.5508,-5.6289,-5.668,-5.6758,-5.8008,-5.8828,-5.9297,-6.0586,-6.1601,-6.2539,-6.3867,-6.4765,-6.5351,-6.6445,-6.7226,-6.7734,-6.8203,-6.8906,-6.9648,-6.9687,-7.0234,-7.0781,-6.9922,-6.789,-6.5547,-6.4258,-6.2969,-6.1719,-6.082,-6.0547,-6.0664,-6.1666,-6.3253,-6.4807,-6.7139,-7.0457,0.0,-7.7927,-8.1788,-8.5489,-8.8925,-9.2019,-9.4409,-9.6066,-9.7322,-9.8427,-9.9431,-9.9682,-10.0787,-10.3448,-10.38,-10.385,-10.39,-10.3951,-10.4001,-10.4051,-10.4151,-10.4352,-10.4854,-10.4905,-10.5106,-10.5708,-10.621,-10.621,-10.5809,-10.5809,-10.5809,-10.5809,-10.5809,-10.6083,-10.6905,-10.7671,-10.9558,-11.221,-11.4551,-11.7296,-12.033,-12.251,-12.3937,-12.511,-12.5867,-12.6098,-12.6098,-12.6098,-12.6098,-12.5799,-12.4602,-12.4123,-12.3824,-5.1719,-5.2031,-5.2344,-5.2461,-5.2539,-5.2734,-5.3164,-5.3555,-5.3906,-5.4258,-5.457,-5.4844,-5.4922,-5.5234,-5.5469,-5.5547,-5.5898,-5.6094,-5.6094,-5.5742,-5.5547,-5.5547,-5.5625,-5.5703,-5.5703,-5.6094,-5.6484,-5.6836,-5.6992,-5.7265,-5.7617,-5.8594,-5.9297,-5.9765,-6.1015,-6.207,-6.3047,-6.4648,-6.5976,-6.7031,-6.7265,-6.7851,-6.8633,-6.9414,-7.0039,-7.0547,-7.125,-7.1836,-7.2109,-7.0898,-6.875,-6.6445,-6.5547,-6.4101,-6.2617,-6.1719,-6.1484,-6.1638,-6.1864,-6.2563,-6.3736,-6.595,-6.8148,0.0,-7.5209,-7.886,-8.2607,-8.686,-8.9913,-9.2119,-9.3807,-9.5313,-9.6468,-9.6669,-9.7824,-9.9381,-10.1239,-10.154,-10.1691,-10.2093,-10.2544,-10.3047,-10.3448,-10.39,-10.4202,-10.4302,-10.4352,-10.4553,-10.5106,-10.5256,-10.5507,-10.5809,-10.5809,-10.5809,-10.5809,-10.5809,-10.6083,-10.6905,-10.8213,-11.004,-11.221,-11.5522,-11.8048,-12.033,-12.2988,-12.4467,-12.511,-12.5867,-12.6098,-12.6098,-12.6098,-12.5799,-12.52,-12.4422,-12.3824,-12.3285,-5.2383,-5.2578,-5.2851,-5.3281,-5.3359,-5.3594,-5.4219,-5.4531,-5.4726,-5.4961,-5.5351,-5.5859,-5.6523,-5.6758,-5.707,-5.75,-5.7734,-5.7812,-5.7578,-5.7344,-5.7148,-5.6914,-5.7109,-5.7226,-5.7226,-5.7656,-5.7969,-5.8203,-5.8437,-5.8594,-5.8828,-5.9531,-6.0156,-6.0781,-6.168,-6.2656,-6.3789,-6.5273,-6.6523,-6.7539,-6.8203,-6.9101,-7.0156,-7.0547,-7.1133,-7.1758,-7.2187,-7.25,-7.2578,-7.1914,-7.0156,-6.7969,-6.6875,-6.5508,-6.4101,-6.3008,-6.2695,-6.2539,-6.2381,-6.2614,-6.3512,-6.5108,-6.7099,0.0,0.0,-7.7286,-8.0905,-8.4455,-8.7416,-8.9735,-9.107,-9.241,-9.3606,-9.4158,-9.5162,-9.6368,-9.7774,-9.9431,-10.0686,-10.1189,-10.154,-10.1942,-10.2444,-10.2544,-10.2645,-10.2896,-10.3448,-10.39,-10.4101,-10.4403,-10.4804,-10.5407,-10.5407,-10.5558,-10.5809,-10.5809,-10.6358,-10.745,-10.8483,-11.0573,-11.3202,-11.6032,-11.8851,-12.1305,-12.3523,-12.4761,-12.5635,-12.5926,-12.5858,-12.5619,-12.5619,-12.538,-12.5021,-12.4003,-12.3465,-12.3046,-5.3008,-5.3086,-5.3437,-5.4141,-5.4258,-5.4531,-5.5312,-5.5508,-5.5625,-5.5898,-5.6211,-5.6914,-5.8086,-5.832,-5.8672,-5.9492,-5.9648,-5.9531,-5.918,-5.8984,-5.8711,-5.8359,-5.8633,-5.875,-5.875,-5.918,-5.9414,-5.9414,-5.9765,-5.9922,-5.9922,-6.043,-6.1055,-6.1758,-6.2422,-6.3398,-6.4531,-6.5859,-6.7031,-6.7969,-6.9219,-7.0312,-7.125,-7.1523,-7.2109,-7.2812,-7.2969,-7.2969,-7.293,-7.2851,-7.1406,-6.9531,-6.8242,-6.6992,-6.5703,-6.4453,-6.3906,-6.3633,-6.2812,-6.3011,-6.3442,-6.4573,-6.653,-6.9205,0.0,0.0,0.0,-8.2171,-8.4806,-8.7179,-8.8454,-8.9621,-9.0794,-9.1647,-9.2401,-9.3304,-9.4309,-9.692,-9.9079,-10.0084,-10.0335,-10.0586,-10.1189,-10.0787,-10.0787,-10.1339,-10.2193,-10.2846,-10.3147,-10.3599,-10.4151,-10.4804,-10.4905,-10.5206,-10.5608,-10.5708,-10.6632,-10.7993,-10.8752,-11.1103,-11.4496,-11.6539,-11.929,-12.251,-12.3701,-12.4936,-12.6098,-12.6098,-12.5739,-12.514,-12.514,-12.5021,-12.4602,-12.3524,-12.3046,-12.2866,-5.4023,-5.4492,-5.5039,-5.5156,-5.5156,-5.5312,-5.5781,-5.6172,-5.6875,-5.8008,-5.8203,-5.8594,-5.9453,-5.9922,-6.0312,-6.0859,-6.1211,-6.1406,-6.1367,-6.0664,-6.0195,-6.0156,-5.9844,-5.9687,-5.9687,-6.0078,-6.0312,-6.0312,-6.0312,-6.039,-6.039,-6.1211,-6.1601,-6.1758,-6.3398,-6.4375,-6.5,-6.664,-6.8086,-6.9336,-7.0195,-7.0664,-7.0898,-7.2109,-7.2851,-7.332,-7.414,-7.414,-7.3789,-7.3359,-7.2031,-7.043,-6.9531,-6.8359,-6.7031,-6.5742,-6.4844,-6.414,-6.3672,-6.3242,-6.3206,-6.3918,-6.538,-6.7482,-6.9867,0.0,-7.6086,-7.9978,0.0,-8.4533,-8.6535,0.0,0.0,-8.8885,-9.0191,-9.1446,-9.2049,-9.3304,-9.5062,-9.7623,-9.8326,-9.8879,-9.9431,-9.9431,-9.9632,-10.0184,-10.0335,-10.1038,-10.2544,-10.2695,-10.3197,-10.4252,-10.4754,-10.5005,-10.5055,-10.5558,-10.6632,-10.7993,-10.929,-11.1684,-11.5266,-11.7296,-12.0028,-12.3168,-12.3937,-12.4936,-12.6098,-12.6098,-12.5739,-12.514,-12.514,-12.4422,-12.3405,-12.3225,-12.2806,-12.2268,-5.4961,-5.5078,-5.5469,-5.5976,-5.6055,-5.6289,-5.6953,-5.7422,-5.8203,-5.9453,-5.9883,-6.0547,-6.1914,-6.2422,-6.2969,-6.3633,-6.3867,-6.375,0.0,-6.289,-6.2461,-6.1953,-6.1758,-6.168,-6.168,-6.1875,-6.1953,-6.1953,-6.1953,-6.1953,-6.1953,-6.2305,-6.2617,-6.289,-6.3867,-6.4844,-6.5742,-6.7265,-6.8476,-6.957,-7.0898,-7.1484,-7.1601,-7.2617,-7.3594,-7.4453,-7.4805,-7.4687,-7.4258,-7.3828,-7.2851,-7.1758,-7.1133,-7.0195,-6.9101,-6.7851,-6.7031,-6.6289,-6.5117,-6.4648,-6.4657,-6.4629,-6.5589,-6.6904,-6.9009,-7.1296,-7.3877,-7.7235,0.0,0.0,0.0,0.0,0.0,0.0,-8.8333,-8.9187,-8.9789,-9.0794,-9.2652,-9.5765,-9.6317,-9.6669,-9.7221,-9.7573,-9.7824,-9.8075,-9.8678,-9.9632,-10.1038,-10.1691,-10.2544,-10.3599,-10.3951,-10.4352,-10.5005,-10.5752,-10.6601,-10.7993,-11.0359,-11.268,-11.5266,-11.8104,-12.0761,-12.3226,-12.4408,-12.517,-12.6098,-12.6098,-12.5499,-12.4542,-12.4542,-12.4003,-12.3165,-12.2806,-12.2387,-12.2208,-5.6133,-5.6015,-5.6211,-5.6836,-5.6953,-5.7226,-5.8086,-5.8789,-5.9648,-6.0781,-6.1445,-6.2422,-6.4023,-6.4687,-6.5312,-6.6055,-6.6211,-6.6055,-6.543,-6.5234,-6.4844,-6.414,-6.3867,-6.3672,-6.3555,-6.332,-6.3203,-6.3203,-6.3086,-6.3047,-6.3047,-6.3164,-6.3398,-6.3711,-6.4375,-6.5312,-6.6484,-6.7773,-6.8984,-7.0117,-7.1484,-7.2305,-7.2812,-7.3437,-7.4453,-7.5547,-7.5469,-7.5234,-7.4883,-7.4297,-7.375,-7.3086,-7.2383,-7.1758,-7.1015,-6.9726,-6.8945,-6.8203,-6.668,-6.6133,-6.599,-6.553,-6.5945,-6.6834,-6.8517,-7.0098,-7.2242,-7.5237,-7.7702,0.0,0.0,0.0,-8.5224,-8.6074,0.0,-8.7429,-8.778,-8.8634,-9.0291,-9.3405,-9.4007,-9.4409,-9.4911,-9.5464,-9.5866,-9.6066,-9.7071,-9.8276,-9.9531,-10.0586,-10.1741,-10.2846,-10.3147,-10.3699,-10.4553,-10.567,-10.6838,-10.8058,-11.0838,-11.3516,-11.5977,-11.8795,-12.1547,-12.3464,-12.4702,-12.5403,-12.6098,-12.6098,-12.532,-12.4123,-12.4123,-12.3584,-12.2866,-12.2327,-12.2208,-12.2208,-5.7812,-5.7812,-5.7812,-5.7812,-5.7812,-5.8086,-5.9023,-6.0234,-6.1328,-6.2187,-6.3047,-6.4101,-6.543,-6.6289,-6.6992,-6.7383,-6.7851,-6.8086,-6.8086,-6.7656,-6.7187,-6.6758,-6.5937,-6.5312,-6.4883,-6.4101,-6.3672,-6.3672,-6.3203,-6.3047,-6.3047,-6.3437,-6.3672,-6.375,-6.5,-6.6055,-6.6914,-6.8242,-6.9765,-7.1367,-7.1836,-7.2969,-7.4531,-7.4531,-7.5351,-7.6406,-7.5976,-7.582,-7.5703,-7.4883,-7.4531,-7.4297,-7.3047,-7.2656,-7.2344,-7.1055,-7.0078,-6.9219,-6.8359,-6.75,-6.6719,-6.6289,-6.6317,-6.7027,-6.8252,-6.9469,-7.1243,-7.4352,-7.6572,-7.8581,-8.1048,-8.2984,-8.4349,-8.5125,-8.5974,0.0,0.0,-8.6525,-8.773,-9.004,-9.1195,-9.2149,-9.2652,-9.3154,-9.3706,-9.4259,-9.5313,-9.6669,-9.8326,-9.9431,-10.0586,-10.1691,-10.2796,-10.3348,-10.3448,-10.5265,-10.6904,-10.8193,-11.0892,-11.4034,-11.7296,-11.9346,-12.1789,-12.4232,-12.4936,-12.5403,-12.6098,-12.6098,-12.532,-12.4123,-12.4123,-12.3345,-12.2208,-12.2208,-12.2208,-12.2208,-5.8789,-5.918,-5.9297,-5.8437,-5.8555,-5.9219,-6.0625,-6.1484,-6.2461,-6.3906,-6.5078,-6.6289,-6.7617,-6.8476,-6.9297,-7.0,-7.0195,-7.0273,-7.0273,-7.0156,-6.9765,-6.9062,-6.8476,-6.7812,-6.7109,-6.6211,-6.5547,-6.4961,-6.4492,-6.414,-6.3906,-6.4023,-6.4101,-6.414,-6.5117,-6.5898,-6.6562,-6.8125,-6.9453,-7.0664,-7.2226,-7.3906,-7.539,-7.5117,-7.5625,-7.6484,-7.6328,-7.6289,-7.6211,-7.5625,-7.5469,-7.5351,-7.4961,-7.4609,-7.4219,-7.3476,-7.2695,-7.1836,-7.0937,-7.0078,-6.918,-6.8164,-6.7872,-6.7655,-6.8066,-6.9188,-7.075,-7.293,-7.5165,-7.7612,-7.9457,-8.1431,-8.3142,-8.4171,-8.4701,-8.5175,0.0,-8.527,-8.5671,-8.7178,-8.9036,-9.0342,-9.0894,-9.1095,-9.1748,-9.3053,-9.3807,-9.5162,-9.7171,-9.8326,-9.9431,-10.0536,-10.1691,-10.2444,-10.2796,-10.4622,-10.6404,-10.8193,-11.1517,-11.4372,-11.7296,-12.033,-12.2568,-12.4232,-12.5403,-12.5867,-12.6098,-12.5619,-12.4901,-12.4123,-12.3704,-12.2986,-12.2208,-12.2208,-12.2208,-12.2208,-5.9501,-6.0039,-6.0156,-5.918,-5.957,-6.0508,-6.1758,-6.2695,-6.3867,-6.543,-6.6758,-6.8086,-6.9336,-7.0273,-7.1055,-7.1758,-7.1992,-7.207,-7.207,-7.207,-7.1758,-7.1055,-7.043,-6.9805,-6.9101,-6.7969,-6.6992,-6.6289,-6.5703,-6.5117,-6.4531,-6.4531,-6.4492,-6.4375,-6.5195,-6.582,-6.6328,-6.8086,-6.9414,-7.0508,-7.2695,-7.4375,-7.5625,-7.5508,-7.5976,-7.6719,-7.6719,-7.6719,-7.668,-7.6211,-7.6211,-7.6289,-7.5976,-7.582,-7.5586,-7.5,-7.4414,-7.3789,-7.2734,-7.1953,-7.1133,-6.9805,-6.918,-6.897,-6.8698,-6.9558,-7.0652,-7.2412,-7.4371,-7.6418,-7.8607,-8.0487,-8.2273,-8.3553,-8.4004,-8.4354,0.0,-8.4215,-8.4315,-8.5019,-8.6927,-8.8433,-8.9136,-8.9387,-9.004,-9.1296,-9.2099,-9.3405,-9.5414,-9.6769,-9.8025,-9.9079,-10.0435,-10.1389,-10.1942,-10.3973,-10.6165,-10.8101,-11.161,-11.4864,-11.7518,-12.0704,-12.2988,-12.4232,-12.5575,-12.6098,-12.6038,-12.538,-12.4721,-12.4003,-12.3405,-12.2806,-12.2208,-12.2208,-12.2208,-12.2208,-6.0318,-6.0469,-6.039,-6.0039,-6.0937,-6.1875,-6.2422,-6.3945,-6.5508,-6.6797,-6.8125,-6.9414,-7.0664,-7.1523,-7.2226,-7.2695,-7.3086,-7.3359,-7.3359,-7.3359,-7.3203,-7.2773,-7.1953,-7.1289,-7.082,-6.918,-6.8086,-6.7617,-6.6719,-6.582,-6.5,-6.4961,-6.4726,-6.4375,-6.5195,-6.582,-6.6289,-6.8047,-6.957,-7.0937,-7.3086,-7.4492,-7.5273,-7.5703,-7.6445,-7.7187,-7.7187,-7.7187,-7.7148,-7.668,-7.6836,-7.707,-7.6211,-7.625,-7.6445,-7.5625,-7.5351,-7.5039,-7.3828,-7.3164,-7.25,-7.125,-7.0586,-7.0421,-7.0515,-7.0659,-7.1181,-7.3218,-7.4086,-7.5519,-7.8216,-8.0086,-8.1527,-8.2882,-8.3748,-8.4005,-8.3663,-8.3462,-8.3462,-8.3512,-8.4918,-8.6324,-8.7429,-8.8032,-8.8634,-8.9187,-9.0241,-9.1547,-9.3204,-9.4911,-9.6317,-9.7422,-9.9029,-10.0184,-10.0787,-10.3421,-10.5551,-10.7479,-11.1385,-11.4842,-11.7702,-12.0775,-12.2988,-12.4232,-12.5575,-12.6098,-12.6038,-12.532,-12.4721,-12.4003,-12.3405,-12.2746,-12.2208,-12.2208,-12.2208,-12.2208,-6.0129,-6.0902,-6.133,-6.1365,-6.1952,-6.2419,-6.3373,-6.5221,-6.6583,-6.7351,-6.9424,-7.0976,-7.1601,-7.2461,-7.3164,-7.3633,-7.375,-7.3945,-7.4258,-7.4258,-7.4062,-7.3672,-7.3437,-7.293,-7.2226,-7.1133,-7.0039,-6.8945,-6.7773,-6.6562,-6.543,-6.5117,-6.4726,-6.4375,-6.5195,-6.5664,-6.5859,-6.7617,-6.9648,-7.1758,-7.2969,-7.4375,-7.5703,-7.582,-7.6445,-7.7187,-7.7187,-7.7187,-7.7187,-7.707,-7.7305,-7.7617,-7.7422,-7.7617,-7.793,-7.7695,-7.7187,-7.6601,-7.6289,-7.539,-7.4414,-7.3789,-7.3281,-7.289,-7.2695,-7.2886,-7.2919,-7.3458,-7.468,-7.5767,-7.6547,-7.8456,-8.0394,-8.1433,-8.2775,-8.3606,-8.3562,-8.316,-8.301,-8.3462,-8.3864,-8.4767,-8.6274,-8.6877,-8.763,-8.8634,-8.9287,-9.0291,-9.1497,-9.3154,-9.456,-9.5665,-9.7322,-9.8678,-9.9632,-10.1582,-10.4156,-10.6852,-10.999,-11.3577,-11.7702,-12.0257,-12.2521,-12.4232,-12.5575,-12.6098,-12.5978,-12.4841,-12.4302,-12.4003,-12.2866,-12.2327,-12.2208,-12.2208,-12.2208,-12.2208,-6.0855,-6.1404,-6.2104,-6.2476,-6.2503,-6.2757,-6.4093,-6.5607,0.0,-6.8178,-6.9862,-7.1408,-7.2223,-7.3199,-7.4062,-7.4492,-7.4726,-7.4883,-7.5117,-7.5156,-7.5078,-7.4844,-7.4609,-7.418,-7.3555,-7.2695,-7.1601,-7.0273,-6.918,-6.789,-6.6406,-6.582,-6.5273,-6.4883,-6.5351,-6.5703,-6.5976,-6.789,-6.9922,-7.1836,-7.3086,-7.4414,0.0,-7.5976,-7.6562,-7.7187,-7.7187,-7.7187,-7.7187,-7.7422,-7.7656,-7.789,-7.8047,-7.8281,-7.8476,-7.8476,-7.8125,-7.7695,-7.7539,-7.6797,-7.5937,-7.5312,-7.4844,-7.4414,-7.3945,-7.395,-7.3992,-7.4346,-7.5153,-7.6217,-7.6877,-7.8724,-8.0618,-8.2233,-8.3067,-8.3833,-8.3745,-8.3562,-8.3512,-8.3813,-8.4064,-8.4466,-8.5169,-8.5521,-8.6174,-8.7278,-8.768,-8.8534,-9.0141,-9.1547,-9.2953,-9.4309,-9.5966,-9.7372,-9.8477,-10.026,-10.2865,-10.5492,-10.881,-11.2587,-11.6913,-11.9797,-12.2404,-12.4232,-12.5575,-12.6098,-12.5978,-12.4661,-12.4123,-12.4003,-12.2687,-12.2208,-12.2208,-12.2208,-12.2208,-12.2208,-6.2043,-6.2005,-6.2312,-6.291,-6.2829,-6.2969,-6.4155,-6.5685,0.0,-6.8541,0.0,-7.1317,-7.2467,-7.3851,-7.4844,-7.5273,-7.5625,-7.5859,-7.5859,-7.5859,-7.5859,-7.5859,-7.5508,-7.5117,-7.4765,-7.3906,-7.2851,-7.1601,-7.0664,-6.9297,-6.7539,-6.668,-6.6055,-6.5586,-6.5664,-6.5976,-6.668,-6.875,-7.039,-7.1758,-7.3398,-7.4609,-7.5469,-7.6211,-7.6797,-7.7187,-7.7187,-7.7187,-7.7265,-7.7695,-7.789,-7.8008,-7.8398,-7.8594,-7.8633,-7.8633,-7.8594,-7.8476,-7.8125,-7.7656,-7.7187,-7.6406,-7.5859,-7.5469,-7.5117,-7.4922,-7.5009,-7.5177,-7.6089,-7.6851,-7.8049,-7.9816,-8.1795,-8.3884,-8.4353,-8.4426,-8.4497,-8.4567,-8.4516,-8.4416,-8.4818,0.0,-8.4466,-8.4416,-8.4818,-8.5722,-8.5922,-8.6877,-8.8885,-9.0141,-9.1597,-9.3254,-9.4811,-9.6267,-9.7472,-9.9141,-10.1523,-10.3924,-10.7737,-11.1762,-11.5843,-11.9395,-12.2287,-12.4232,-12.5575,-12.6098,-12.5978,-12.4661,-12.4003,-12.3764,-12.2627,-12.2208,-12.2208,-12.2208,-12.2208,-12.2208,-6.223,-6.2381,-6.2664,-6.2449,-6.2534,-6.2685,-6.2258,-6.4553,-6.6423,-6.6786,-6.8964,-7.0983,-7.2399,-7.3425,-7.4742,-7.5742,-7.582,-7.5859,-7.5859,-7.5859,-7.5859,-7.5859,-7.582,-7.5703,-7.5625,-7.4805,-7.3906,-7.2969,-7.1406,-6.9726,-6.8086,-6.7148,-6.6328,-6.5586,-6.5937,-6.6953,-6.8476,-6.9922,-7.1484,-7.3086,-7.4062,-7.5234,-7.6289,-7.6445,-7.6797,-7.7187,-7.7187,-7.7187,-7.7265,-7.7695,-7.8047,-7.8398,-7.8867,-7.9219,-7.9492,-7.9492,-7.9258,-7.8984,-7.8867,-7.8594,-7.8203,-7.8047,-7.7695,-7.7344,-7.7265,-7.668,-7.6172,-7.6381,-7.685,-7.7411,-7.8163,-8.0731,-8.3291,-8.5328,-8.5498,-8.5563,-8.5649,-8.5671,-8.5521,-8.5069,-8.5069,-8.5119,-8.5019,-8.5019,-8.4918,-8.4667,-8.547,-8.6374,-8.7178,-8.9136,-9.1045,-9.2652,-9.3907,-9.5313,-9.687,-9.8174,-10.0542,-10.3401,-10.6771,-11.0937,-11.5843,-11.8993,-12.1879,-12.4232,-12.5575,-12.6098,-12.5978,-12.4661,-12.3465,-12.2507,-12.2268,-12.2208,-12.2208,-12.2208,-12.2208,-12.2208,-6.2412,-6.2018,-6.1621,-6.1903,-6.099,-6.0449,-6.0944,-6.2067,-6.3529,-6.5332,-6.8036,-7.012,-7.1425,-7.3464,-7.5191,-7.5944,-7.6467,-7.6953,-7.7187,-7.7187,-7.7187,-7.7187,-7.7031,-7.6797,-7.6562,-7.5937,-7.5039,-7.3945,-7.2695,-7.1172,-6.9453,-6.8359,-6.7539,-6.6953,-6.7383,-6.8281,-6.957,-7.082,-7.2265,-7.375,-7.4844,-7.5742,-7.6523,-7.6797,-7.7031,-7.7226,-7.7422,-7.7539,-7.7578,-7.8008,-7.8476,-7.8867,-7.9258,-7.957,-7.9726,-7.9726,-7.957,-7.9453,-7.9453,-7.9101,-7.8828,-7.8828,-7.8476,-7.8164,-7.8164,-7.7656,-7.7148,-7.6914,-7.7479,-7.8665,-8.0512,-8.2966,-8.5114,-8.6762,-8.72,-8.7442,-8.7252,-8.7278,-8.7077,-8.6475,-8.6425,-8.6174,-8.5671,-8.532,-8.4918,-8.4366,-8.4818,-8.5521,-8.6324,-8.8182,-9.004,-9.1697,-9.3053,-9.4459,-9.5815,-9.7666,-9.9726,-10.1859,-10.6181,-11.0144,-11.4347,-11.8533,-12.1587,-12.376,-12.5456,-12.5858,-12.5499,-12.4183,-12.3046,-12.2208,-12.2208,-12.2208,-12.2208,-12.2208,-12.2208,-12.2208,-6.2075,-6.1289,-6.0515,-6.1247,-5.956,-5.8478,-5.9165,-5.9549,-6.0607,-6.3702,-6.6441,-6.8645,-7.0242,-7.3238,-7.5341,-7.6095,-7.7401,-7.8125,-7.8476,-7.8476,-7.8476,-7.8476,-7.8125,-7.7773,-7.7305,-7.6914,-7.6015,-7.4726,-7.3789,-7.2461,-7.082,-6.9609,-6.8945,-6.8594,-6.9062,-6.9726,-7.0742,-7.1914,-7.3164,-7.4492,-7.5586,-7.6289,-7.668,-7.707,-7.7187,-7.7265,-7.7656,-7.789,-7.8008,-7.8476,-7.8828,-7.914,-7.9609,-7.9726,-7.9726,-7.9726,-7.9726,-7.9726,-7.9726,-7.9492,-7.9219,-7.9219,-7.8906,-7.8594,-7.8594,-7.8281,-7.7812,-7.7422,-7.8323,-8.0165,-8.3509,-8.536,-8.6829,-8.8446,-8.9098,-8.932,-8.9005,-8.8986,-8.8735,-8.8032,-8.7881,-8.7429,-8.6425,-8.547,-8.4818,-8.4315,-8.4215,-8.4667,-8.5772,-8.7278,-8.8935,-9.0693,-9.225,-9.3656,-9.4911,-9.7208,-9.9169,-10.0739,-10.5529,-10.9383,-11.3247,-11.7884,-12.1176,-12.3289,-12.5045,-12.5389,-12.4841,-12.3644,-12.2806,-12.2208,-12.2208,-12.2208,-12.2208,-12.2208,-12.2208,-12.2208,-6.1337,-6.0585,-5.9962,-6.0173,-5.888,-5.733,-5.6858,-5.7314,-5.888,-6.1815,-6.4118,-6.6509,-6.9304,-7.2108,-7.4661,-7.6518,-7.7829,-7.8398,-7.8476,-7.8476,-7.8476,-7.8476,-7.8437,-7.8242,-7.7773,-7.7344,-7.6484,-7.5156,-7.3945,-7.2617,-7.1289,-7.039,-6.9961,-6.9922,-7.0351,-7.125,-7.25,-7.3398,-7.4531,-7.5742,-7.6211,-7.6719,-7.7148,-7.7187,-7.7187,-7.7265,-7.7656,-7.8047,-7.8476,-7.8867,-7.9062,-7.914,-7.9609,-7.9726,-7.9726,-7.9726,-7.9726,-7.9726,-7.9726,-7.9687,-7.9648,-7.9648,-7.9336,-7.9023,-7.9023,-7.8711,-7.8281,-7.7812,-7.9388,-8.1825,-8.5596,-8.6887,-8.834,-9.1063,-9.1003,-9.0556,-9.0657,-9.0693,-9.0291,-8.9287,-8.8684,-8.8132,-8.7529,-8.5571,-8.4366,-8.4315,-8.3864,-8.4064,-8.5169,-8.6324,-8.7931,-9.009,-9.1296,-9.2702,-9.4309,-9.6156,-9.8468,-10.1308,-10.4648,-10.892,-11.3563,-11.7095,-12.0523,-12.3289,-12.464,-12.4919,-12.4123,-12.3465,-12.2806,-12.2208,-12.2208,-12.2208,-12.2208,-12.2208,-12.2208,-12.2208,-5.9855,-5.9101,-5.8755,-5.8555,-5.7327,-5.6297,0.0,-5.6382,-5.7803,-5.98,-6.3034,-6.6325,-6.8868,-7.217,-7.5117,-7.643,-7.8154,-7.8945,-7.9219,-7.9219,-7.9219,-7.9219,-7.8984,-7.875,-7.8594,-7.793,-7.7187,-7.6406,-7.5117,-7.3945,-7.293,-7.207,-7.164,-7.164,-7.2109,-7.2851,-7.3906,-7.4765,-7.5547,-7.6289,-7.6719,-7.7031,-7.7187,-7.7187,-7.7187,-7.7305,-7.793,-7.832,-7.8594,-7.9258,-7.9492,-7.9492,-7.9687,-7.9726,-7.9726,-7.9726,-7.9726,-7.9726,-7.9726,-7.9726,-7.9726,-7.9726,-7.9609,-7.9492,-7.9492,-7.914,-7.8789,-7.9226,-8.1354,-8.3951,-8.6687,-8.887,-9.0742,-9.2187,-9.2972,-9.3076,-9.236,-9.2149,-9.1547,-9.0442,-8.9538,-8.8634,-8.768,-8.5922,-8.4667,-8.4315,-8.3813,-8.3813,-8.4567,-8.5671,-8.7178,-8.9036,-9.0542,-9.2049,-9.3706,-9.6206,-9.8373,-10.0395,-10.4663,-10.8373,-11.159,-11.5876,-12.0118,-12.3928,-12.4272,-12.4433,-12.4003,-12.2986,-12.2387,-12.2208,-12.2208,-12.2208,-12.2208,-12.2208,-12.2208,-12.2208,-5.8148,-5.7622,-5.6949,-5.6864,-5.5829,-5.4984,-5.4904,-5.5668,-5.7151,-5.869,-6.2489,-6.5912,-6.8555,-7.245,-7.5152,-7.6812,-7.8473,-7.9687,-8.0078,-8.0078,-8.0078,-7.9922,-7.9609,-7.9336,-7.9101,-7.8515,-7.789,-7.7187,-7.6133,-7.5117,-7.414,-7.3398,-7.3164,-7.3281,-7.3672,-7.4375,-7.5195,-7.582,-7.6328,-7.6719,-7.707,-7.7187,-7.7187,-7.7187,-7.7187,-7.7305,-7.8164,-7.8476,-7.8594,-7.9453,-7.9726,-7.9726,-7.9726,-7.9726,-7.9726,-7.9726,-7.9726,-7.9726,-7.9726,-7.9726,-7.9726,-7.9726,-7.9726,-7.9726,-7.9726,-7.9492,-7.9518,-8.0631,-8.3007,-8.5593,-8.8002,-9.0321,-9.2477,-9.3717,-9.4553,-9.4916,-9.4309,-9.3505,-9.2551,-9.1346,-9.0191,-8.9086,-8.7931,-8.6324,-8.5219,-8.4818,-8.4165,-8.3914,-8.4315,-8.5219,-8.6525,-8.8132,-8.9689,-9.1296,-9.3154,-9.5808,-9.8174,-9.9844,-10.4374,-10.7683,-11.0418,-11.6129,-12.0474,-12.3869,-12.4194,-12.4123,-12.4003,-12.2746,-12.2208,-12.2208,-12.2208,-12.2208,-12.2208,-12.2208,-12.2208,-12.2208,-5.6279,-5.5728,-5.5204,-5.5519,-5.4563,-5.4036,-5.4036,-5.5164,-5.6857,-5.842,-6.1856,-6.5411,-6.8427,-7.2151,-7.4991,-7.7228,-7.9207,-8.0547,-8.0937,-8.1015,-8.0781,-8.039,-8.039,-7.9961,-7.9101,-7.9101,-7.8476,-7.7187,-7.6719,-7.582,-7.4609,-7.414,-7.418,-7.4609,-7.5,-7.5664,-7.6484,-7.6484,-7.6797,-7.7187,-7.7187,-7.7187,-7.7187,-7.7187,-7.7187,-7.7305,-7.8164,-7.8476,-7.8594,-7.9453,-7.9726,-7.9726,-7.9726,-7.9726,-7.9726,-7.9726,-7.9726,-7.9726,-7.9726,-7.9726,-7.9726,-7.9726,-7.9726,-7.9726,-7.9726,-7.9726,-8.021,-8.2112,-8.3627,-8.5809,-8.9451,-9.1098,-9.2856,-9.5698,-9.5894,-9.5763,-9.5916,-9.4911,-9.3606,-9.1949,-9.0794,-8.9689,-8.8534,-8.6927,-8.6023,-8.5973,-8.4918,-8.4315,-8.4315,-8.4818,-8.5922,-8.758,-8.8684,-9.0392,-9.2551,-9.4811,-9.7472,-10.0356,-10.3576,-10.695,-11.1077,-11.8008,-12.2174,-12.323,-12.3965,-12.4123,-12.4003,-12.2746,-12.2208,-12.2208,-12.2208,-12.2208,-12.2208,-12.2208,-12.2208,-12.2208,-5.5102,-5.5158,-5.4707,-5.4925,-5.4544,-5.4128,-5.4,-5.5342,-5.7254,-5.9031,-6.2881,-6.6318,-6.9928,-7.326,-7.5842,-7.8137,-7.9786,-8.082,-8.1015,-8.1015,-8.0937,-8.082,-8.0547,-8.0273,-7.9961,-7.9375,-7.8906,-7.8476,-7.7461,-7.6445,-7.5469,-7.5351,-7.5469,-7.5898,-7.6055,-7.6445,-7.6953,-7.6953,-7.707,-7.7187,-7.7187,-7.7187,-7.7187,-7.7187,-7.7187,-7.7305,-7.8164,-7.8476,-7.8594,-7.9453,-7.9726,-7.9726,-7.9726,-7.9726,-7.9726,-7.9726,-7.9726,-7.9726,-7.9726,-7.9726,-7.9726,-7.9726,-7.9726,-7.9726,-7.9726,-8.0889,-8.2558,-8.4461,-8.6757,-8.9062,-9.1199,-9.3268,-9.5137,-9.6056,-9.7002,-9.7269,-9.6619,-9.5514,-9.4158,-9.2551,-9.1045,-8.9689,-8.8534,-8.7278,-8.6525,-8.6525,-8.6174,-8.5822,-8.547,-8.5973,-8.7027,-8.8684,-8.9839,-9.1296,-9.3154,-9.4962,-9.7472,-10.0356,-10.312,-10.7414,-11.2908,-11.8237,-12.1471,-12.264,-12.4263,-12.4542,-12.4003,-12.3225,-12.2567,-12.2208,-12.2208,-12.2208,-12.2208,-12.2208,-12.2208,-12.2208,-5.4351,-5.4406,-5.4227,-5.4292,-5.4135,-5.427,-5.3815,-5.5809,-5.7735,-5.9849,-6.3375,-6.6966,-7.0848,-7.4154,-7.6618,-7.8744,-8.0327,-8.1328,-8.1484,-8.1523,-8.1406,-8.1289,-8.082,-8.0547,-8.039,-7.9687,-7.9258,-7.9101,-7.7812,-7.6914,-7.6367,-7.6211,-7.625,-7.6484,-7.668,-7.6914,-7.7187,-7.7187,-7.7187,-7.7187,-7.7187,-7.7187,-7.7187,-7.7187,-7.7305,-7.7539,-7.8242,-7.8594,-7.8828,-7.9492,-7.9726,-7.9726,-7.9726,-7.9726,-7.9726,-7.9726,-7.9726,-7.9726,-7.9726,-7.9726,-7.9726,-7.9726,-7.9726,-7.9726,-8.0027,-8.1786,-8.3783,-8.5837,-8.8291,-9.0909,-9.2894,-9.4769,-9.6413,-9.6969,-9.7906,-9.8276,-9.7221,-9.6066,-9.4761,-9.3053,-9.1647,-9.0392,-8.9488,-8.8534,-8.8032,-8.8032,-8.7831,-8.778,-8.7831,-8.758,-8.8182,-8.9839,-9.0794,-9.2149,-9.4007,-9.5464,-9.7575,-10.0462,-10.3888,-10.8237,-11.3618,-11.7816,-12.059,-12.2345,-12.3922,-12.4552,-12.4123,-12.3405,-12.2806,-12.2208,-12.2208,-12.2208,-12.2208,-12.2208,-12.2208,-12.2208,-5.3628,-5.3654,-5.3654,-5.3681,-5.3948,-5.4109,-5.4162,-5.6277,-5.8273,-5.9933,-6.3452,-6.7323,-7.1257,-7.4762,-7.7284,-7.9236,-8.079,-8.1914,-8.2304,-8.2304,-8.2148,-8.1758,-8.1289,-8.082,-8.0429,-7.9961,-7.9492,-7.9101,-7.789,-7.7305,-7.7265,-7.6836,-7.6601,-7.668,-7.707,-7.7265,-7.7265,-7.7187,-7.7187,-7.7187,-7.7187,-7.7187,-7.7187,-7.7226,-7.7461,-7.789,-7.8359,-7.875,-7.914,-7.9609,-7.9726,-7.9726,-7.9726,-7.9726,-7.9726,-7.9726,-7.9726,-7.9726,-7.9726,-7.9726,-7.9726,-7.9726,-7.9726,-8.0027,-8.0928,-8.2422,-8.4161,-8.6759,-8.9257,-9.1642,-9.3955,-9.5832,-9.7214,-9.8033,-9.8713,-9.8828,-9.7724,-9.6669,-9.5313,-9.3656,-9.2551,-9.1697,-9.1095,-9.0593,-9.0291,-9.0291,-8.9789,-8.994,-9.1045,-8.9639,-8.9538,-9.1095,-9.1697,-9.3053,-9.5162,-9.6267,-9.7877,-10.0616,-10.553,-10.9865,-11.3674,-11.6853,-11.9823,-12.2345,-12.3632,-12.3974,-12.4123,-12.3405,-12.2806,-12.2208,-12.2208,-12.2208,-12.2208,-12.2208,-12.2208,-12.2208,0.0,-5.3654,-5.3734,-5.3975,-5.4082,-5.4269,-5.4696,-5.6553,-5.8443,-6.0515,-6.3912,-6.7679,-7.1632,-7.4873,-7.7765,-7.9653,-8.1254,-8.2226,-8.2304,-8.2304,-8.2265,-8.2148,-8.1406,-8.0937,-8.082,-8.0117,-7.9492,-7.9101,-7.8789,-7.8476,-7.8164,-7.8047,-7.8008,-7.8008,-7.7773,-7.7656,-7.7656,-7.7305,-7.7187,-7.7187,-7.7187,-7.7187,-7.7226,-7.7539,-7.7695,-7.793,-7.8672,-7.9023,-7.914,-7.9609,-7.9726,-7.9726,-7.9726,-7.9726,-7.9726,-7.9726,-7.9726,-7.9726,-7.9726,-7.9726,-7.9726,-7.9726,-8.0027,-8.0889,-8.2422,-8.4456,-8.6759,-8.9653,-9.2377,-9.4563,-9.6343,-9.7729,-9.8678,-9.8791,-9.8963,-9.8828,-9.7724,-9.697,-9.5916,-9.4208,-9.3405,-9.2802,-9.225,-9.2049,-9.1999,-9.1999,-9.1898,-9.2099,-9.2802,-9.2451,-9.2601,-9.3405,-9.4007,-9.4962,-9.6317,-9.7021,-9.8938,-10.2303,-10.6573,-10.9797,-11.2202,-11.6102,-11.9181,-12.1588,-12.2926,-12.3617,-12.4123,-12.3405,-12.2806,-12.2208,-12.2208,-12.2208,-12.2208,-12.2208,-12.2208,-12.2208,-5.4055,-5.4055,-5.4109,-5.4296,-5.4296,-5.4483,-5.4937,-5.6745,-5.8641,-6.1049,-6.4219,-6.8003,-7.1769,-7.5299,-7.7876,-7.949,-8.137,-8.2304,-8.2304,-8.2304,-8.2304,-8.2304,-8.1679,-8.1211,-8.1015,-8.0351,-7.9805,-7.9375,-7.9219,-7.8984,-7.875,-7.8594,-7.8476,-7.8476,-7.8242,-7.8125,-7.8125,-7.7656,-7.7461,-7.7461,-7.7461,-7.7461,-7.7539,-7.793,-7.8242,-7.8476,-7.8906,-7.9219,-7.9453,-7.9648,-7.9726,-7.9726,-7.9726,-7.9726,-7.9726,-7.9726,-7.9726,-7.9726,-7.9726,-7.9726,-7.9726,-7.9726,-8.0289,-8.1188,-8.2976,-8.5045,-8.7632,-9.0798,-9.3448,-9.5948,-9.7671,-9.8556,-9.9288,-9.9562,-9.9322,-9.8929,-9.8075,-9.7221,-9.6317,-9.5112,-9.4309,-9.3656,-9.3304,-9.3304,-9.3304,-9.3304,-9.3304,-9.3556,-9.4158,-9.4158,-9.4409,-9.4962,-9.5313,-9.6066,-9.7472,-9.8527,-10.0457,-10.297,-10.6067,-10.9094,-11.19,-11.4964,-11.818,-12.0944,-12.2168,-12.3031,-12.3704,-12.3285,-12.2806,-12.2208,-12.2208,-12.2208,-12.2208,-12.2208,-12.2208,-12.2208,-5.4509,-5.4563,-5.4563,-5.4563,-5.4589,-5.4723,-5.5017,-5.6938,-5.8868,-6.0865,-6.4403,-6.823,-7.1446,-7.5015,-7.7876,-7.949,-8.137,-8.2304,-8.2304,-8.2304,-8.2304,-8.2304,-8.1914,-8.1523,-8.1133,-8.0664,-8.0273,-7.9844,-7.9453,-7.9258,-7.9219,-7.8828,-7.8633,-7.8633,-7.8594,-7.8594,-7.8515,-7.8125,-7.793,-7.793,-7.793,-7.793,-7.793,-7.8398,-7.8789,-7.9101,-7.914,-7.9453,-7.9726,-7.9726,-7.9726,-7.9726,-7.9726,-7.9726,-7.9726,-7.9726,-7.9726,-7.9726,-7.9726,-7.9726,-7.9726,-7.9726,-8.0328,-8.1487,-8.2976,-8.5338,-8.8211,-9.1084,-9.424,-9.6878,-9.8359,-9.9483,-9.9999,-10.0184,-9.9682,-9.9079,-9.8477,-9.7573,-9.6719,-9.6066,-9.5162,-9.456,-9.4459,-9.4459,-9.4459,-9.4459,-9.4459,-9.4711,-9.5162,-9.5213,-9.5464,-9.6016,-9.6066,-9.692,-9.8477,-9.9983,-10.1571,-10.297,-10.55,-10.8332,-11.1652,-11.4231,-11.7177,-12.0359,-12.1583,-12.2446,-12.3165,-12.3046,-12.2687,-12.2208,-12.2208,-12.2208,-12.2208,-12.2208,-12.2208,-12.2208,-5.4563,-5.4563,-5.4563,-5.4563,-5.4777,-5.5044,-5.5311,-5.7268,-5.8875,-6.0186,-6.4226,-6.7871,-7.0799,-7.466,-7.7876,-7.949,-8.137,-8.2304,-8.2304,-8.2304,-8.2304,-8.2304,-8.1914,-8.164,-8.1601,-8.1133,-8.0703,-8.0273,-8.0195,-7.9961,-7.9609,-7.957,-7.9531,-7.9492,-7.914,-7.8984,-7.8984,-7.8515,-7.8359,-7.8359,-7.8359,-7.8359,-7.8398,-7.8828,-7.9023,-7.914,-7.9492,-7.9687,-7.9726,-7.9726,-7.9726,-7.9726,-7.9726,-7.9726,-7.9726,-7.9726,-7.9726,-7.9726,-7.9726,-7.9726,-7.9726,-7.9726,-8.0889,-8.2382,-8.3865,-8.705,-9.0227,-9.2832,-9.6144,-9.8941,-9.9929,-10.0878,-10.1389,-10.0837,-10.0285,-9.9531,-9.8527,-9.8226,-9.7774,-9.6719,-9.6468,-9.6167,-9.5665,-9.5665,-9.5665,-9.5665,-9.5665,-9.5665,-9.5765,-9.5765,-9.6066,-9.6569,-9.7071,-9.7924,-9.9029,-9.9783,-10.1166,-10.297,-10.5136,-10.7706,-11.0906,-11.3486,-11.6482,-11.966,-12.0353,-12.1616,-12.3165,-12.2567,-12.2268,-12.2208,-12.2208,-12.2208,-12.2208,-12.2208,-12.2208,-12.2208,-5.4563,-5.4563,-5.4563,-5.4563,-5.4803,-5.5097,-5.5391,-5.6685,-5.8293,-5.9938,-6.3265,-6.6921,-7.0475,-7.3734,-7.6962,-7.949,-8.1096,-8.172,-8.2304,-8.2304,-8.2304,-8.2304,-8.2148,-8.1914,-8.1679,-8.125,-8.0898,-8.0703,-8.0508,-8.0273,-8.0078,-7.9844,-7.9726,-7.9726,-7.9492,-7.9453,-7.9375,-7.8984,-7.8828,-7.8828,-7.8828,-7.8828,-7.8867,-7.9258,-7.9453,-7.9453,-7.9648,-7.9726,-7.9726,-7.9726,-7.9726,-7.9726,-7.9726,-7.9726,-7.9726,-7.9726,-7.9726,-7.9726,-7.9726,-7.9726,-7.9687,-8.0328,-8.1228,-8.272,-8.5045,-8.7965,-9.1084,-9.424,-9.7297,-9.9485,-10.0617,-10.1244,-10.154,-10.0988,-10.0385,-9.9732,-9.8929,-9.8527,-9.8176,-9.7673,-9.7322,-9.697,-9.6418,-9.6317,-9.6217,-9.5916,-9.5916,-9.5916,-9.5916,-9.5916,-9.6167,-9.6719,-9.7573,-9.8376,-9.918,-9.9732,-10.0862,-10.2509,-10.4512,-10.7176,-11.0471,-11.293,-11.5913,-11.8845,-12.0,-12.1141,-12.2567,-12.2268,-12.2208,-12.2208,-12.2208,-12.2208,-12.2208,-12.2208,-12.2208,-12.2208,-5.4563,-5.4563,-5.4563,-5.4563,-5.4857,-5.5177,-5.5391,-5.6406,-5.807,-5.9604,-6.2631,-6.5904,-6.9826,-7.3057,-7.5972,-7.9175,-8.0431,-8.1408,-8.2304,-8.2304,-8.2304,-8.2304,-8.2304,-8.2148,-8.1875,-8.1523,-8.1289,-8.1172,-8.082,-8.0586,-8.039,-8.0039,-7.9844,-7.9726,-7.9726,-7.9726,-7.9726,-7.9375,-7.9258,-7.9258,-7.9258,-7.9258,-7.9258,-7.9609,-7.9726,-7.9726,-7.9726,-7.9726,-7.9726,-7.9726,-7.9726,-7.9726,-7.9726,-7.9726,-7.9726,-7.9726,-7.9726,-7.9726,-7.9726,-7.9726,-8.0027,-8.0628,-8.1527,-8.3273,-8.6175,-8.8789,-9.1653,-9.5079,-9.7895,-9.9805,-10.1156,-10.1611,-10.1691,-10.1138,-10.0586,-10.0034,-9.9431,-9.8929,-9.8527,-9.8376,-9.7975,-9.7573,-9.697,-9.682,-9.6569,-9.6167,-9.5966,-9.5966,-9.6066,-9.6066,-9.6418,-9.7071,-9.7924,-9.8627,-9.918,-9.9582,-10.066,-10.2099,-10.3992,-10.654,-10.9873,-11.2318,-11.5287,-11.8206,-11.9589,-12.0904,-12.2208,-12.2208,-12.2208,-12.2208,-12.2208,-12.2208,-12.2208,-12.2208,-12.2208,-12.2208,-5.4563,-5.4563,-5.4563,-5.4563,-5.5017,-5.5391,-5.5418,-5.6568,-5.7956,-5.8991,-6.227,-6.5246,-6.8165,-7.2091,-7.5617,-7.8507,-8.0118,-8.1408,-8.2304,-8.2304,-8.2304,-8.2304,-8.2304,-8.2304,-8.2265,-8.2265,-8.2031,-8.164,-8.164,-8.1172,-8.039,-8.0312,-8.0117,-7.9726,-7.9726,-7.9726,-7.9726,-7.9687,-7.9687,-7.9687,-7.9687,-7.9687,-7.9687,-7.9726,-7.9726,-7.9726,-7.9726,-7.9726,-7.9726,-7.9726,-7.9726,-7.9726,-7.9726,-7.9726,-7.9726,-7.9726,-7.9726,-7.9726,-7.9726,-7.9726,-8.0027,-8.0628,-8.2124,-8.3865,-8.6218,-8.9609,-9.3069,-9.5311,-9.8121,-10.0617,-10.1424,-10.191,-10.2293,-10.1691,-10.1189,-10.0586,-10.0034,-9.9431,-9.8929,-9.8427,-9.8326,-9.8125,-9.7573,-9.7071,-9.6719,-9.6669,-9.6217,-9.6167,-9.6619,-9.6669,-9.7171,-9.8226,-9.8326,-9.8627,-9.918,-9.923,-10.0255,-10.2099,-10.3628,-10.585,-10.9029,-11.1651,-11.4604,-11.7568,-11.8943,-12.0489,-12.2208,-12.2208,-12.2208,-12.2208,-12.2208,-12.2208,-12.2208,-12.2208,-12.2208,-12.2208,-5.4563,-5.4563,-5.4616,-5.4803,-5.5177,-5.5498,-5.5685,-5.6395,-5.7311,-5.8683,-6.0997,-6.3896,-6.7871,-7.1122,-7.466,-7.8192,-7.949,-8.0745,-8.2304,-8.2304,-8.2304,-8.2304,-8.2304,-8.2304,-8.2304,-8.2304,-8.2265,-8.2109,-8.1523,-8.1133,-8.0781,-8.0195,-7.9883,-7.9726,-7.9726,-7.9726,-7.9726,-7.9726,-7.9726,-7.9726,-8.0039,-7.9961,-7.9726,-8.0039,-7.9961,-7.9726,-7.9726,-7.9726,-7.9726,-7.9726,-7.9726,-7.9726,-7.9726,-7.9726,-7.9726,-7.9726,-7.9726,-7.9726,-7.9726,-7.9726,-8.0027,-8.1228,-8.2382,-8.4414,-8.8168,-9.0798,-9.3632,-9.7297,-9.9262,-10.0617,-10.201,-10.2228,-10.2344,-10.1791,-10.154,-10.1038,-10.0134,-9.9833,-9.9531,-9.8929,-9.8879,-9.8678,-9.8125,-9.7874,-9.7623,-9.7272,-9.7071,-9.7071,-9.7272,-9.7573,-9.7924,-9.8376,-9.8678,-9.8979,-9.918,-9.918,-10.0053,-10.1586,-10.2803,-10.532,-10.8622,-11.1039,-11.3922,-11.6929,-11.8767,-12.0192,-12.1609,-12.2028,-12.2208,-12.2208,-12.2208,-12.2208,-12.2208,-12.2208,-12.2208,-12.2208,-5.4563,-5.4563,-5.467,-5.4964,-5.5258,-5.5525,-5.5845,-5.6113,-5.7001,-5.8655,-6.0635,-6.3265,-6.7217,-7.0508,-7.3734,-7.7876,-7.9175,-8.0431,-8.2344,-8.2304,-8.2304,-8.2304,-8.2304,-8.2304,-8.2304,-8.2304,-8.2265,-8.2148,-8.1523,-8.1054,-8.0781,-8.0195,-7.9844,-7.9726,-7.9726,-7.9726,-7.9726,-7.9726,-7.9805,-7.9961,-8.0273,-8.0273,-8.0117,-8.0312,-8.0195,-7.9922,-7.9765,-7.9726,-7.9726,-7.9726,-7.9726,-7.9726,-7.9726,-7.9726,-7.9726,-7.9726,-7.9726,-7.9726,-7.9726,-8.0027,-8.0328,-8.1826,-8.3273,-8.5297,-8.9365,-9.1937,-9.452,-9.8395,-10.0076,-10.1106,-10.2278,-10.2544,-10.2394,-10.2042,-10.1791,-10.1389,-10.0435,-10.0084,-9.9833,-9.928,-9.918,-9.9029,-9.8678,-9.8477,-9.8226,-9.7874,-9.7673,-9.7673,-9.7824,-9.8326,-9.8627,-9.8627,-9.9029,-9.918,-9.918,-9.918,-9.9951,-10.1228,-10.2743,-10.4843,-10.8266,-11.0609,-11.3296,-11.646,-11.8121,-11.9718,-12.119,-12.1669,-12.1968,-12.2208,-12.2208,-12.2208,-12.2208,-12.2208,-12.2208,-12.2208,-5.4563,-5.4563,-5.467,-5.4964,-5.5258,-5.5551,-5.5845,-5.6113,-5.7001,-5.8655,-6.0635,-6.2933,-6.6593,-6.9859,-7.3413,-7.6962,-7.886,-8.0431,-8.2344,-8.2304,-8.2304,-8.2304,-8.2304,-8.2304,-8.2304,-8.2304,-8.2109,-8.1679,-8.1679,-8.125,-8.039,-8.039,-8.0156,-7.9726,-7.9726,-7.9726,-7.9726,-7.9726,-7.9961,-8.039,-8.039,-8.0625,-8.0937,-8.0547,-8.039,-8.0312,-7.9883,-7.9726,-7.9726,-7.9726,-7.9726,-7.9726,-7.9726,-7.9726,-7.9726,-7.9726,-7.9726,-7.9726,-7.9726,-8.0328,-8.1228,-8.1826,-8.4414,-8.7341,-8.9653,-9.3069,-9.6469,-9.8668,-10.0298,-10.1643,-10.2544,-10.2544,-10.2544,-10.2544,-10.2042,-10.154,-10.0988,-10.0385,-9.9833,-9.928,-9.918,-9.918,-9.918,-9.8678,-9.8376,-9.8376,-9.7874,-9.7824,-9.8376,-9.8879,-9.918,-9.918,-9.918,-9.918,-9.918,-9.918,-9.9951,-10.1228,-10.2743,-10.493,-10.8093,-10.9996,-11.3131,-11.6439,-11.717,-11.8769,-12.119,-12.119,-12.1609,-12.2208,-12.2208,-12.2208,-12.2208,-12.2208,-12.2208,-12.2208,-5.4563,-5.4723,-5.4964,-5.5258,-5.5551,-5.5845,-5.6139,-5.6246,-5.7001,-5.8655,-6.0635,-6.2933,-6.6593,-6.9859,-7.3413,-7.6962,-7.886,-8.0431,-8.2344,-8.2304,-8.2304,-8.2304,-8.2304,-8.2304,-8.2304,-8.2304,-8.2109,-8.1679,-8.1367,-8.0937,-8.039,-8.0078,-7.9844,-7.9726,-7.9726,-7.9726,-7.9726,-7.9726,-7.9961,-8.039,-8.0703,-8.0898,-8.1015,-8.125,-8.0898,-8.0351,-8.0234,-7.9961,-7.9726,-7.9726,-7.9726,-7.9726,-7.9726,-7.9726,-7.9726,-7.9726,-7.9726,-7.9726,-7.9726,-8.0628,-8.1826,-8.272,-8.475,-8.7632,-9.1084,-9.3913,-9.6745,-9.9485,-10.0837,-10.1643,-10.2544,-10.2544,-10.2544,-10.2544,-10.2394,-10.1942,-10.1038,-10.0686,-10.0285,-9.928,-9.918,-9.918,-9.918,-9.9029,-9.8929,-9.8929,-9.8778,-9.8778,-9.8929,-9.9079,-9.918,-9.918,-9.918,-9.918,-9.918,-9.9695,-10.0208,-10.1228,-10.3494,-10.5913,-10.8093,-11.0935,-11.3589,-11.5854,-11.7438,-11.8737,-11.9814,-12.0352,-12.0951,-12.149,-12.149,-12.1789,-12.2208,-12.2208,-12.2208,-12.2208,-5.4563,-5.4777,-5.5097,-5.5391,-5.5685,-5.5979,-5.6273,-5.63,-5.7001,-5.8655,-6.0635,-6.2933,-6.6593,-6.9859,-7.3413,-7.6962,-7.949,-8.1057,-8.2304,-8.2304,-8.2304,-8.2304,-8.2304,-8.2304,-8.2304,-8.2304,-8.2031,-8.1406,-8.1133,-8.0703,-8.0117,-7.9844,-7.9726,-7.9726,-7.9726,-7.9726,-7.9726,-7.9726,-7.9961,-8.0429,-8.082,-8.1133,-8.1289,-8.1601,-8.1367,-8.0898,-8.0664,-8.0351,-7.9961,-7.9961,-7.9844,-7.9726,-7.9726,-7.9726,-7.9726,-7.9726,-7.9726,-7.9726,-8.0027,-8.1228,-8.3017,-8.4456,-8.6467,-8.8789,-9.1937,-9.5032,-9.7895,-9.9756,-10.1156,-10.196,-10.2544,-10.2544,-10.2544,-10.2544,-10.2544,-10.2093,-10.1038,-10.0887,-10.0486,-9.9331,-9.918,-9.918,-9.918,-9.918,-9.918,-9.918,-9.918,-9.918,-9.918,-9.918,-9.918,-9.918,-9.918,-9.918,-9.918,-10.0208,-10.0973,-10.1735,-10.394,-10.6455,-10.8811,-11.1634,-11.3929,-11.6006,-11.7245,-11.848,-11.9215,-11.9634,-12.0233,-12.0831,-12.0831,-12.1071,-12.143,-12.143,-12.143,-12.143,-5.4563,-5.4803,-5.5097,-5.5391,-5.5685,-5.6006,-5.6273,-5.63,-5.7001,-5.8655,-6.0635,-6.2963,-6.6656,-6.9925,-7.3448,-7.6999,-8.0431,-8.2304,-8.2304,-8.2304,-8.2304,-8.2304,-8.2304,-8.2304,-8.2304,-8.2304,-8.1875,-8.1015,-8.1015,-8.0547,-7.9726,-7.9726,-7.9726,-7.9726,-7.9726,-7.9726,-7.9726,-7.9726,-7.9961,-8.0429,-8.082,-8.1289,-8.1679,-8.1758,-8.1758,-8.164,-8.1211,-8.0781,-8.0429,-8.039,-8.0078,-7.9726,-7.9726,-7.9726,-7.9726,-7.9726,-7.9726,-8.0027,-8.0628,-8.2124,-8.3865,-8.6218,-8.85,-9.0798,-9.2504,-9.6191,-9.9485,-10.0347,-10.1424,-10.2544,-10.2544,-10.2544,-10.2544,-10.2544,-10.2544,-10.2093,-10.1038,-10.0887,-10.0486,-9.9331,-9.918,-9.918,-9.918,-9.918,-9.918,-9.918,-9.918,-9.918,-9.918,-9.918,-9.918,-9.918,-9.918,-9.918,-9.918,-10.0463,-10.1481,-10.2188,-10.4436,-10.7075,-10.9996,-11.2154,-11.4213,-11.6449,-11.705,-11.8062,-11.9096,-11.9096,-11.9515,-12.0113,-12.0113,-12.0173,-12.0233,-12.0233,-12.0233,-12.0233,-5.4563,-5.499,-5.5364,-5.5418,-5.5872,-5.6246,-5.63,-5.63,-5.7001,-5.8655,-6.0635,-6.3053,-6.6972,-7.0617,-7.3866,-7.7364,-8.0622,-8.2304,-8.2304,-8.2304,-8.2304,-8.2304,-8.2304,-8.2304,-8.2304,-8.2304,-8.1875,-8.1015,-8.1015,-8.0547,-7.9726,-7.9726,-7.9726,-7.9726,-7.9726,-7.9726,-7.9726,-7.9726,-7.9961,-8.0429,-8.082,-8.1289,-8.1758,-8.2031,-8.1992,-8.1679,-8.1562,-8.125,-8.082,-8.0508,-8.0078,-7.9726,-7.9726,-7.9726,-7.9726,-7.9726,-7.9726,-8.0027,-8.0628,-8.2124,-8.3865,-8.6218,-8.9365,-9.2549,-9.48,-9.7297,-9.9534,-10.0837,-10.201,-10.2544,-10.2544,-10.2544,-10.2544,-10.2544,-10.2544,-10.2093,-10.1038,-10.0887,-10.0486,-9.9331,-9.918,-9.918,-9.918,-9.918,-9.918,-9.918,-9.918,-9.918,-9.918,-9.918,-9.918,-9.918,-9.918,-9.918,-9.918,-10.0463,-10.1481,-10.2188,-10.5177,-10.7853,-10.9996,-11.3017,-11.5056,-11.667,-11.7546,-11.8318,-11.8437,-11.8437,-11.8796,-11.9395,-11.9395,-11.9754,-12.0233,-12.0233,-12.0233,-12.0173,-5.475,-5.5124,-5.5471,-5.5605,-5.6006,-5.63,-5.63,-5.63,-5.7001,-5.8655,-6.075,-6.3262,-6.7099,-7.085,-7.447,-7.8823,-8.1204,-8.2539,-8.2344,-8.2304,-8.2304,-8.2304,-8.2304,-8.2304,-8.2304,-8.2304,-8.1875,-8.1015,-8.1015,-8.0547,-7.9726,-7.9726,-7.9726,-7.9726,-7.9726,-7.9726,-7.9726,-7.9726,-7.9844,-8.0078,-8.0547,-8.0937,-8.1406,-8.1875,-8.2031,-8.1992,-8.1992,-8.1679,-8.125,-8.0586,-8.0195,-8.0,-7.9765,-7.9726,-7.9726,-7.9726,-7.9988,-8.0328,-8.1228,-8.3314,-8.559,-8.7922,-9.1369,-9.4474,-9.5636,-9.7847,-10.0027,-10.1156,-10.196,-10.2544,-10.2544,-10.2544,-10.2544,-10.2544,-10.2544,-10.2093,-10.1038,-10.0887,-10.0486,-9.9331,-9.918,-9.918,-9.918,-9.918,-9.918,-9.918,-9.918,-9.918,-9.918,-9.918,-9.918,-9.918,-9.918,-9.9438,-9.9695,-10.0973,-10.2188,-10.3691,-10.6401,-10.8572,-11.0701,-11.3644,-11.5561,-11.667,-11.7764,-11.8198,-11.8198,-11.8198,-11.8437,-11.8737,-11.8737,-11.8916,-11.9215,-11.9215,-11.9493,-11.9651,-5.4964,-5.5284,-5.5578,-5.5845,-5.6113,-5.63,-5.63,-5.63,-5.7001,-5.8655,-6.0923,-6.3471,-6.7524,-7.1774,-7.6119,-8.0244,-8.2065,-8.2812,-8.2344,-8.2304,-8.2304,-8.2304,-8.2304,-8.2304,-8.2304,-8.2304,-8.1875,-8.1015,-8.1015,-8.0547,-7.9726,-7.9726,-7.9726,-7.9726,-7.9726,-7.9726,-7.9726,-7.9726,-7.9726,-7.9765,-8.0195,-8.0586,-8.0937,-8.1484,-8.1914,-8.2226,-8.2304,-8.2031,-8.1601,-8.082,-8.0508,-8.0312,-7.9961,-7.9765,-7.9726,-7.9726,-8.0328,-8.1228,-8.2124,-8.4456,-8.7341,-8.9653,-9.3069,-9.5914,-9.6469,-9.8395,-10.0617,-10.1375,-10.196,-10.2544,-10.2544,-10.2544,-10.2544,-10.2544,-10.2544,-10.2093,-10.1038,-10.0887,-10.0486,-9.9331,-9.918,-9.918,-9.918,-9.918,-9.918,-9.918,-9.918,-9.918,-9.918,-9.918,-9.918,-9.918,-9.918,-9.9438,-10.0208,-10.143,-10.3192,-10.5177,-10.7371,-10.9287,-11.1402,-11.4155,-11.6006,-11.6729,-11.7764,-11.8198,-11.8198,-11.8198,-11.8198,-11.8198,-11.8198,-11.8198,-11.8198,-11.8198,-11.869,-11.9333,-5.499,-5.5445,-5.5845,-5.5872,-5.6113,-5.63,-5.63,-5.63,-5.7001,-5.8655,-6.0923,-6.3866,-6.8506,-7.51,-7.9788,-8.0659,-8.2219,-8.2812,-8.2344,-8.2304,-8.2304,-8.2304,-8.2304,-8.2304,-8.2304,-8.2304,-8.1875,-8.1015,-8.1015,-8.0547,-7.9726,-7.9726,-7.9726,-7.9726,-7.9726,-7.9726,-7.9726,-7.9726,-7.9726,-7.9765,-8.0195,-8.0429,-8.0547,-8.1406,-8.1758,-8.1797,-8.2187,-8.2031,-8.1679,-8.1562,-8.1015,-8.039,-8.0312,-8.0039,-7.9726,-7.9726,-8.0328,-8.1228,-8.272,-8.5003,-8.7632,-9.0513,-9.3632,-9.6469,-9.8443,-10.0027,-10.1424,-10.2228,-10.2544,-10.2544,-10.2544,-10.2544,-10.2544,-10.2544,-10.2544,-10.2093,-10.1038,-10.0887,-10.0486,-9.9331,-9.918,-9.918,-9.918,-9.918,-9.918,-9.918,-9.918,-9.918,-9.918,-9.918,-9.918,-9.918,-9.918,-9.9438,-10.0208,-10.143,-10.3192,-10.5177,-10.8333,-11.0645,-11.2558,-11.4607,-11.6169,-11.7328,-11.7981,-11.8198,-11.8198,-11.8198,-11.8198,-11.8198,-11.8198,-11.8198,-11.8258,-11.8905,-11.9119,-11.9273,-5.5204,-5.5578,-5.5899,-5.6086,-5.6219,-5.63,-5.63,-5.6637,-5.7702,-5.9243,-6.219,-6.5538,-6.9193,-7.5929,-8.0828,-8.1691,-8.2573,-8.2812,-8.2344,-8.2304,-8.2304,-8.2304,-8.2304,-8.2304,-8.2304,-8.2304,-8.2031,-8.1406,-8.1133,-8.0703,-8.0078,-7.9844,-7.9726,-7.9726,-7.9726,-7.9726,-7.9726,-7.9726,-7.9726,-7.9726,-7.9961,-8.0156,-8.0429,-8.082,-8.1289,-8.1758,-8.2148,-8.2226,-8.2031,-8.1758,-8.125,-8.0664,-8.0429,-8.0078,-7.9687,-8.0328,-8.0928,-8.1826,-8.361,-8.6175,-8.9077,-9.1369,-9.48,-9.8121,-9.9485,-10.0887,-10.196,-10.2494,-10.2544,-10.2544,-10.2544,-10.2544,-10.2544,-10.2544,-10.2544,-10.2243,-10.149,-10.1038,-10.0486,-9.9331,-9.918,-9.918,-9.918,-9.918,-9.918,-9.918,-9.918,-9.918,-9.918,-9.918,-9.918,-9.918,-9.9438,-10.0208,-10.1176,-10.2942,-10.493,-10.7316,-11.0176,-11.2097,-11.2788,-11.5056,-11.639,-11.7328,-11.7981,-11.8198,-11.8198,-11.8198,-11.8198,-11.8198,-11.8198,-11.8198,-11.8258,-11.8905,-11.9547,-12.0273]}]]